[[{"header":{"parameterUnit":"m.s-1","parameterCategory":1,"la1":30.6,"la2":29.2853,"lo1":-89.7004,"lo2":-87.6739,"dy":0.0162,"dx":0.0183,"nx":112,"ny":82,"refTime":"2023-08-27T00:00:00:Z","depth":0,"parameterNumber":2,"parameterNumberName":"U-component_of_WINDS"},"data":[0.0,0.0,0.0,0.0,0.0,0.0,0.0,0.0,0.0,0.0,0.0,0.0,0.0,0.0,0.0,0.0,0.0,0.0,0.0,0.0,0.0,0.0,0.0,0.0,0.0,0.0,0.0,0.0,0.0,0.0,0.0,0.0,0.0,0.0,0.0,0.0,0.0,0.0,0.0,0.0,0.0,0.0,0.0,0.0,0.0,0.0,0.0,0.0,0.0,0.0,0.0,0.0,0.0,0.0,0.0,0.0,0.0,0.0,0.0,0.0,0.0,0.0,0.0,0.0,0.0,0.0,0.0,0.0,0.0,0.0,0.0,0.0,0.0,0.0,0.0,0.0,0.0,0.0,0.0,0.0,0.0,0.0,0.0,0.0,0.0,0.0,0.0,0.0,0.0,0.0,2.7403,2.9372,3.3194,3.5351,3.4709,3.4336,3.2983,3.0277,0.0,0.0,0.0,0.0,0.0,0.0,0.0,0.0,0.0,0.0,0.0,0.0,0.0,0.0,0.0,0.0,0.0,0.0,0.0,0.0,0.0,0.0,0.0,0.0,0.0,0.0,0.0,0.0,0.0,0.0,0.0,0.0,0.0,0.0,0.0,0.0,0.0,0.0,0.0,0.0,0.0,0.0,0.0,0.0,0.0,0.0,0.0,0.0,0.0,0.0,0.0,0.0,0.0,0.0,0.0,0.0,0.0,0.0,0.0,0.0,0.0,0.0,0.0,0.0,0.0,0.0,0.0,0.0,0.0,0.0,0.0,0.0,0.0,0.0,0.0,0.0,0.0,0.0,0.0,0.0,0.0,0.0,0.0,0.0,0.0,0.0,0.0,0.0,0.0,0.0,0.0,0.0,0.0,0.0,0.0,0.0,0.0,0.0,0.0,0.0,0.0,0.0,0.0,0.0,2.747,3.1365,3.41,3.5554,3.5453,3.3694,3.1901,3.0209,0.0,0.0,0.0,0.0,0.0,0.0,0.0,0.0,0.0,0.0,0.0,0.0,0.0,0.0,0.0,0.0,0.0,0.0,0.0,0.0,0.0,0.0,0.0,0.0,0.0,0.0,0.0,0.0,0.0,0.0,0.0,0.0,0.0,0.0,0.0,0.0,0.0,0.0,0.0,0.0,0.0,0.0,0.0,0.0,0.0,0.0,0.0,0.0,0.0,0.0,0.0,0.0,0.0,0.0,0.0,0.0,0.0,0.0,0.0,0.0,0.0,0.0,0.0,0.0,0.0,0.0,0.0,0.0,0.0,0.0,0.0,0.0,0.0,0.0,0.0,0.0,0.0,0.0,0.0,0.0,0.0,0.0,0.0,0.0,0.0,0.0,0.0,0.0,0.0,0.0,0.0,0.0,0.0,0.0,0.0,0.0,0.0,0.0,0.0,0.0,0.0,0.0,0.0,2.7538,2.9578,3.3126,3.4522,3.527,3.5577,3.3302,3.1515,3.0751,2.845,0.0,0.0,0.0,0.0,0.0,0.0,0.0,0.0,0.0,0.0,0.0,0.0,0.0,0.0,0.0,0.0,0.0,0.0,0.0,0.0,0.0,0.0,0.0,0.0,0.0,0.0,0.0,0.0,0.0,0.0,0.0,0.0,0.0,0.0,0.0,0.0,0.0,0.0,0.0,0.0,0.0,0.0,0.0,0.0,0.0,0.0,0.0,0.0,0.0,0.0,0.0,0.0,0.0,0.0,0.0,0.0,0.0,0.0,0.0,0.0,0.0,0.0,0.0,0.0,0.0,0.0,0.0,0.0,0.0,0.0,0.0,0.0,0.0,0.0,0.0,0.0,0.0,0.0,0.0,0.0,0.0,0.0,0.0,0.0,0.0,0.0,0.0,0.0,0.0,0.0,0.0,0.0,0.0,0.0,0.0,0.0,0.0,0.0,0.0,0.0,0.0,0.0,2.9782,3.1365,3.3802,3.4472,3.4911,3.5224,3.2873,3.1239,3.1026,2.7532,0.0,0.0,0.0,0.0,0.0,0.0,0.0,0.0,0.0,0.0,0.0,0.0,0.0,0.0,0.0,0.0,0.0,0.0,0.0,0.0,0.0,0.0,0.0,0.0,0.0,0.0,0.0,0.0,0.0,0.0,0.0,0.0,0.0,0.0,0.0,0.0,0.0,0.0,0.0,0.0,0.0,0.0,0.0,0.0,0.0,0.0,0.0,0.0,0.0,0.0,0.0,0.0,0.0,0.0,0.0,0.0,0.0,0.0,0.0,0.0,0.0,0.0,0.0,0.0,0.0,0.0,0.0,0.0,0.0,0.0,0.0,0.0,0.0,0.0,0.0,0.0,0.0,0.0,0.0,0.0,0.0,0.0,0.0,0.0,0.0,0.0,0.0,0.0,0.0,0.0,0.0,0.0,0.0,0.0,0.0,0.0,0.0,0.0,0.0,0.0,0.0,0.0,2.9881,3.1537,3.2608,3.3988,3.4625,3.4136,3.2154,3.0805,3.0501,2.7065,0.0,0.0,0.0,0.0,0.0,0.0,0.0,0.0,0.0,0.0,0.0,0.0,0.0,0.0,0.0,0.0,0.0,0.0,0.0,0.0,0.0,0.0,0.0,0.0,0.0,0.0,0.0,0.0,0.0,0.0,0.0,0.0,0.0,0.0,0.0,0.0,0.0,0.0,0.0,0.0,0.0,0.0,0.0,0.0,0.0,0.0,0.0,0.0,0.0,0.0,0.0,0.0,0.0,0.0,0.0,0.0,0.0,0.0,0.0,0.0,0.0,0.0,0.0,0.0,0.0,0.0,0.0,0.0,0.0,0.0,0.0,0.0,0.0,0.0,0.0,0.0,0.0,0.0,0.0,0.0,0.0,0.0,0.0,0.0,0.0,0.0,0.0,0.0,0.0,0.0,0.0,0.0,0.0,0.0,0.0,0.0,0.0,0.0,0.0,0.0,0.0,0.0,3.0594,3.1917,0.0,3.3616,3.3691,3.342,3.1502,3.0196,2.9799,0.0,0.0,0.0,0.0,0.0,0.0,0.0,0.0,0.0,0.0,0.0,0.0,0.0,0.0,0.0,0.0,0.0,0.0,0.0,0.0,0.0,0.0,0.0,0.0,0.0,0.0,0.0,0.0,0.0,0.0,0.0,0.0,0.0,0.0,0.0,0.0,0.0,0.0,0.0,0.0,0.0,0.0,0.0,0.0,0.0,0.0,0.0,0.0,0.0,0.0,0.0,0.0,0.0,0.0,0.0,0.0,0.0,0.0,0.0,0.0,0.0,0.0,0.0,0.0,0.0,0.0,0.0,0.0,0.0,0.0,0.0,0.0,0.0,0.0,0.0,0.0,0.0,0.0,0.0,0.0,0.0,0.0,0.0,0.0,0.0,0.0,0.0,0.0,0.0,0.0,0.0,0.0,0.0,0.0,0.0,0.0,0.0,0.0,0.0,0.0,0.0,0.0,2.9762,3.1,3.1999,0.0,3.2862,3.278,3.2506,3.062,2.9388,2.9157,0.0,0.0,0.0,0.0,0.0,0.0,0.0,0.0,0.0,0.0,0.0,0.0,0.0,0.0,0.0,0.0,0.0,0.0,0.0,0.0,0.0,0.0,0.0,0.0,0.0,0.0,0.0,0.0,0.0,0.0,0.0,0.0,0.0,0.0,0.0,0.0,0.0,0.0,0.0,0.0,0.0,0.0,0.0,0.0,0.0,0.0,0.0,0.0,0.0,0.0,0.0,0.0,0.0,0.0,0.0,0.0,0.0,0.0,0.0,0.0,0.0,0.0,0.0,0.0,0.0,0.0,0.0,0.0,0.0,0.0,0.0,0.0,0.0,0.0,0.0,0.0,0.0,0.0,0.0,0.0,0.0,0.0,0.0,0.0,0.0,0.0,0.0,0.0,0.0,0.0,0.0,0.0,0.0,0.0,0.0,0.0,0.0,0.0,0.0,0.0,0.0,0.0,2.9436,3.0882,3.1709,3.116,3.1741,3.1997,3.142,2.955,2.8483,0.0,0.0,0.0,0.0,0.0,0.0,0.0,0.0,0.0,0.0,0.0,0.0,0.0,0.0,0.0,0.0,0.0,0.0,0.0,0.0,0.0,0.0,0.0,0.0,0.0,0.0,0.0,0.0,0.0,0.0,0.0,0.0,0.0,0.0,0.0,0.0,0.0,0.0,0.0,0.0,0.0,0.0,0.0,0.0,0.0,0.0,0.0,0.0,0.0,0.0,0.0,0.0,0.0,0.0,0.0,0.0,0.0,0.0,0.0,0.0,0.0,0.0,0.0,0.0,0.0,0.0,0.0,0.0,0.0,0.0,0.0,0.0,0.0,0.0,0.0,0.0,0.0,0.0,0.0,0.0,0.0,0.0,0.0,0.0,0.0,0.0,0.0,0.0,0.0,0.0,0.0,0.0,0.0,0.0,0.0,0.0,0.0,0.0,0.0,0.0,0.0,0.0,0.0,3.012,3.0895,3.1307,3.111,3.1842,3.1866,3.0782,3.0166,2.9481,2.8694,0.0,0.0,0.0,0.0,0.0,0.0,0.0,0.0,0.0,0.0,0.0,0.0,0.0,0.0,0.0,0.0,0.0,0.0,0.0,0.0,0.0,0.0,0.0,0.0,0.0,0.0,0.0,0.0,0.0,0.0,0.0,0.0,0.0,0.0,0.0,0.0,0.0,0.0,0.0,0.0,0.0,0.0,0.0,0.0,0.0,0.0,0.0,0.0,0.0,0.0,0.0,0.0,0.0,0.0,0.0,0.0,0.0,0.0,0.0,0.0,0.0,0.0,0.0,0.0,0.0,0.0,0.0,0.0,0.0,0.0,0.0,0.0,0.0,0.0,0.0,0.0,0.0,0.0,0.0,0.0,0.0,0.0,0.0,0.0,0.0,0.0,0.0,0.0,0.0,0.0,0.0,0.0,0.0,0.0,0.0,0.0,0.0,0.0,0.0,0.0,0.0,0.0,3.051,3.0752,3.0935,3.1185,3.165,3.1474,3.04,3.0011,2.9391,2.8335,0.0,0.0,0.0,0.0,0.0,0.0,0.0,0.0,0.0,0.0,0.0,0.0,0.0,0.0,0.0,0.0,0.0,0.0,0.0,0.0,0.0,0.0,0.0,0.0,0.0,0.0,0.0,0.0,0.0,0.0,0.0,0.0,0.0,0.0,0.0,0.0,0.0,0.0,0.0,0.0,0.0,0.0,0.0,0.0,0.0,0.0,0.0,0.0,0.0,0.0,0.0,0.0,0.0,0.0,0.0,0.0,0.0,0.0,0.0,0.0,0.0,0.0,0.0,0.0,0.0,0.0,0.0,0.0,0.0,0.0,0.0,0.0,0.0,0.0,0.0,0.0,0.0,0.0,0.0,0.0,0.0,0.0,0.0,0.0,0.0,0.0,0.0,0.0,0.0,0.0,0.0,0.0,0.0,0.0,0.0,0.0,0.0,0.0,0.0,0.0,0.0,0.0,3.072,3.0553,3.0658,3.1305,3.1351,3.0999,3.0265,2.955,2.8706,2.7752,0.0,0.0,0.0,0.0,0.0,0.0,0.0,0.0,0.0,0.0,0.0,0.0,0.0,0.0,0.0,0.0,0.0,0.0,0.0,0.0,0.0,0.0,0.0,0.0,0.0,0.0,0.0,0.0,0.0,0.0,0.0,0.0,0.0,0.0,0.0,0.0,0.0,0.0,0.0,0.0,0.0,0.0,0.0,0.0,0.0,0.0,0.0,0.0,0.0,0.0,0.0,0.0,0.0,0.0,0.0,0.0,0.0,0.0,0.0,0.0,2.7159,0.0,0.0,0.0,0.0,0.0,0.0,0.0,0.0,0.0,0.0,0.0,0.0,0.0,0.0,0.0,0.0,0.0,0.0,0.0,0.0,0.0,0.0,0.0,0.0,0.0,0.0,0.0,0.0,0.0,0.0,0.0,0.0,0.0,0.0,0.0,0.0,0.0,0.0,0.0,0.0,0.0,3.072,3.0553,3.0658,3.1305,3.175,3.1488,3.0295,2.9977,2.9409,2.8529,2.8701,0.0,0.0,0.0,0.0,0.0,0.0,0.0,0.0,0.0,0.0,0.0,0.0,0.0,0.0,0.0,0.0,0.0,0.0,0.0,0.0,0.0,0.0,0.0,0.0,0.0,0.0,0.0,0.0,0.0,0.0,0.0,0.0,0.0,0.0,0.0,0.0,0.0,0.0,0.0,0.0,0.0,0.0,0.0,0.0,0.0,0.0,0.0,0.0,0.0,0.0,0.0,0.0,0.0,0.0,0.0,0.0,0.0,0.0,0.0,0.0,2.8876,0.0,0.0,0.0,0.0,0.0,0.0,0.0,0.0,0.0,0.0,0.0,0.0,0.0,0.0,0.0,0.0,0.0,0.0,0.0,0.0,0.0,0.0,0.0,0.0,0.0,0.0,0.0,0.0,0.0,0.0,0.0,0.0,0.0,0.0,0.0,0.0,0.0,0.0,0.0,0.0,3.169,3.1294,3.1098,3.1689,3.1977,3.1683,3.0593,3.0068,2.9516,2.8706,2.8861,0.0,0.0,0.0,0.0,0.0,0.0,0.0,0.0,0.0,0.0,0.0,0.0,0.0,0.0,0.0,0.0,0.0,0.0,0.0,0.0,0.0,0.0,0.0,0.0,0.0,0.0,0.0,0.0,0.0,0.0,0.0,0.0,0.0,0.0,0.0,0.0,0.0,0.0,0.0,0.0,0.0,0.0,0.0,0.0,0.0,0.0,0.0,0.0,0.0,0.0,0.0,0.0,0.0,3.4721,3.5395,3.6298,3.7003,3.7327,3.7183,3.392,3.1822,3.0676,3.0704,0.0,0.0,0.0,0.0,0.0,0.0,0.0,0.0,0.0,0.0,0.0,0.0,0.0,0.0,0.0,0.0,0.0,0.0,0.0,0.0,0.0,0.0,3.3363,3.3666,3.3761,3.3549,3.2766,0.0,0.0,0.0,0.0,0.0,0.0,0.0,0.0,0.0,0.0,0.0,3.2772,3.2102,3.1719,3.2283,3.2205,3.1788,3.089,3.0063,2.9355,2.8816,2.9052,2.9276,0.0,0.0,0.0,0.0,0.0,0.0,0.0,0.0,0.0,0.0,0.0,0.0,0.0,0.0,0.0,0.0,0.0,0.0,0.0,0.0,0.0,0.0,0.0,0.0,0.0,0.0,0.0,0.0,0.0,0.0,0.0,0.0,2.9644,3.0791,0.0,0.0,0.0,0.0,0.0,0.0,0.0,0.0,0.0,0.0,0.0,0.0,0.0,3.4733,3.5322,3.7461,3.7885,3.6754,3.9878,4.038,3.8582,3.9672,4.0308,4.0471,3.9971,0.0,3.492,3.4262,0.0,0.0,0.0,0.0,0.0,0.0,0.0,0.0,0.0,0.0,0.0,0.0,0.0,0.0,0.0,0.0,0.0,0.0,0.0,0.0,0.0,0.0,3.433,3.438,3.4864,3.5284,3.5135,3.4228,3.3178,3.2573,3.2021,0.0,0.0,0.0,0.0,0.0,0.0,0.0,3.2793,3.2454,3.2287,3.2844,3.273,3.2101,3.092,3.0063,2.9535,2.9445,2.8959,2.9161,3.0094,3.032,0.0,0.0,0.0,0.0,0.0,0.0,0.0,0.0,0.0,0.0,0.0,0.0,0.0,0.0,0.0,0.0,0.0,0.0,0.0,0.0,0.0,0.0,0.0,0.0,0.0,0.0,0.0,0.0,0.0,3.024,3.0733,3.1525,3.0638,3.0309,0.0,0.0,0.0,0.0,0.0,0.0,0.0,0.0,0.0,3.5275,3.7294,3.8418,3.8561,4.0382,4.1107,4.0742,4.2777,4.3328,4.2625,4.4015,4.4218,4.3535,4.3997,4.2638,3.9908,3.7898,3.6245,3.4855,0.0,0.0,0.0,0.0,3.3872,3.45,3.5684,3.6076,3.5878,3.5352,0.0,0.0,0.0,0.0,0.0,0.0,0.0,3.4797,3.4392,3.5318,3.6299,3.5893,3.6671,3.7415,3.7009,3.6135,3.4985,0.0,3.3326,3.3259,3.2685,0.0,0.0,0.0,0.0,3.257,3.2833,3.3059,3.3211,3.3365,3.2945,3.2434,3.1805,3.0758,2.9953,2.9594,2.9624,2.9732,2.9887,3.0907,3.1517,0.0,0.0,0.0,0.0,0.0,0.0,0.0,0.0,0.0,0.0,0.0,0.0,0.0,0.0,0.0,0.0,0.0,0.0,0.0,0.0,0.0,0.0,0.0,0.0,0.0,0.0,0.0,0.0,3.1732,3.2278,3.2408,3.278,3.2859,0.0,0.0,0.0,0.0,0.0,0.0,3.6552,3.8065,3.9072,3.9246,4.1142,4.2158,4.2109,4.318,4.4026,4.4678,4.5161,4.5701,4.6342,4.7413,4.7307,4.6342,4.6896,4.6283,4.4547,4.0974,3.8865,3.7644,3.5865,3.5545,3.615,3.6538,3.6895,3.7292,3.8567,3.8924,3.8552,3.7401,3.6636,3.5993,3.4896,0.0,0.0,0.0,0.0,3.6405,3.7031,3.7955,3.8667,3.8294,3.8906,3.9429,3.8891,3.8266,3.7091,0.0,3.4464,3.4268,3.3142,0.0,0.0,0.0,0.0,3.3357,3.329,3.3752,3.4091,3.3908,3.3457,3.2976,3.2557,3.145,3.0582,3.0103,3.0342,3.0372,3.0103,3.145,3.2002,3.1589,0.0,0.0,0.0,0.0,0.0,0.0,0.0,0.0,0.0,0.0,0.0,0.0,0.0,0.0,0.0,0.0,0.0,0.0,0.0,0.0,0.0,0.0,0.0,0.0,0.0,0.0,0.0,0.0,0.0,3.3179,3.6112,0.0,0.0,0.0,0.0,3.7488,3.9564,4.0777,4.0547,4.2046,4.3506,4.4877,4.5503,4.6162,4.6952,4.6767,4.7059,4.7879,4.7713,4.8006,4.87,4.8518,4.8569,4.8735,4.877,4.87,4.8218,4.301,4.1279,4.167,3.9281,3.9743,4.164,4.0408,4.0649,4.1456,4.0531,4.0463,4.078,4.0882,4.0182,3.9147,3.8367,3.7949,0.0,0.0,3.8229,3.949,3.9797,4.046,4.1204,4.1847,4.1586,4.1177,4.1143,4.0449,3.9114,0.0,3.4962,3.403,3.3936,0.0,3.363,3.3716,3.4285,3.4685,3.4636,3.4663,3.463,3.4475,3.4445,3.3873,3.2617,3.1869,3.1422,3.1392,3.0851,3.0791,3.1362,3.1509,3.1796,3.2351,3.221,0.0,0.0,0.0,0.0,0.0,0.0,0.0,0.0,0.0,0.0,0.0,0.0,0.0,0.0,0.0,0.0,0.0,0.0,0.0,0.0,0.0,0.0,0.0,0.0,0.0,0.0,0.0,0.0,3.7516,3.9637,0.0,3.932,4.0215,4.1005,4.1225,4.2849,4.4014,4.4447,4.6009,4.7011,4.7335,4.8039,4.8488,4.859,4.8461,4.8508,4.8635,4.9033,4.9321,4.9449,4.9873,4.9802,4.9414,4.9414,4.9132,4.8483,4.6645,4.5411,4.4565,4.2732,4.2238,4.2529,4.2186,4.2121,4.2226,4.2195,4.2154,4.2018,4.1426,4.0629,3.9846,3.9589,3.9412,3.9371,3.9691,4.0235,4.0764,4.1357,4.2049,4.2557,4.2354,4.2078,4.1733,4.1385,3.9909,3.8399,3.7599,3.6578,3.5591,3.4659,3.4129,3.3802,3.3624,3.4235,3.4546,3.3997,3.4655,3.5224,3.513,3.4741,3.4292,3.3814,3.2796,3.1988,3.1511,3.13,3.1091,3.0881,3.13,3.1597,3.1682,3.1595,3.1531,0.0,0.0,0.0,0.0,0.0,0.0,0.0,0.0,0.0,0.0,0.0,0.0,0.0,0.0,0.0,0.0,0.0,0.0,0.0,0.0,0.0,0.0,0.0,0.0,0.0,0.0,3.9933,4.0775,4.3091,4.3979,4.2362,4.3506,4.4414,4.4592,4.6037,4.7181,4.7803,4.9025,4.9658,4.959,5.0091,5.0283,4.9991,4.9607,4.9457,4.9588,4.9835,4.9978,5.0101,5.0662,5.0592,5.0101,5.0101,4.9785,4.9328,4.9328,4.8556,4.7257,4.5958,4.4879,4.4117,4.4402,4.4003,4.3409,4.3731,4.3632,4.3197,4.2543,4.1847,4.1238,4.1204,4.1035,4.0949,4.1692,4.1842,4.1957,4.2699,4.3293,4.3563,4.3111,4.2584,4.2136,4.1704,4.0006,3.845,3.8333,3.7496,3.6477,3.5276,3.4912,3.4758,3.4575,3.4757,3.4898,3.4532,3.51,3.5519,3.5519,3.51,3.4741,3.4502,3.3694,3.2886,3.2228,3.193,3.1632,3.1394,3.1574,3.1634,3.1575,3.1486,3.1485,3.154,0.0,0.0,0.0,0.0,0.0,0.0,0.0,0.0,0.0,0.0,0.0,0.0,0.0,0.0,0.0,0.0,0.0,0.0,0.0,0.0,0.0,0.0,0.0,3.6767,4.0551,4.3208,4.2684,4.6345,4.7819,4.4892,4.728,4.8547,4.7491,4.9117,5.0298,5.0566,5.1081,5.1488,5.1744,5.1744,5.1592,5.1369,5.0295,5.0136,5.0908,5.0101,5.0136,5.0873,5.0873,5.0873,5.0873,5.0873,5.0873,5.0873,5.0873,5.0417,4.9644,4.8872,4.7806,4.6794,4.6969,4.6291,4.5267,4.5108,4.4708,4.4293,4.4497,4.4079,4.3382,4.3382,4.2854,4.2307,4.3048,4.3138,4.3193,4.3896,4.4212,4.4236,4.4236,4.3229,4.2269,4.2269,4.0894,3.9455,3.8822,3.7677,3.6562,3.5868,3.619,3.6507,3.6507,3.5968,0.0,3.6417,3.5938,3.5549,3.5579,3.5549,3.528,3.4592,3.4532,3.4233,3.3574,3.2734,3.2614,3.3208,3.2461,3.2014,3.2014,3.1892,3.2061,3.2513,0.0,0.0,0.0,0.0,0.0,0.0,0.0,0.0,0.0,0.0,0.0,0.0,0.0,0.0,0.0,0.0,0.0,0.0,0.0,0.0,0.0,0.0,4.0756,4.0793,4.3578,4.623,4.7797,4.935,4.9964,4.9189,5.0185,5.0748,5.0436,5.1464,5.2359,5.2993,5.2595,5.2615,5.3034,5.2502,5.2342,5.2634,5.1806,5.1505,5.1681,5.0943,5.0662,5.0873,5.0873,5.0873,5.0873,5.0873,5.0873,5.0873,5.0873,5.0768,5.0487,4.9323,4.8305,4.7415,4.6611,4.5576,4.4541,4.4293,4.4155,4.4073,4.4155,4.4078,4.391,4.391,4.3776,4.3585,4.3786,4.3853,4.3829,4.4064,4.3739,4.3376,4.3376,4.2236,4.1162,4.1327,4.0009,3.8772,3.8732,3.8262,3.7713,3.7053,3.7015,3.7165,3.7165,3.7015,0.0,3.7135,3.6596,3.6387,3.6836,3.6477,3.6148,3.5968,3.5489,3.4921,3.4262,3.3389,3.306,3.3208,3.2874,3.2691,3.2537,3.2378,3.2402,0.0,0.0,0.0,0.0,0.0,0.0,0.0,0.0,0.0,0.0,0.0,0.0,0.0,0.0,0.0,0.0,0.0,0.0,0.0,0.0,0.0,0.0,4.2992,4.4964,4.658,4.7765,4.9213,5.1184,5.1934,5.2305,5.2243,5.2437,5.2533,5.2429,5.296,5.3423,5.3618,5.3406,5.3318,5.3435,5.312,5.2976,5.319,5.2418,5.2172,5.2488,5.1716,5.1365,5.1365,5.1365,5.1189,5.0908,5.1224,5.1365,5.1365,5.1365,5.1365,0.0,0.0,0.0,0.0,0.0,4.5513,4.4909,4.443,4.4331,4.4297,4.414,4.4097,4.4097,4.4097,4.4039,4.4015,4.4015,4.3923,4.3864,4.3864,4.3443,4.2953,4.2953,4.1788,4.0758,4.0857,3.9825,3.8811,3.8983,3.8912,0.0,3.8302,3.8003,3.7913,3.8212,3.7764,3.7494,3.7793,3.7255,3.6896,3.7015,3.6716,3.6387,3.6088,3.5729,0.0,0.0,0.0,3.3465,3.3338,3.3275,0.0,0.0,0.0,3.3035,3.3325,3.3325,0.0,0.0,3.3152,3.2942,0.0,0.0,0.0,0.0,0.0,0.0,0.0,0.0,0.0,0.0,0.0,0.0,0.0,0.0,0.0,0.0,4.7481,4.9415,5.2806,5.24,5.2159,5.3217,5.4029,5.4358,5.3975,5.3993,5.3958,5.3686,5.3904,5.3885,5.3493,0.0,0.0,0.0,0.0,5.3611,5.3436,5.2664,5.2628,5.3296,5.2523,5.2137,5.2137,5.2137,5.1751,5.1049,5.1821,5.2102,5.2032,5.2046,5.1899,5.1647,5.0471,4.9217,4.7971,4.6486,4.5881,4.5682,4.5175,0.0,0.0,4.4449,4.424,4.4173,4.4173,4.3989,4.3839,4.3839,4.378,4.3628,4.3628,4.3141,4.2645,4.2645,4.1625,4.0554,4.0554,3.992,3.9409,3.9409,3.9409,3.9409,3.9409,3.8901,3.8721,3.932,3.8392,3.7853,3.8422,3.7943,3.7345,3.6866,0.0,0.0,3.5789,3.5729,3.5508,3.5228,3.4469,3.395,3.3652,3.3587,3.3848,3.4399,3.3848,3.3848,3.4399,3.4399,3.4399,3.4399,3.3848,3.3587,0.0,0.0,0.0,0.0,0.0,0.0,0.0,0.0,0.0,0.0,0.0,0.0,0.0,0.0,0.0,4.8948,5.0664,5.249,5.5039,5.5049,5.4633,5.4223,5.4701,5.4652,5.3779,5.3999,5.4183,5.4183,5.4183,5.4464,5.5016,5.457,5.4499,5.5051,5.4477,5.4442,5.5051,5.4279,5.3928,5.4068,0.0,0.0,5.2944,5.2944,5.2523,5.1821,5.2628,5.2593,5.2011,5.223,5.1477,5.0187,4.971,4.8599,4.7095,4.6806,4.6311,4.5781,4.5678,4.5645,4.5611,4.5479,4.5108,4.461,4.461,4.4152,0.0,4.3628,4.3628,4.3628,4.3628,4.271,4.1787,4.1787,4.0653,3.9666,3.9666,3.9553,3.9409,3.9409,3.9409,3.9409,3.9409,3.932,3.926,3.9409,3.92,3.908,3.92,3.8631,3.8362,3.8811,3.8362,3.7764,3.7105,3.6909,3.6395,3.5288,3.478,3.4426,3.4225,3.4225,3.4283,3.4399,3.4283,3.4283,3.4399,3.4399,3.4399,3.4399,3.4283,3.4023,0.0,0.0,0.0,0.0,0.0,0.0,0.0,0.0,0.0,0.0,0.0,4.3262,0.0,0.0,4.9633,5.2708,5.3806,5.4894,5.6732,5.6557,5.6005,5.5453,5.5472,5.5304,5.4613,5.4723,5.4911,5.4911,5.4911,5.5086,5.5507,5.5121,5.5086,5.5507,5.5121,5.5086,5.5507,5.47,5.4524,5.4911,5.4103,5.3752,5.3752,5.3752,5.3331,5.2628,5.3137,5.3276,5.3134,5.3018,5.1863,5.0159,4.9786,4.874,4.7438,4.7438,4.7206,4.6841,4.6477,4.6344,4.6278,4.5914,4.5549,4.5251,4.5251,4.4986,4.4622,4.4257,4.4158,4.4098,4.3699,4.2784,4.1897,4.156,4.0619,3.9918,3.9918,3.9649,3.9529,3.9858,3.9918,3.9798,3.9469,3.9679,3.9798,3.9469,3.9409,3.929,3.896,3.8601,3.8272,3.7973,3.7913,3.7644,3.685,3.6517,3.6114,3.5465,3.4873,3.4496,3.4399,3.4399,3.4399,3.4399,3.4399,3.4399,3.4399,3.4399,3.4399,3.4399,3.4399,3.4264,0.0,0.0,0.0,0.0,0.0,0.0,0.0,0.0,4.2304,4.3892,4.5956,4.83,5.0982,5.2142,5.3508,5.598,5.6414,5.6711,5.755,5.7101,5.6474,5.6114,5.5999,5.5822,5.5507,5.5507,5.5507,5.5507,5.5507,5.5507,5.5507,5.5507,5.5507,5.5507,5.5507,5.5507,5.5507,5.4875,5.4875,5.5507,5.484,5.4524,5.4524,5.4524,5.4138,5.3436,5.347,5.3723,5.4196,5.3618,5.2392,5.0697,5.0116,4.9259,4.8398,4.81,4.8001,4.7934,4.7305,4.7106,4.7007,4.6411,4.6113,4.6013,4.6013,4.5914,4.5682,4.5052,4.4887,4.4764,4.3977,4.3227,4.2553,4.1789,4.1104,4.0576,4.0576,4.0187,3.9948,4.0487,4.0576,4.0427,3.9888,4.0247,4.0337,3.9529,3.9409,3.92,3.8661,3.8571,3.8182,3.7165,3.7375,3.7276,3.6446,3.6016,3.5809,3.5711,3.502,3.4603,3.4603,3.4486,3.4399,3.4399,3.4399,3.4399,3.4399,3.4545,3.4603,3.4603,3.4719,3.4564,3.4525,3.5647,3.7175,3.9301,3.9807,4.0991,0.0,0.0,4.774,4.9901,5.1665,5.337,5.5064,5.6042,5.6812,5.7673,5.7765,5.7478,5.6706,5.6253,5.5766,5.5036,5.5511,5.5822,5.5507,5.5507,5.5507,5.5507,5.5507,5.5507,5.5507,5.5507,5.5507,5.5507,5.5507,5.5507,5.5507,5.5437,5.5437,5.5507,5.5402,5.5367,5.5367,5.5367,5.4946,5.4116,5.3679,5.3667,5.3905,5.3381,5.237,5.1156,5.0456,5.009,4.9823,4.8498,4.8001,4.8001,4.7901,4.7868,4.7868,4.7769,4.7305,4.6775,4.6775,4.6311,4.5781,4.5682,4.5682,4.5524,4.4691,4.4029,4.3277,4.2499,4.1758,4.1265,4.1265,4.1205,4.1175,4.1265,4.1265,4.1235,4.1175,4.1235,4.0846,3.9619,3.9409,3.9379,3.932,3.932,3.926,3.911,3.8601,3.7893,3.6921,3.6652,3.6412,3.627,3.5619,3.527,3.527,3.4719,3.4399,3.4399,3.4399,3.4399,3.4399,3.498,3.527,3.527,3.5822,3.5123,3.7853,3.8763,4.0048,0.0,4.452,4.6764,4.8952,5.0842,5.2543,5.3759,5.4943,5.6066,5.7188,5.7144,5.7221,0.0,5.825,5.8065,5.6944,5.6666,5.5914,5.4084,5.4155,5.4486,5.477,5.4805,5.5016,5.5472,5.5507,5.5507,5.5507,5.5507,5.5718,5.6139,5.5718,5.5718,5.6139,5.5718,5.5718,5.6139,5.5718,5.5718,5.6139,5.5718,5.4999,5.4067,5.4164,5.3925,5.3449,5.3179,5.2538,5.1663,5.1054,5.0585,5.0021,4.8564,4.8266,4.8597,4.8166,4.8001,4.8001,4.8001,4.7802,4.7537,4.7537,4.7305,4.6974,4.6543,4.6444,4.6156,4.4902,4.4421,4.3858,4.265,4.2152,4.1953,4.1953,4.1654,4.1504,4.1863,4.1953,4.1833,4.1444,4.1683,4.1624,4.0696,4.0546,4.0427,4.0038,3.9978,3.9755,3.9294,3.8852,3.8263,3.7357,3.7113,3.6794,3.6344,3.6054,3.5909,3.5909,3.5299,3.5154,3.5503,3.4806,3.4777,3.5532,3.5415,3.5561,3.5909,3.617,3.5741,4.0157,4.157,0.0,4.57,4.9062,5.1857,5.2346,5.4483,5.6491,5.6912,5.7442,5.7985,5.8347,5.7578,5.7045,5.746,5.787,5.7769,5.6799,5.6458,5.5482,5.3176,5.2664,5.2769,5.3296,5.3928,5.4559,5.5121,5.5367,5.5613,5.5788,5.5613,5.5859,5.6561,5.5894,5.5753,5.628,5.5788,5.5788,5.628,5.5753,5.5788,5.628,5.5599,5.4911,5.4219,5.4274,5.3847,5.3111,5.3008,5.2604,5.2033,5.1555,5.1082,5.0651,4.916,4.8829,4.9028,4.8498,4.8166,4.8001,4.8001,4.8001,4.8001,4.8001,4.8001,4.7901,4.7338,4.7043,4.6552,4.5221,4.4724,4.4215,4.2922,4.2761,4.2851,4.2671,4.2402,4.2312,4.2821,4.291,4.2761,4.2282,4.2581,4.2671,4.2013,4.1923,4.1624,4.0786,4.0592,4.0278,3.9446,3.9313,3.8913,3.815,3.7798,3.7331,3.6867,3.6489,3.6315,3.6315,3.588,3.5822,3.6286,3.5415,3.5386,3.6315,3.6025,3.6141,3.6577,3.6751,3.662,4.0666,0.0,4.7537,5.0156,5.2791,5.5257,5.7141,5.8542,5.947,5.9506,5.9506,5.9289,5.8528,5.7732,5.7021,5.6527,5.6454,5.6233,5.566,5.4875,5.3787,5.2242,5.14,5.0978,0.0,5.3015,5.4314,5.4349,5.5086,5.5823,5.6526,5.5894,5.5859,5.6561,5.5894,5.5507,5.5543,5.5507,5.5507,5.5543,5.5507,5.5507,5.5483,5.4992,5.4775,5.4904,5.3687,5.3111,5.3043,5.2624,5.2445,5.2345,5.1545,5.1711,5.2142,5.0684,4.969,4.9094,4.9094,4.8597,4.8001,4.8001,4.8001,4.8001,4.8001,4.8001,4.8001,4.7968,4.7372,4.6657,4.5881,4.5079,4.4251,4.3457,4.3778,4.4077,4.3449,4.3778,4.4227,4.4257,4.4257,4.4257,4.4227,4.4257,4.4018,4.3359,4.3269,4.2821,4.1504,4.1203,4.0812,4.0159,4.0253,4.011,3.9525,3.8626,3.8173,3.8144,3.6983,3.6315,3.6315,3.6286,3.6286,3.6315,3.6257,3.6257,3.6315,3.6925,3.7244,3.7302,3.7883,3.7919,4.5319,0.0,5.1959,5.481,5.6969,5.8823,6.0274,6.0518,6.0267,5.9724,5.7949,5.6247,5.5414,5.4002,5.3181,5.3901,5.5131,5.5971,5.5566,5.5683,5.47,5.1645,5.147,0.0,0.0,0.0,0.0,5.4208,5.5051,5.5823,5.6561,5.6877,5.7368,5.8176,5.7438,5.7052,5.7052,5.649,5.6245,5.6245,5.6369,5.621,5.5757,5.512,5.4461,5.3754,5.328,5.2939,5.2624,5.2445,5.2373,5.2373,5.2108,5.2175,5.2307,5.1843,5.1181,5.0485,5.0021,4.969,4.9458,4.9458,4.9458,4.9458,4.9458,4.9458,4.9323,4.8777,4.8037,4.7355,4.6479,4.5341,4.4527,4.4569,4.4466,4.4377,4.4586,4.4796,4.4975,4.4975,4.4975,4.4975,4.4975,4.4975,4.4885,4.4676,4.3898,4.318,4.2731,4.2514,4.2011,4.1233,4.1116,4.0383,3.8743,3.883,3.8492,3.768,3.7593,3.7564,3.7564,3.7186,3.7157,3.7564,3.6751,3.6722,3.7564,3.7389,3.7506,3.7912,3.7814,3.7777,4.8896,5.2484,5.5625,5.8417,6.0382,6.187,6.2529,6.1679,6.0339,5.8791,5.6079,5.365,5.2498,5.0805,5.0078,5.1574,5.2695,5.3737,5.4662,5.4899,5.4138,5.1961,5.1891,5.1435,0.0,0.0,0.0,5.3787,5.5156,5.6245,5.6982,5.7509,5.8176,5.8983,5.8211,5.779,5.779,5.7298,5.6956,5.6675,5.6379,5.6053,5.5615,5.4769,5.3923,5.3168,5.297,5.2694,5.2373,5.2373,5.2373,5.2373,5.2373,5.2373,5.2373,5.2373,5.2075,5.1578,5.085,5.0419,5.022,5.022,5.022,5.022,5.022,5.022,5.005,4.9496,4.8641,4.77,4.709,4.5865,4.4838,4.5259,4.5155,4.5095,4.5244,4.5484,4.5663,4.5663,4.5663,4.5663,4.5663,4.5454,4.5304,4.5304,4.4504,4.3886,4.3886,4.3612,4.313,4.232,4.2099,4.1324,3.9712,3.9538,3.9073,3.8057,3.8115,3.8115,3.7883,3.7709,3.7796,3.8202,3.7389,3.7389,3.8202,3.7825,3.7825,3.8202,3.7777,3.7548,5.1434,5.5082,5.8699,6.0993,6.2983,6.4274,6.3779,6.2037,5.9667,5.6817,5.3971,5.1536,0.0,0.0,4.7847,4.9647,4.9531,5.0236,5.3262,5.2901,5.2558,0.0,0.0,0.0,0.0,0.0,0.0,5.3296,0.0,5.6982,5.7825,5.7895,5.8281,5.9053,5.8316,5.7895,5.786,5.7825,5.7479,5.6932,5.5684,5.5213,5.5295,5.385,5.3302,5.3367,5.2705,5.2407,5.2373,5.2373,5.2373,5.2373,5.2373,5.2373,5.2373,5.2373,5.2373,5.2274,5.1578,5.0883,5.032,5.032,5.032,5.032,5.032,5.032,5.032,5.0182,4.899,4.7707,4.7662,4.6493,4.5304,4.5394,4.5873,4.6142,4.5514,4.5903,4.6381,4.6381,4.6381,4.6381,4.6381,4.5843,4.5394,4.5394,4.5257,4.506,4.5,4.4549,4.406,4.3332,4.3076,4.2731,4.2092,4.0873,3.9886,3.9276,3.8638,3.8028,3.7418,3.7941,3.8231,3.8202,3.8202,3.8202,3.8202,3.8202,3.8202,3.8202,3.7806,3.7423,5.6507,5.9832,6.2567,6.3811,6.3998,6.358,6.2245,5.9074,5.591,5.4127,4.9768,4.6255,0.0,0.0,0.0,4.8887,5.0616,0.0,5.5414,5.6129,0.0,5.5051,0.0,5.4981,5.3822,5.477,0.0,0.0,5.628,5.7228,5.8632,5.9229,5.9615,5.9826,5.9615,5.9264,5.8702,5.766,5.7175,5.7227,5.6399,5.6115,5.6174,5.5369,5.4409,5.34,5.3235,5.287,5.2373,5.2373,5.2373,5.2373,5.2373,5.2373,5.2373,5.2373,5.2373,5.234,5.2175,5.1976,5.1843,5.1843,5.1843,5.1843,5.1843,5.1843,5.1597,5.0252,4.9228,4.8326,4.7598,4.6358,4.5544,4.6561,4.6561,4.6411,4.6711,4.692,4.707,4.707,4.707,4.707,4.707,4.692,4.6685,4.6513,4.634,4.5927,4.5119,4.4549,4.406,4.3332,4.3076,4.2557,4.1453,4.1047,4.0554,3.9915,3.9712,3.9334,3.8754,3.887,3.8725,3.8202,3.8202,3.8202,3.8202,3.8202,3.8202,3.8202,3.8313,3.8076,5.9894,6.2792,6.4819,6.4749,6.4421,6.3311,6.0653,5.7084,5.3588,5.0848,4.671,4.3683,4.4017,4.3529,0.0,0.0,0.0,0.0,5.4768,5.5812,5.635,0.0,5.6877,0.0,5.5929,5.6631,5.7263,0.0,5.7649,5.8035,5.8948,5.9685,6.0107,6.0107,6.0107,5.9768,5.9155,5.8109,5.7501,5.7454,5.6466,5.6111,5.6111,5.5439,5.4692,5.3897,0.0,5.3665,5.3301,5.297,5.2837,5.2804,5.2506,5.2373,5.2373,5.2373,5.2373,5.2373,5.2373,5.2373,5.2373,5.2373,5.2373,5.2373,5.2373,5.2373,5.2125,5.0767,4.9864,4.9016,4.8065,4.7262,4.6711,4.7189,4.7459,4.7638,4.7728,4.7967,4.8087,4.7788,4.7489,4.7309,4.7309,4.7309,4.7222,4.6931,4.6756,4.6314,4.5577,4.5229,4.4734,4.4064,4.3687,4.3021,4.2005,4.1686,4.125,4.0583,4.0525,4.0147,3.9247,3.9189,3.8899,3.8202,3.8202,3.8347,3.8638,3.8638,3.8783,3.9044,3.9032,3.87,6.2384,6.4709,6.6135,6.4763,6.4142,6.2875,5.8906,5.5281,5.1556,4.7451,0.0,4.2268,4.2353,4.2194,4.3089,4.6205,0.0,4.9081,5.3294,5.4288,5.5472,5.7825,5.8105,5.8105,5.8105,5.8105,5.8386,5.9089,5.9159,5.9159,5.9159,5.9756,6.0107,6.0043,6.0008,5.9683,5.9046,5.8562,5.7993,5.7439,5.6279,5.5786,5.5752,5.509,5.4759,5.4659,5.4659,5.4626,5.446,5.3831,5.35,5.3367,5.2738,5.2473,5.2407,5.2473,5.2473,5.2407,5.2473,5.244,5.2373,5.2373,5.2373,5.2373,5.2373,5.2302,5.2053,5.1177,5.037,4.9564,4.8779,4.8486,4.8267,4.7698,4.8446,4.9105,4.8536,4.8865,4.9105,4.8536,4.7967,4.7578,4.7578,4.7578,4.7344,4.708,4.6816,4.652,4.6225,4.5956,4.5634,4.4966,4.4414,4.3834,4.3195,4.2644,4.2063,4.1395,4.1337,4.0786,3.9509,3.945,3.9131,3.8463,3.8463,3.8725,3.9334,3.9334,3.9596,4.0089,3.9808,3.9434,6.4855,6.6607,6.7193,6.4939,6.2911,6.0429,5.6708,5.1653,0.0,0.0,4.1794,3.9585,4.1469,4.1495,4.2638,4.7124,0.0,0.0,0.0,0.0,5.7052,0.0,0.0,0.0,0.0,0.0,0.0,0.0,5.9896,5.9896,5.9896,6.0036,5.9879,5.9485,5.9418,5.8909,5.792,5.7808,5.7439,5.6834,5.6624,5.6514,5.6481,5.6382,5.5984,5.5421,5.5421,0.0,5.4494,5.4394,5.3964,5.34,5.3268,5.287,5.244,5.3036,5.287,5.2473,5.3036,5.287,5.2373,5.2373,5.2373,5.2373,5.2373,5.1908,5.1102,5.0306,4.9846,4.9374,4.8611,4.8773,4.9075,4.8955,4.9105,4.9224,4.9134,4.9194,4.9224,4.9134,4.9015,4.8925,4.8925,4.8745,4.8387,4.7554,4.7225,4.6839,4.6043,4.5895,4.5634,4.4966,4.4792,4.4472,4.3863,4.3718,4.3369,4.2702,4.2673,4.2092,4.0815,4.0757,4.0466,3.977,3.977,3.9828,3.9944,3.9944,4.0002,4.0118,4.059,4.0579,6.5139,6.6609,6.6895,6.4903,6.1969,5.8435,5.4199,0.0,0.0,0.0,3.9942,3.879,4.0745,4.1173,0.0,4.5749,4.7027,0.0,0.0,0.0,0.0,0.0,0.0,0.0,0.0,6.0107,6.0107,6.0107,6.0107,6.0107,6.0107,5.9814,5.9551,5.9351,5.8978,5.8422,5.7588,5.7588,5.7289,5.668,5.668,5.668,5.668,5.668,5.6514,5.6183,5.6183,5.5984,5.562,5.5256,5.4891,5.4527,5.4129,5.3798,5.3533,5.3864,5.3765,5.3533,5.3864,5.3765,5.35,5.35,5.3003,5.244,5.2804,5.2613,5.2128,5.1184,5.0806,5.0421,4.9131,4.9284,4.9673,4.9344,4.9523,4.9853,5.0212,5.0002,4.9763,4.9763,4.9494,4.9254,4.9254,4.9103,4.8711,4.8113,4.7871,4.7362,4.6446,4.6388,4.6127,4.5488,4.5082,4.4763,4.4472,4.4182,4.3863,4.3544,4.3195,4.2586,4.1657,4.1279,4.0786,4.0118,4.0089,4.0263,4.0612,4.0612,4.0786,4.1134,4.1453,4.1353,6.4646,6.6152,6.6569,6.4432,6.0846,5.6717,5.2299,4.7301,0.0,4.0383,3.8971,3.8717,4.0456,4.096,4.192,0.0,4.5498,4.7448,0.0,0.0,0.0,0.0,0.0,0.0,0.0,6.0107,0.0,6.0107,6.0107,6.0107,6.0107,5.9617,5.9284,5.9114,5.8562,5.7993,5.7439,5.7439,5.7139,5.668,5.668,5.668,5.668,5.668,5.668,5.668,5.668,5.668,5.6647,5.6084,5.5752,5.5554,5.499,5.4659,5.4527,5.4692,5.4659,5.4527,5.4692,5.4659,5.4527,5.4527,5.3765,5.2937,5.35,5.3412,5.2878,5.214,5.1769,5.1219,4.9883,4.9972,5.0301,4.9823,5.0092,5.0601,5.1109,5.081,5.0451,5.0451,5.0032,4.9673,4.9673,4.9429,4.9094,4.8761,4.8424,4.7882,4.694,4.694,4.6737,4.5982,4.543,4.5082,4.5082,4.4676,4.4327,4.4182,4.3689,4.3137,4.2528,4.2005,4.1395,4.0728,4.0728,4.0902,4.1308,4.1308,4.1599,4.2092,4.2092,4.1984,6.3947,6.6116,6.7003,6.32,5.9216,5.5341,5.2045,0.0,4.1868,4.1578,3.9731,3.8898,4.118,4.0888,4.1312,4.436,4.4662,4.6083,5.0664,0.0,0.0,0.0,0.0,0.0,0.0,6.0107,0.0,6.0107,6.0107,6.0107,6.0107,5.9617,5.9046,5.8492,5.792,5.7364,5.6757,5.6757,5.6757,5.668,5.668,5.668,5.668,5.668,5.668,5.668,5.668,5.668,0.0,5.6614,5.6216,5.562,5.5554,5.5123,5.4593,5.5289,5.509,5.4626,5.5289,5.509,5.4527,5.4527,5.4427,5.4328,5.4394,5.3266,5.2073,5.1973,5.1178,5.0305,5.0152,5.0631,5.1109,5.105,5.1079,5.1139,5.1199,5.1169,5.1139,5.1139,5.1079,5.105,5.105,5.0674,5.0117,4.9498,4.9004,4.8188,4.6998,4.7346,4.723,4.6011,4.5837,4.5808,4.5808,4.575,4.5459,4.485,4.4734,4.4443,4.3834,4.3747,4.3398,4.2731,4.2731,4.2498,4.2005,4.2005,4.2034,4.2092,4.2092,4.2382,6.104,6.321,6.3997,6.2404,5.7913,5.3168,5.0488,0.0,4.0999,4.0999,3.9876,3.9478,4.1361,4.136,4.1571,4.3095,4.3173,4.413,4.7139,0.0,0.0,0.0,0.0,0.0,0.0,0.0,6.0107,6.0107,5.9814,5.9617,5.9617,5.9046,5.8492,5.792,5.7364,5.6911,5.668,5.668,5.668,5.668,5.668,5.668,5.668,5.668,5.668,5.668,5.668,5.668,0.0,5.668,5.6514,5.6249,5.6249,5.6084,5.5852,5.615,5.6084,5.5885,5.615,5.6084,5.5819,5.5819,5.5819,5.5752,5.5322,5.4281,5.3277,5.3196,5.243,5.1516,5.0903,5.102,5.1229,5.1229,5.1229,5.1229,5.1229,5.1229,5.1229,5.1229,5.1229,5.1105,5.1011,5.0662,5.0316,4.9927,4.9484,4.8972,4.8072,4.8188,4.8014,4.7114,4.6679,4.6301,4.5924,4.5895,4.5779,4.5518,4.5111,4.4763,4.4531,4.4182,4.3863,4.3602,4.3195,4.3079,4.3224,4.2847,4.2847,4.3224,4.3224,4.3369,5.7638,5.9967,6.11,6.0158,5.5993,5.1393,0.0,0.0,4.0456,4.0238,3.9586,3.9514,4.1071,4.1361,4.1504,4.1948,4.2226,4.3024,4.4906,4.6513,0.0,0.0,0.0,0.0,0.0,5.9685,6.0107,6.0107,5.9617,5.9182,5.9046,5.8492,5.7993,5.7588,5.6787,5.6481,5.668,5.6481,5.6481,5.668,5.668,5.668,5.668,5.668,5.668,5.668,5.668,5.668,0.0,5.668,5.668,5.668,5.668,5.668,5.668,5.668,5.668,5.668,5.668,5.668,5.668,5.668,5.668,5.6581,5.6084,5.511,5.4209,5.402,5.3108,5.2002,5.1386,5.1229,5.1229,5.1229,5.1229,5.1229,5.1229,5.1229,5.1229,5.1229,5.1229,5.1105,5.0822,5.0662,5.0405,5.0183,4.9892,4.9436,4.8798,4.8885,4.8682,4.7869,4.755,4.7143,4.6505,4.6272,4.6156,4.6156,4.5547,4.5198,4.5198,4.4763,4.4472,4.4269,4.3805,4.3689,4.3979,4.3515,4.3515,4.3979,4.3979,4.4095,5.4049,5.6903,5.8891,5.5776,5.3132,5.0271,4.625,4.2846,4.0311,3.955,3.8753,3.8681,4.0238,4.0528,4.0709,4.1317,4.2106,4.3274,4.5103,4.6719,0.0,0.0,0.0,0.0,0.0,5.8737,6.0107,6.0107,5.9617,0.0,5.8422,5.792,5.7588,5.7588,5.6287,5.5984,5.668,5.5984,5.5984,5.668,5.668,5.668,5.668,5.668,5.668,5.668,5.668,5.668,0.0,5.668,5.668,5.668,5.668,5.668,5.668,5.668,5.668,5.668,5.668,5.668,5.668,5.668,5.668,5.668,5.668,5.5393,5.3976,5.3976,5.2695,5.1229,5.1229,5.1229,5.1229,5.1229,5.1229,5.1229,5.1229,5.1229,5.1229,5.1229,5.1229,5.1105,5.0822,5.0662,5.0405,5.0183,4.9892,4.9436,4.8798,4.9262,4.9175,4.7927,4.8333,4.8449,4.7811,4.7172,4.6824,4.6824,4.6214,4.5866,4.5866,4.5866,4.5547,4.4879,4.4879,4.4589,4.3979,4.3979,4.3979,4.3979,4.3979,4.4298,4.9566,5.1092,5.1588,5.1115,4.826,4.5055,4.3281,4.0818,3.9007,3.9333,3.9188,3.9478,4.1071,4.1325,4.1722,4.2865,4.3135,4.3536,0.0,0.0,0.0,0.0,0.0,0.0,0.0,0.0,5.9943,5.9617,5.8978,5.8422,5.7848,5.7289,5.6987,5.6987,5.6525,5.6448,5.668,5.6448,5.6448,5.668,5.668,5.668,5.668,5.668,5.668,5.668,5.668,5.668,5.668,5.668,5.668,5.668,5.668,5.668,5.668,5.668,5.668,5.668,5.668,5.668,5.668,5.668,5.668,5.668,5.668,5.5829,5.4621,5.3371,5.2185,5.1229,5.1229,5.1229,5.1229,5.1229,5.1229,5.1229,5.1229,5.1229,5.1229,5.1229,5.1229,5.1041,5.0662,5.0596,5.0405,4.9892,4.9766,4.9611,4.9407,4.9553,4.9524,4.9117,4.9262,4.8943,4.7869,4.7201,4.6824,4.6824,4.6243,4.5895,4.5895,4.5895,4.5779,4.5576,4.5111,4.5024,4.5285,4.4821,4.485,4.5285,4.5285,4.5372,4.5148,4.6287,4.6389,4.7232,4.4924,0.0,4.1071,3.9695,3.8608,3.85,3.8717,3.9333,4.06,4.1071,4.1613,4.2721,4.3028,4.3393,0.0,0.0,0.0,0.0,0.0,0.0,0.0,5.958,5.9879,5.9351,5.8771,5.8137,5.7662,5.7063,5.668,5.668,5.6415,5.6415,5.668,5.6415,5.6415,5.668,5.668,5.668,5.668,5.668,5.668,5.668,5.668,5.668,0.0,5.668,5.668,5.668,5.668,5.668,5.668,5.668,5.668,5.668,5.668,5.668,5.668,5.668,5.668,5.668,5.668,5.5829,5.4453,5.302,5.1911,5.1229,5.1229,5.1229,5.1229,5.1229,5.1229,5.1229,5.1229,5.1229,5.1229,5.1229,5.1314,5.1304,5.0951,5.0758,5.0564,5.0144,4.9843,4.9669,4.9669,4.9669,4.9669,4.9669,4.9669,4.9349,4.8566,4.7898,4.755,4.755,4.6737,4.6243,4.6243,4.6011,4.5895,4.5895,4.5488,4.5459,4.5895,4.5459,4.5488,4.5895,4.5895,4.5895,0.0,4.2323,4.2957,4.3724,4.2559,4.0854,3.9441,3.9152,0.0,3.7301,3.7631,3.8464,3.9297,4.0057,4.0745,4.1461,4.225,4.313,0.0,0.0,0.0,0.0,0.0,0.0,0.0,5.8773,5.9879,5.9284,5.8702,5.8137,5.7588,5.6987,5.668,5.668,5.6051,5.6017,5.668,5.6017,5.6017,5.668,5.668,5.668,5.668,5.668,5.668,0.0,5.668,5.668,5.668,5.668,5.668,5.668,5.668,5.668,5.668,5.668,5.668,5.668,5.668,5.668,5.668,5.668,5.668,5.668,5.668,5.5426,5.3805,5.2931,5.2002,5.1229,5.1229,5.1229,5.1229,5.1289,5.1259,5.1259,5.1349,5.1289,5.1259,5.1349,5.1637,5.1736,5.1473,5.115,5.0953,5.0784,5.0104,4.9669,4.9669,4.9669,4.9669,4.9669,4.9669,4.9669,4.9669,4.9088,4.8711,4.8711,4.7579,4.6882,4.6824,4.6301,4.5982,4.5895,4.5895,4.5895,4.5895,4.5895,4.5895,4.5895,4.5895,4.5895,3.7107,0.0,3.821,3.8317,3.7381,3.6547,0.0,3.6653,3.6725,3.6942,3.7631,3.8608,3.9985,4.0383,4.1144,4.3132,4.3827,4.4471,0.0,0.0,0.0,0.0,0.0,0.0,0.0,5.9089,5.9683,5.8702,5.8492,5.7993,5.6987,5.6757,5.668,5.668,5.6514,5.6514,5.668,5.6514,5.6514,5.668,5.668,5.668,5.668,5.668,5.668,5.668,5.668,5.668,5.668,5.668,5.668,5.668,5.668,5.668,5.668,5.668,5.668,5.668,5.668,5.668,5.668,5.668,5.668,5.668,5.668,5.5426,5.3976,5.3719,5.2516,5.1229,5.1229,5.1229,5.1349,5.1858,5.1588,5.1498,5.2516,5.1917,5.1498,5.2516,5.2263,5.1884,5.2093,5.1571,5.0953,5.0784,5.0104,4.9669,4.9669,4.9669,4.9669,4.9669,4.9669,4.9669,4.9669,4.9088,4.8711,4.8711,4.7985,4.7346,4.6853,4.7172,4.6882,4.5895,4.5895,4.5895,4.5895,4.5895,4.5895,4.5895,4.5895,4.5895,3.5437,3.6107,3.6907,3.7396,3.6765,3.6273,3.7261,3.687,3.658,3.7377,3.7884,3.8645,4.0238,4.042,4.1141,4.3559,4.3913,0.0,0.0,0.0,0.0,0.0,0.0,0.0,0.0,5.9615,5.9617,5.8492,5.8632,5.8209,5.6757,5.6987,5.682,5.6216,5.6514,5.668,5.668,5.668,5.668,5.668,5.668,5.668,5.668,5.668,5.668,5.668,5.668,5.668,5.668,5.668,5.668,5.668,5.668,5.668,5.668,5.668,5.668,5.668,5.668,5.668,5.668,5.668,5.668,5.668,5.668,5.5749,5.4569,5.4569,5.3284,5.1819,5.1819,5.1783,5.1768,5.2127,5.2157,5.2306,5.3025,5.2606,5.2336,5.3054,5.2851,5.2645,5.28,5.2264,5.1728,5.1556,5.0975,5.0452,5.0162,5.0133,5.0017,4.9698,4.9669,4.9669,4.9669,4.9349,4.9175,4.9175,4.8566,4.8072,4.7724,4.7753,4.7462,4.6766,4.6766,4.6621,4.633,4.633,4.6156,4.5866,4.5576,4.575,3.5097,3.6066,3.733,3.8062,3.7824,3.7717,3.8785,3.8065,3.7377,3.821,3.8464,3.8971,4.0384,4.0599,0.0,0.0,0.0,0.0,0.0,0.0,0.0,0.0,0.0,0.0,5.965,5.9902,5.9617,5.8632,5.8841,5.8422,5.6911,5.7114,5.678,5.5653,5.6216,5.6514,5.6514,5.6614,5.668,5.668,5.668,5.668,5.668,5.668,5.668,5.668,5.668,0.0,5.668,5.668,5.668,5.668,5.668,5.668,5.668,5.668,5.668,5.668,5.668,5.668,5.668,5.668,5.668,5.668,5.668,5.6146,5.5588,5.5604,5.4274,5.279,5.2883,5.2639,5.2366,5.2486,5.2845,5.3234,5.3443,5.3324,5.3234,5.3443,5.3466,5.3419,5.3508,5.3041,5.2572,5.2572,5.202,5.1439,5.0888,5.083,5.0598,5.0046,4.9872,4.9814,4.9814,4.9727,4.9669,4.9669,4.9175,4.8856,4.8856,4.8159,4.7811,4.7927,4.784,4.7521,4.6969,4.6969,4.6708,4.6156,4.5605,4.5924,3.5856,3.7014,3.7703,3.6155,3.6722,3.7603,3.7398,3.7703,3.8246,3.9043,3.9695,4.0384,4.1139,4.1935,4.2693,0.0,0.0,0.0,0.0,0.0,0.0,0.0,0.0,5.9334,5.8246,5.8916,5.9351,5.9217,5.8351,5.7735,5.7514,5.6496,5.5795,5.562,5.5719,5.5786,5.5786,5.6382,5.668,5.668,5.668,5.668,5.668,5.668,5.668,5.668,0.0,5.668,5.668,5.668,5.668,5.668,5.668,5.668,5.668,5.668,5.668,5.668,5.668,5.668,5.668,5.668,5.668,5.668,5.668,5.6603,5.6624,5.7252,5.5549,5.3591,5.4176,5.3672,5.3174,5.3773,5.3533,5.3503,5.464,5.3982,5.3533,5.467,5.409,5.3537,5.4068,5.3304,5.2572,5.2572,5.202,5.1585,5.1468,5.1468,5.1439,5.1323,5.083,5.0511,5.0511,4.9988,4.9669,4.9669,4.9582,4.9524,4.9524,4.8391,4.8043,4.8566,4.8043,4.7724,4.7637,4.7637,4.7579,4.7491,4.7375,4.7433,3.5344,3.6885,3.7914,3.6239,3.7337,3.8695,3.8383,3.8572,3.9079,3.984,4.0274,4.0673,0.0,0.0,4.3698,0.0,0.0,0.0,0.0,0.0,0.0,0.0,0.0,5.8913,5.9018,5.9459,5.9443,5.8695,5.8187,5.746,5.641,5.5856,5.5195,5.4427,5.4825,5.5024,5.5024,5.5752,5.6316,5.668,5.668,5.668,5.668,5.668,5.668,5.668,0.0,5.668,5.668,5.668,5.668,5.668,5.668,5.668,5.668,5.668,5.668,5.668,5.668,5.668,5.668,5.668,5.668,5.668,5.668,5.668,5.6912,5.8071,5.6421,5.4559,5.5246,5.4538,5.3832,5.4132,5.4251,5.4431,5.5059,5.47,5.4461,5.5059,5.4506,5.3979,5.4245,5.3685,5.3094,5.3094,5.2833,5.2514,5.2165,5.2136,5.1991,5.1643,5.1062,5.0685,5.0685,5.0075,4.9669,4.9669,4.9669,4.9669,4.9669,4.9117,4.8943,4.9233,4.8943,4.8624,4.8304,4.8304,4.813,4.7782,4.7433,4.7637,3.5306,3.6696,3.7727,3.6647,3.8058,3.9634,3.9438,3.984,4.0383,4.0963,4.1469,0.0,0.0,4.3298,0.0,0.0,0.0,0.0,0.0,0.0,0.0,0.0,5.8035,5.8351,5.9721,5.9523,5.8945,5.8094,5.7731,5.6919,5.5579,5.5093,5.4472,5.3434,5.4129,5.4427,5.4262,5.5322,5.615,5.668,5.668,5.668,5.668,5.668,5.668,5.668,5.668,5.668,5.668,5.668,5.668,5.668,5.668,5.668,5.668,5.668,5.668,5.668,5.668,5.668,5.668,5.668,5.668,5.6713,5.6912,5.6945,5.7243,5.8734,5.7521,5.5915,5.6404,5.5468,5.4431,5.4431,5.482,5.5179,5.5179,5.5179,5.5179,5.5179,5.4743,5.4304,5.4304,5.3815,5.35,5.35,5.35,5.3326,5.2862,5.2804,5.2601,5.2107,5.1497,5.1062,5.0917,5.0278,4.9901,4.9901,4.9756,4.9669,4.9669,4.9669,4.9669,4.9669,4.9669,4.9436,4.8943,4.8943,4.8711,4.8217,4.7724,4.8014,3.7052,3.7149,3.6977,3.6515,3.8051,3.9634,3.9438,4.1071,4.2665,4.2701,4.4317,0.0,0.0,4.5641,0.0,0.0,0.0,0.0,0.0,0.0,5.642,5.9545,5.8667,5.8141,5.9018,5.791,5.7295,5.7833,5.6405,5.5683,5.6099,5.4481,5.3467,5.34,5.4129,5.4195,5.35,5.5554,5.6647,5.668,5.668,5.668,5.668,5.668,5.668,5.668,5.668,5.668,5.668,5.668,5.668,5.668,5.668,5.668,5.668,5.668,5.668,5.668,5.668,5.668,5.668,5.668,5.668,5.6812,5.7508,5.7707,5.8038,5.9496,5.9133,5.8172,5.8042,5.6546,5.5119,5.5119,5.5149,5.5179,5.5179,5.5179,5.5179,5.5179,5.4743,5.4304,5.4304,5.3815,5.35,5.35,5.35,5.35,5.3442,5.3442,5.3442,5.3384,5.2804,5.2194,5.1614,5.0975,5.0598,5.0598,5.0017,4.9669,4.9669,4.9669,4.9669,4.9669,4.9669,4.964,4.9611,4.9611,4.9582,4.9524,4.9494,4.9524,3.6483,3.7099,3.7368,3.6582,3.8303,4.0197,4.0129,4.2303,4.4367,4.4367,4.5807,0.0,0.0,0.0,0.0,0.0,0.0,0.0,0.0,5.4524,5.484,5.6982,5.7122,5.7158,5.7474,5.7464,5.7394,5.7087,5.5881,5.5077,5.48,5.3509,5.2771,5.2771,5.3036,5.3268,5.34,5.4692,5.5322,5.5355,5.6249,5.668,5.668,5.668,5.668,5.668,5.668,5.668,5.668,5.668,5.668,5.668,5.668,5.668,5.668,5.668,5.668,5.668,5.668,5.668,5.668,5.668,5.668,5.6812,5.7574,5.7806,5.8104,5.9595,5.9264,5.842,5.8201,5.7086,5.5918,5.5381,5.5179,5.5179,5.5179,5.5179,5.5179,5.5179,5.4743,5.4304,5.4304,5.3815,5.35,5.35,5.35,5.35,5.35,5.35,5.35,5.35,5.2949,5.231,5.1672,5.1033,5.083,5.1236,5.0278,4.9669,4.9669,4.9669,4.9669,4.9669,4.9669,4.9669,4.9669,4.9669,4.9669,4.9669,4.9669,4.9669,3.6063,3.6798,3.7363,3.6813,3.8862,4.1179,4.1832,4.3932,4.5816,4.6323,4.7518,4.8627,4.9026,0.0,0.0,0.0,0.0,0.0,5.4173,5.4068,5.4314,5.5367,5.5964,5.6245,5.6245,5.6771,5.6842,5.628,5.5283,5.4493,5.3946,5.2972,5.2373,5.2373,5.2605,5.2837,5.3069,5.403,5.4394,5.4195,5.5421,5.6117,5.6349,5.6581,5.668,5.668,5.668,5.668,5.668,5.668,5.668,5.668,5.668,5.668,5.668,5.668,5.668,5.668,5.668,5.668,5.668,5.668,5.668,5.6879,5.7839,5.8138,5.8436,5.9926,5.9876,5.9177,5.8716,5.7839,5.6927,5.628,5.5819,5.5651,5.5651,5.5381,5.5179,5.5179,5.4743,5.4304,5.4304,5.3815,5.35,5.35,5.35,5.35,5.35,5.35,5.35,5.35,5.3123,5.2688,5.2252,5.1643,5.1468,5.1904,5.0888,5.0191,4.9988,4.9785,4.9669,4.9669,4.9669,4.9669,4.9669,4.9669,4.9669,4.9669,4.9901,4.9988,3.6142,3.6245,3.6737,3.7228,3.9739,4.2667,4.4844,4.5924,4.6975,4.8605,4.9546,5.0209,5.0498,5.0495,0.0,0.0,0.0,5.4314,5.4314,5.4981,5.5507,5.5507,5.5507,5.5507,5.5507,5.5507,5.5507,5.5507,5.4523,5.3912,5.3912,5.2972,5.2373,5.2373,5.3036,5.3069,5.2373,5.3798,5.4129,5.34,5.4162,5.4924,5.5653,5.6349,5.668,5.668,5.668,5.668,5.668,5.668,5.668,5.668,5.668,5.668,5.668,5.668,5.668,5.668,5.668,5.668,5.668,5.668,5.668,5.6978,5.8436,5.8899,5.9198,6.0688,6.1119,6.0835,5.9881,5.8844,5.8085,5.8085,5.7371,5.6638,5.6638,5.5918,5.5179,5.5209,5.4743,5.4304,5.4304,5.3815,5.353,5.353,5.353,5.353,5.35,5.353,5.353,5.35,5.35,5.35,5.35,5.2949,5.2572,5.2572,5.1962,5.1323,5.0714,5.0046,4.9698,4.9698,4.9698,4.9698,4.9698,4.9669,4.9669,4.9698,5.0365,5.0685,3.7048,3.7211,0.0,3.8914,0.0,4.3975,4.5707,4.6757,4.8134,5.0886,5.1333,5.149,5.2243,0.0,0.0,5.2696,5.3218,5.3717,5.4244,5.4068,5.3857,5.3857,5.4349,5.4665,5.4665,5.5191,5.5507,5.5507,5.4523,5.3912,5.3912,5.2972,5.2373,5.2373,5.2572,5.2572,5.2373,5.3268,5.34,5.2705,5.393,5.4924,5.562,5.5852,5.6216,5.668,5.668,5.668,5.668,5.668,5.668,5.668,5.668,5.668,5.668,5.668,5.668,5.668,5.668,5.668,5.668,5.668,5.668,5.6978,5.8436,5.8899,5.9198,6.0688,6.1119,6.1002,6.0717,6.043,5.9881,5.8483,5.79,5.7465,5.6735,5.6347,5.6138,5.5981,5.507,5.4598,5.5542,5.4914,5.4226,5.4226,5.4226,5.4052,5.3559,5.3936,5.4023,5.3559,5.35,5.35,5.35,5.2949,5.2746,5.321,5.2223,5.1527,5.1352,5.1149,5.1033,5.1033,5.0598,5.0365,5.0365,4.9901,4.993,5.0394,5.0598,5.0917,3.6618,3.7203,0.0,3.9836,4.2414,4.5164,4.7409,0.0,0.0,0.0,5.2834,5.2538,5.3376,5.3052,0.0,5.3274,5.3795,5.4068,5.3892,5.3717,5.3296,5.2383,5.3471,5.4173,5.3892,5.4875,5.5367,5.5051,5.435,5.3775,5.3502,5.2805,5.2373,5.2373,5.2373,5.2373,5.2373,5.2804,5.2804,5.2407,5.3268,5.4063,5.4759,5.5355,5.5852,5.6282,5.6547,5.668,5.668,5.668,5.668,5.668,5.668,5.668,5.668,5.668,5.668,5.668,5.668,5.668,5.668,5.668,5.668,5.6978,5.8436,5.8899,5.9198,6.0688,6.1119,6.1119,6.1119,6.1119,6.0835,5.9587,5.8934,5.8573,5.7932,5.7684,5.7645,5.7395,5.6738,5.6414,5.684,5.6347,5.5689,5.4973,5.4865,5.4827,5.4814,5.4818,5.472,5.4313,5.4255,5.4255,5.4255,5.3704,5.35,5.3878,5.2949,5.2368,5.2368,5.1875,5.1614,5.1614,5.1004,5.0685,5.0685,5.0278,5.0278,5.0685,5.1178,5.1643,3.5547,3.6705,3.8676,4.0419,4.3317,0.0,4.9619,5.143,5.2951,5.4424,0.0,5.3462,5.408,5.3797,5.3399,5.3247,5.4384,5.4805,5.3366,5.3787,5.3436,5.1365,5.2944,5.3928,5.326,5.4454,5.4981,5.4244,5.4033,5.3567,5.2917,5.2639,5.2445,5.2445,5.2445,5.2373,5.2373,5.2373,5.2373,5.2373,5.2373,5.2705,5.3367,5.4792,5.5487,5.5653,5.6316,5.6614,5.668,5.668,5.668,5.668,5.668,5.668,5.668,5.668,5.668,5.668,5.668,5.668,5.668,5.668,5.668,5.6978,5.8436,5.8899,5.9198,6.0688,6.1119,6.1119,6.1119,6.1119,6.1119,6.1119,6.043,5.9707,5.9587,5.9447,5.919,5.9222,5.9124,5.8807,5.8217,5.8115,5.757,5.5908,5.5692,5.5987,5.6644,5.6065,5.5583,5.5416,5.5416,5.5416,5.5416,5.4865,5.4517,5.4517,5.3878,5.35,5.35,5.2397,5.1788,5.1788,5.1178,5.083,5.083,5.0801,5.0801,5.0888,5.202,5.2601,3.7291,3.8007,0.0,4.2776,4.6375,4.9582,5.1538,5.2263,5.2723,5.3423,5.3713,5.3992,5.4543,5.3914,5.3212,5.3247,5.3471,5.3576,5.3225,5.3331,5.3225,5.2734,5.312,5.3366,5.319,5.3471,5.3612,5.3436,5.354,5.3521,5.3349,5.3109,5.2939,5.2939,5.2553,5.2373,5.2373,5.2373,5.2373,5.2373,5.2373,5.2473,5.2638,5.35,5.4527,5.562,5.5786,5.6183,5.668,5.668,5.668,5.668,5.668,5.668,5.668,5.668,5.668,5.668,5.668,5.668,5.668,5.668,5.668,5.6978,5.8436,5.8899,5.9198,6.0688,6.1119,6.1119,6.1119,6.1119,6.1119,6.1119,6.0919,6.0548,5.9794,5.954,5.9511,5.941,5.8833,5.8591,5.9582,5.9222,5.8546,5.8233,5.8129,5.7843,5.6809,5.7013,5.6702,5.5583,5.5416,5.5416,5.5416,5.4865,5.4517,5.4517,5.3878,5.35,5.35,5.3239,5.3094,5.3094,5.2484,5.2165,5.2165,5.1672,5.1672,5.2165,5.2455,5.2833,3.7119,3.8449,0.0,4.449,0.0,5.0416,5.1647,5.2098,5.2462,5.3073,5.3325,5.3459,5.3654,5.3415,5.305,5.2699,5.2944,5.305,5.2664,5.2628,5.2488,5.2137,5.2418,5.2628,5.2628,5.2944,5.3015,5.2664,5.2834,5.2719,5.2096,5.2058,5.2101,5.2196,5.1984,5.2009,5.2373,5.2373,5.2373,5.2373,5.2373,5.2373,5.2407,5.3102,5.403,5.509,5.509,5.5521,5.6183,5.6183,5.6382,5.668,5.668,5.668,5.668,5.668,5.668,5.668,5.668,5.668,5.6746,5.7111,5.721,5.7475,5.8966,5.9429,5.9661,6.0788,6.1119,6.1119,6.1119,6.1119,6.1119,6.1119,6.1119,6.0919,6.043,6.0607,6.0903,6.1257,6.0769,6.0548,6.1371,6.029,5.957,6.0051,5.9685,5.9122,5.8369,5.8214,5.7655,5.6456,5.6316,5.6316,5.6316,5.5765,5.5416,5.5416,5.4807,5.4429,5.4429,5.4139,5.3849,5.353,5.2891,5.2572,5.2572,5.2223,5.2252,5.2572,5.2891,5.321,3.6626,3.8866,4.2156,4.5642,4.8098,0.0,5.0886,5.1437,5.1934,5.2677,5.263,5.2517,5.2484,5.2674,5.2593,5.1926,5.2348,5.2558,5.1926,5.1821,5.1575,5.0978,5.1435,5.1821,5.1821,5.2418,5.2523,5.1856,5.2148,5.182,5.072,5.0905,5.1094,5.1256,5.1151,5.1446,5.2175,5.2075,5.2142,5.2373,5.2373,5.2373,5.2407,5.297,5.3632,5.4328,5.4328,5.4759,5.5421,5.5421,5.5852,5.6514,5.6514,5.6581,5.668,5.668,5.668,5.668,5.668,5.668,5.6779,5.7409,5.7674,5.8038,5.9396,5.9893,6.0158,6.0887,6.1119,6.1119,6.1119,6.1119,6.1119,6.1119,6.1119,6.1119,6.1119,6.1583,6.2212,6.2855,6.2819,6.2679,6.2682,6.1317,6.065,6.146,6.0905,6.0316,6.0106,5.9362,5.8495,5.764,5.7416,5.7303,5.7303,5.6752,5.6403,5.6403,5.5765,5.5416,5.5416,5.4836,5.4255,5.3704,5.3065,5.2746,5.2746,5.2746,5.2746,5.2746,5.3268,5.35,3.7601,0.0,4.3543,0.0,4.7265,4.8424,0.0,0.0,5.0543,0.0,5.1351,5.1705,5.2325,5.1758,5.1154,5.1049,5.1119,5.1154,5.1049,5.1049,5.1013,5.0908,5.0978,5.1049,5.1049,5.1119,5.1154,5.1049,5.166,5.1822,5.1222,5.1466,5.141,5.1026,5.0592,5.0684,5.1413,5.0817,5.1148,5.2373,5.2373,5.2373,5.2373,5.2473,5.2904,5.3566,5.3566,5.3997,5.4659,5.4659,5.509,5.5786,5.5786,5.615,5.668,5.668,5.668,5.668,5.668,5.668,5.6713,5.6812,5.7276,5.7939,5.88,5.9496,6.0158,6.0887,6.1119,6.1119,6.1119,6.1119,6.1119,6.1119,6.1119,6.1119,6.1119,6.1185,6.1282,6.1546,6.1983,6.2269,6.2386,6.2216,6.2085,6.2221,6.2153,6.1784,6.1175,6.0211,5.9362,5.8525,5.7751,5.7303,5.7303,5.6752,5.6403,5.6403,5.5765,5.5416,5.5416,5.4836,5.4458,5.4371,5.3733,5.3384,5.3384,5.3384,5.3384,5.3384,5.3471,5.35,3.7654,3.9926,4.2265,0.0,4.5454,4.7337,4.8496,0.0,4.9938,5.0207,5.0199,5.0495,5.1582,5.0594,4.9855,5.0733,5.0522,5.0382,5.0838,5.0873,5.0873,5.0873,5.0873,5.0873,5.0873,5.0873,5.0873,5.0873,5.1189,5.1144,5.0622,5.0463,5.0351,5.0284,4.9826,4.9955,5.0684,5.0386,5.075,5.1744,5.1744,5.1976,5.2373,5.2373,5.2539,5.2837,5.2837,5.3235,5.3897,5.3897,5.4593,5.562,5.562,5.6051,5.668,5.668,5.668,5.668,5.668,5.668,5.6746,5.7177,5.7806,5.8535,5.9297,6.0026,6.0688,6.102,6.1119,6.1119,6.1119,6.1119,6.1119,6.1119,6.1119,6.1119,6.1119,6.1119,6.1198,6.1588,6.2086,6.2299,6.188,6.2161,6.2288,6.1909,6.2193,6.2116,6.1277,6.042,5.9789,5.9362,5.8495,5.8195,5.8714,5.8039,5.7673,5.7673,5.6858,5.6461,5.6461,5.5533,5.5184,5.5562,5.4226,5.35,5.35,5.35,5.3704,5.4081,5.4081,5.4081,3.7555,0.0,4.0507,4.1216,4.3534,4.5816,0.0,0.0,4.8956,0.0,4.8934,4.9162,5.0566,4.9552,4.8959,5.0101,4.9785,4.9609,5.0206,5.0452,5.0522,5.0311,5.0452,5.0592,5.0592,5.0592,5.0662,5.0873,5.0873,5.0675,5.0102,4.9756,4.9555,4.951,4.9191,4.9294,4.9922,5.0121,5.0485,5.1015,5.1181,5.1678,5.2373,5.2373,5.2373,5.2373,5.2373,5.2672,5.3169,5.3334,5.4063,5.509,5.5487,5.5951,5.6448,5.6614,5.668,5.668,5.668,5.668,5.6779,5.7342,5.8138,5.8999,5.9562,6.0357,6.1119,6.1119,6.1119,6.1119,6.1119,6.1119,6.1119,6.1119,6.1119,6.1119,6.1119,6.1251,6.1495,6.1775,6.2242,6.2324,6.1787,6.194,6.2035,6.1719,6.2098,6.2216,6.1582,6.0732,6.0211,6.0211,5.9469,5.9147,5.9789,5.9147,5.8634,5.8634,5.7751,5.7303,5.7303,5.6258,5.591,5.6403,5.4807,5.3994,5.3994,5.3849,5.411,5.4749,5.4575,5.4517,0.0,3.8396,0.0,4.0271,4.1832,4.3281,0.0,0.0,0.0,0.0,4.7419,4.7604,4.9091,4.9146,4.8811,4.8626,4.8661,4.8661,4.8696,4.9293,4.9469,4.8731,4.9293,4.975,4.975,4.975,5.0066,5.0838,5.0873,5.0675,5.0102,5.0045,4.9674,4.8769,4.8707,4.8885,4.916,4.9856,5.022,5.0286,5.0949,5.1678,5.2373,5.2373,5.2373,5.2373,5.2373,5.2407,5.2473,5.3135,5.3467,5.3665,5.5057,5.5653,5.5752,5.6448,5.668,5.668,5.668,5.668,5.668,5.6713,5.7707,5.8899,5.8933,5.996,6.1119,6.1119,6.1119,6.1119,6.1119,6.1119,6.1119,6.1119,6.1119,6.1119,6.1119,6.1649,6.2088,6.1873,6.1854,6.1938,6.2326,6.1845,6.1656,6.2288,6.2414,6.2414,6.2315,6.1582,6.1175,6.1175,6.0316,5.9895,5.9895,5.9147,5.8634,5.8634,5.7751,5.7303,5.7303,5.6694,5.6374,5.6403,5.5678,5.53,5.53,5.4749,5.4778,5.5358,5.4778,5.4517,0.0,0.0,0.0,3.9159,4.0271,4.1723,4.3027,4.4186,4.5305,4.644,4.6564,4.6668,4.7417,4.7342,4.7462,4.8345,4.8135,4.7994,4.8486,4.8766,4.8837,4.8591,4.8802,4.9118,4.9644,4.9223,4.9469,5.0803,5.0417,5.0258,5.062,5.0307,4.993,4.958,4.9012,4.8584,4.8398,4.8663,4.926,5.022,5.0485,5.1214,5.2373,5.2373,5.2373,5.2373,5.2373,5.2373,5.244,5.3135,5.3699,5.4229,5.5222,5.5918,5.6349,5.6581,5.668,5.668,5.668,5.668,5.668,5.668,5.7707,5.8899,5.8899,5.9926,6.1119,6.1119,6.1119,6.1119,6.1119,6.1119,6.1218,6.1682,6.2146,6.251,6.251,6.2709,6.2901,6.2917,6.2295,6.2091,6.2747,6.2041,6.1624,6.2319,6.2446,6.2446,6.2446,6.1683,6.1379,6.1916,6.1277,6.0939,6.1481,6.0732,6.0,5.9469,5.8605,5.7863,5.7303,5.6723,5.6578,5.6984,5.6374,5.5852,5.5416,5.5184,5.5184,5.5416,5.562,5.5503,3.6581,0.0,0.0,0.0,3.9288,4.0419,4.147,0.0,4.393,4.4818,4.5342,4.5666,4.5889,4.5882,4.6274,4.7538,4.7327,4.7187,4.7678,4.7959,4.8064,4.7819,4.7994,4.8345,4.8872,4.8451,4.8696,4.9995,4.9855,0.0,5.0066,5.0285,5.0194,4.9873,4.9101,4.8483,4.8001,4.8266,4.8995,5.022,5.022,5.0982,5.2373,5.2108,5.2142,5.2373,5.2373,5.2373,5.244,5.34,5.393,5.4262,5.5487,5.6117,5.6349,5.6614,5.668,5.668,5.668,5.668,5.668,5.668,5.7508,5.8535,5.8535,5.9562,6.0755,6.0755,6.092,6.1119,6.1119,6.1285,6.1649,6.2378,6.3107,6.3637,6.3637,6.3637,6.3682,6.3612,6.2867,6.2349,6.3068,6.2235,6.1624,6.2319,6.2446,6.2446,6.2446,6.1916,6.1815,6.2315,6.1916,6.1815,6.2315,6.1683,6.0939,6.0316,5.9469,5.8605,5.7751,5.7342,5.7231,5.7303,5.6926,5.649,5.6055,5.5852,5.5852,5.6055,5.6287,5.6171,0.0,0.0,0.0,0.0,0.0,0.0,3.9369,0.0,4.2846,4.2882,4.3791,4.4571,4.4607,4.4845,4.5291,4.6014,4.6204,4.6189,4.6189,4.6871,4.7081,4.6259,4.6906,4.7362,4.7397,4.7362,4.7678,4.8451,4.9188,4.9293,4.8556,4.9995,5.0418,4.9462,4.9012,4.8547,4.8001,4.873,4.9491,5.022,5.022,5.0982,5.234,5.1612,5.1678,5.2373,5.2373,5.2373,5.2506,5.3897,5.4063,5.3632,5.5819,5.6216,5.5719,5.6415,5.668,5.668,5.668,5.668,5.668,5.668,5.7177,5.7806,5.7806,5.8833,5.9993,5.9993,6.0523,6.1119,6.1119,6.1682,6.2378,6.314,6.3868,6.4399,6.4399,6.4399,6.4311,6.3711,6.3258,6.3024,6.326,6.2235,6.1624,6.2319,6.2414,6.2446,6.2446,6.2446,6.2446,6.2446,6.2446,6.2446,6.2446,6.1683,6.1277,6.1175,6.042,5.9576,5.8634,5.8634,5.8195,5.7303,5.7303,5.7303,5.7303,5.6723,5.6723,5.7274,5.6665,5.6432,3.8183,0.0,0.0,0.0,0.0,0.0,0.0,0.0,0.0,4.2665,4.3324,4.3886,4.45,4.3961,4.3886,4.5185,4.5852,4.6189,4.6189,4.6414,4.6484,4.6239,4.6414,4.6765,4.7327,4.6871,4.7081,0.0,4.8205,4.817,4.8486,4.9469,4.9971,4.993,4.9756,4.9342,4.8513,4.922,4.9792,5.022,5.022,5.0982,5.234,5.1612,5.1678,5.2373,5.2373,5.2373,5.244,5.3334,5.3599,5.3566,5.5256,5.5786,5.5719,5.6415,5.668,5.668,5.668,5.668,5.668,5.668,5.7177,5.7806,5.7806,5.8833,5.9993,5.9993,6.0523,6.1218,6.1748,6.2411,6.314,6.3902,6.4597,6.5127,6.5127,6.5127,6.5038,6.4916,6.4039,6.3545,6.417,6.2968,6.2173,6.2875,6.2612,6.2446,6.2446,6.2446,6.2446,6.2446,6.2446,6.2446,6.2446,6.2216,6.1815,6.1277,6.0969,6.042,5.9576,5.8931,5.8525,5.8305,5.764,5.7303,5.7303,5.7129,5.6926,5.6665,5.649,5.6636,3.8726,3.8738,0.0,0.0,0.0,0.0,3.879,3.9478,4.0383,0.0,4.2253,4.2798,4.35,4.3235,4.317,4.3992,4.5045,4.5852,4.6154,4.6189,4.6189,4.6189,4.6189,4.6414,4.6871,4.6484,4.654,4.7503,4.7467,4.7854,4.8942,4.9118,4.9466,5.0067,4.993,4.9521,4.9012,4.9651,4.9992,5.0059,5.049,5.1115,5.191,5.1479,5.1678,5.2373,5.2373,5.2373,5.2407,5.2804,5.3169,5.3566,5.5057,5.562,5.5719,5.6415,5.668,5.668,5.668,5.668,5.668,5.668,5.6978,5.7376,5.7707,5.8601,5.9595,5.9926,6.0523,6.1285,6.198,6.2477,6.3073,6.4133,6.4664,6.5028,6.5359,6.5425,6.5425,6.5425,6.4704,6.4211,6.4636,6.3476,6.2684,6.31,6.271,6.2446,6.2446,6.2446,6.2446,6.2446,6.2446,6.2446,6.2446,6.2446,6.2216,6.1683,6.1683,6.1401,6.0818,5.9727,5.908,5.902,5.7868,5.7303,5.7303,5.7303,5.7129,5.6781,5.6781,5.6955,3.9378,3.9201,3.9001,0.0,0.0,0.0,3.8355,3.8934,3.9695,0.0,0.0,4.1561,4.2119,4.259,4.2864,4.2853,4.3933,4.501,4.5852,4.6098,4.6204,4.6098,4.6168,4.6189,4.6189,4.6189,4.6189,4.6189,4.6871,4.7924,4.9469,4.8907,4.9012,5.0124,4.9756,4.9521,4.9462,5.0051,5.0126,4.9782,5.0826,5.1251,5.128,5.128,5.1678,5.2373,5.2373,5.2373,5.2373,5.2373,5.2738,5.3434,5.4825,5.5421,5.5587,5.6316,5.6614,5.668,5.668,5.668,5.668,5.668,5.668,5.6812,5.7475,5.8237,5.9065,5.9893,6.0589,6.1285,6.198,6.2245,6.2643,6.4034,6.4399,6.4597,6.526,6.5425,6.5425,6.5425,6.5066,6.4793,6.4702,6.3926,6.326,6.326,6.2808,6.2414,6.2513,6.2414,6.2446,6.2446,6.2446,6.2446,6.2446,6.2446,6.2446,6.2446,6.2446,6.2399,6.225,6.0862,5.9955,5.9717,5.8156,5.7332,5.7419,5.7332,5.7332,5.7419,5.7419,5.7448,0.0,0.0,0.0,0.0,0.0,0.0,3.9297,3.9767,4.0166,0.0,4.06,4.142,4.1525,4.1546,4.1884,4.3124,4.2881,4.2943,4.4167,4.5431,4.5993,4.5396,4.5852,4.6189,4.6189,4.6189,4.6189,4.6189,4.6379,4.7116,4.8661,4.8661,4.9241,5.0694,5.0655,5.0397,4.9988,5.0686,5.0577,4.9846,5.0624,5.1094,5.128,5.128,5.1678,5.2373,5.2373,5.2373,5.2373,5.2373,5.2473,5.2672,5.35,5.4195,5.4825,5.5554,5.6183,5.668,5.668,5.668,5.668,5.668,5.668,5.6713,5.6846,5.7839,5.9164,6.0523,6.0986,6.1285,6.198,6.261,6.3272,6.4167,6.4796,6.5227,6.5392,6.5425,6.5425,6.5425,6.5336,6.5156,6.4793,6.4207,6.38,6.38,6.2971,6.2513,6.3002,6.271,6.2446,6.2446,6.2446,6.2446,6.2446,6.2446,6.2446,6.2446,6.2446,6.2378,6.2305,6.1441,6.0586,5.9894,5.8114,5.7565,5.8116,5.7565,5.7594,5.8116,5.8116,5.8406,0.0,0.0,0.0,4.0599,0.0,0.0,0.0,4.0238,4.0528,4.0564,4.1107,4.1645,4.1926,0.0,4.2051,4.2715,4.2647,4.266,4.305,4.4237,4.494,4.4553,4.4834,4.522,4.5607,4.5677,4.5817,4.6204,4.6189,4.673,4.7889,4.8345,4.9082,5.0241,5.041,5.0509,5.0509,5.0725,5.042,4.965,5.0854,5.1162,5.0783,5.1479,5.2042,5.2373,5.2373,5.2373,5.2373,5.2373,5.2373,5.244,5.3135,5.3864,5.4626,5.5355,5.6084,5.668,5.668,5.668,5.668,5.668,5.668,5.6812,5.7574,5.8833,6.0158,6.0887,6.1119,6.1185,6.155,6.2179,6.2908,6.367,6.41,6.4531,6.526,6.516,6.4995,6.5359,6.5425,6.5336,6.5066,6.4669,6.43,6.43,6.3452,6.2905,6.3164,6.271,6.2446,6.2446,6.2446,6.2446,6.2446,6.2446,6.2446,6.2446,6.2762,6.2951,6.2951,6.2112,6.1046,5.9765,5.8889,5.8571,5.8813,5.8464,5.8464,5.8813,5.8813,5.8987,0.0,0.0,0.0,0.0,0.0,4.0926,0.0,0.0,0.0,4.1397,4.1578,0.0,0.0,0.0,0.0,0.0,0.0,0.0,0.0,4.2881,0.0,4.399,4.3933,4.4202,4.5058,4.5128,4.5409,4.5958,4.6182,4.6604,4.7362,4.8099,4.8872,4.9644,5.009,5.0418,5.0908,5.0703,5.0198,4.9555,5.104,5.1262,5.039,5.1649,5.2241,5.2373,5.2373,5.2373,5.2373,5.2373,5.2373,5.244,5.3003,5.3665,5.4394,5.5156,5.5852,5.6514,5.6647,5.668,5.668,5.668,5.668,5.6978,5.8436,5.9728,6.0755,6.102,6.1119,6.1119,6.1119,6.1748,6.2543,6.314,6.3504,6.4001,6.516,6.4962,6.473,6.5293,6.5425,6.5336,6.5246,6.4976,6.4702,6.4702,6.3926,6.3357,6.3357,6.2905,6.2513,6.2414,6.2446,6.2446,6.2446,6.2446,6.2477,6.2635,6.3046,6.3331,6.3489,6.2487,6.1308,5.9806,5.9696,5.9551,5.948,5.948,5.948,5.948,5.948,5.9539,0.0,0.0,0.0,0.0,4.2629,0.0,0.0,0.0,4.1397,4.0782,0.0,0.0,0.0,0.0,0.0,0.0,0.0,0.0,4.0666,4.1618,4.2988,4.4377,4.4163,4.4296,4.5258,4.5375,4.5317,4.522,4.6058,4.68,4.7362,4.8099,4.8872,4.9644,5.0398,5.0819,5.0873,5.0869,5.0579,4.9988,5.048,5.0735,5.0859,5.1223,5.1744,5.2373,5.2373,5.2373,5.2373,5.2373,5.2373,5.2407,5.2473,5.2937,5.3632,5.4361,5.5123,5.5852,5.6481,5.668,5.668,5.668,5.668,5.6978,5.8436,5.9032,5.9429,6.0755,6.1119,6.1119,6.1119,6.2113,6.3173,6.3272,6.4233,6.5227,6.5392,6.5359,6.5326,6.5392,6.5425,6.5246,6.4885,6.4793,6.4702,6.4702,6.4207,6.38,6.38,6.3357,6.2905,6.2414,6.2446,6.2446,6.2446,6.2446,6.2699,6.3331,6.2857,6.2825,6.3457,6.2121,6.1132,6.0651,5.9917,5.9758,6.009,6.009,6.009,6.009,6.009,6.0409,0.0,0.0,0.0,0.0,0.0,0.0,4.2484,0.0,4.2303,0.0,0.0,0.0,0.0,0.0,0.0,0.0,4.2258,0.0,0.0,0.0,4.2537,0.0,0.0,0.0,4.4005,4.489,4.5152,4.4413,4.5352,4.5965,4.6028,4.6765,4.7748,4.8977,4.9785,5.0417,5.0873,5.0873,5.062,5.0137,5.0666,5.0878,5.0925,5.1463,5.1924,5.2373,5.2373,5.2373,5.2373,5.2373,5.2373,5.2373,5.2373,5.2804,5.35,5.4262,5.499,5.5719,5.6448,5.668,5.668,5.668,5.6978,5.7508,5.8568,5.9198,5.9761,6.0821,6.1119,6.1119,6.1119,6.1881,6.2742,6.3173,6.3736,6.4399,6.5227,6.5094,6.4929,6.5326,6.5425,6.5336,6.5156,6.5156,6.5156,6.5156,6.4669,6.43,6.3894,6.3452,6.3002,6.2414,6.2446,6.2446,6.2446,6.2446,6.273,6.3426,6.3204,6.3173,6.3457,6.2871,6.2415,6.2226,6.1728,6.15,6.1527,6.0996,6.0787,6.0787,6.0787,6.0932,4.2775,0.0,0.0,0.0,0.0,0.0,0.0,0.0,0.0,0.0,0.0,0.0,0.0,0.0,4.2737,4.2303,0.0,4.2585,0.0,0.0,0.0,0.0,0.0,0.0,0.0,4.4503,4.4946,4.4061,4.4915,4.5269,4.4764,4.5712,4.6835,4.817,4.9188,5.0066,5.0873,5.0873,5.0675,5.0307,5.0691,5.0978,5.1088,5.1693,5.2067,5.2373,5.2587,5.2516,5.2373,5.2373,5.2373,5.2373,5.2373,5.2705,5.3235,5.4162,5.4858,5.5454,5.6382,5.668,5.668,5.668,5.7177,5.7939,5.8668,5.9429,6.0158,6.0887,6.1119,6.1119,6.1119,6.1649,6.2312,6.2842,6.3272,6.3868,6.4895,6.4895,6.4829,6.5326,6.5425,6.5425,6.5425,6.5425,6.5425,6.5425,6.5156,6.4669,6.4207,6.3832,6.3357,6.271,6.2612,6.2513,6.2414,6.2446,6.2667,6.3173,6.3552,6.3678,6.3489,6.3489,6.3461,6.3468,6.3067,6.2755,6.2496,6.1642,6.1193,6.1193,6.1193,6.1193,0.0,0.0,0.0,4.2882,0.0,0.0,0.0,0.0,4.2882,0.0,0.0,0.0,0.0,4.2882,4.2375,4.0854,4.1868,0.0,0.0,0.0,0.0,0.0,0.0,0.0,0.0,4.439,4.4814,4.4334,4.5187,4.5249,4.4003,4.5396,4.659,4.7397,4.8907,5.0066,5.0873,5.0873,5.0873,5.0873,5.0397,5.0641,5.1566,5.1629,5.1963,5.2445,5.287,5.28,5.2373,5.2373,5.2373,5.2373,5.2373,5.2407,5.2572,5.3997,5.4527,5.4759,5.6183,5.668,5.668,5.668,5.7177,5.7939,5.8668,5.9429,6.0158,6.0887,6.1119,6.1119,6.1119,6.1649,6.2179,6.2212,6.3305,6.4365,6.4399,6.4929,6.5392,6.5425,6.5425,6.5425,6.5425,6.5425,6.5425,6.5425,6.5425,6.5246,6.4702,6.4702,6.43,6.326,6.3164,6.2971,6.2414,6.2446,6.2446,6.2446,6.3742,6.4184,6.352,6.3489,6.368,6.415,6.3312,6.2755,6.2496,6.1642,6.1193,6.1193,6.1193,6.1193,0.0,0.0,4.2882,4.2882,0.0,0.0,0.0,0.0,0.0,0.0,0.0,0.0,0.0,4.2882,4.2701,4.2158,4.252,4.2701,0.0,0.0,0.0,0.0,0.0,0.0,0.0,0.0,4.3727,4.3024,4.3614,4.3846,4.3421,4.419,4.5501,4.7327,4.838,4.9539,5.0873,5.0873,5.0873,5.0908,5.1199,5.1593,5.2123,5.233,5.2601,5.287,5.2694,5.2587,5.2373,5.2373,5.2373,5.2373,5.2373,5.2373,5.2539,5.3997,5.4527,5.4725,5.6183,5.668,5.668,5.668,5.7177,5.7939,5.8668,5.9429,6.0158,6.0887,6.1119,6.1119,6.1119,6.1285,6.1583,6.2047,6.2543,6.3173,6.4167,6.4564,6.4862,6.5326,6.5425,6.5425,6.5425,6.5425,6.5425,6.5425,6.5425,6.5246,6.4793,6.4702,6.4393,6.3738,6.3357,6.3259,6.3542,6.4165,6.431,6.3836,6.469,6.4911,6.4184,6.4626,6.4966,6.5093,6.4646,6.4106,6.3418,6.2525,6.1732,6.1193,6.1193,6.1193,4.2882,4.2882,0.0,4.2882,4.2882,0.0,4.2882,0.0,0.0,0.0,0.0,0.0,0.0,0.0,4.2882,4.2882,4.2995,4.3069,0.0,4.3389,0.0,0.0,0.0,0.0,0.0,0.0,4.3458,4.2875,4.3059,4.3109,4.2695,4.3462,4.4834,4.6906,4.7994,4.9293,5.0873,5.0873,5.0873,5.0908,5.1365,5.1913,5.2424,5.2762,5.3019,5.3111,5.3008,5.2694,5.2373,5.2373,5.2373,5.2373,5.2373,5.2373,5.2539,5.3997,5.4858,5.5421,5.6349,5.668,5.668,5.668,5.7376,5.827,5.8767,5.9595,6.0622,6.1583,6.1516,6.1218,6.1748,6.1682,6.1616,6.208,6.2577,6.3206,6.4167,6.4564,6.4895,6.5326,6.5425,6.5425,6.5425,6.5425,6.5425,6.5425,6.5425,6.5336,6.4976,6.4976,6.4767,6.4377,6.403,6.3933,6.4243,6.5084,6.5258,6.4563,6.5164,6.5353,6.4911,6.5322,6.6143,6.7407,6.5981,6.5257,6.5414,6.3408,6.2087,6.1193,6.1193,6.1193]},{"header":{"parameterUnit":"m.s-1","parameterCategory":1,"la1":30.6,"la2":29.2853,"lo1":-89.7004,"lo2":-87.6739,"dy":0.0162,"dx":0.0183,"nx":112,"ny":82,"refTime":"2023-08-27T00:00:00:Z","depth":0,"parameterNumber":3,"parameterNumberName":"V-component_of_WINDS"},"data":[0.0,0.0,0.0,0.0,0.0,0.0,0.0,0.0,0.0,0.0,0.0,0.0,0.0,0.0,0.0,0.0,0.0,0.0,0.0,0.0,0.0,0.0,0.0,0.0,0.0,0.0,0.0,0.0,0.0,0.0,0.0,0.0,0.0,0.0,0.0,0.0,0.0,0.0,0.0,0.0,0.0,0.0,0.0,0.0,0.0,0.0,0.0,0.0,0.0,0.0,0.0,0.0,0.0,0.0,0.0,0.0,0.0,0.0,0.0,0.0,0.0,0.0,0.0,0.0,0.0,0.0,0.0,0.0,0.0,0.0,0.0,0.0,0.0,0.0,0.0,0.0,0.0,0.0,0.0,0.0,0.0,0.0,0.0,0.0,0.0,0.0,0.0,0.0,0.0,0.0,1.5504,1.6703,1.9068,2.041,2.0039,1.9824,1.9043,1.748,0.0,0.0,0.0,0.0,0.0,0.0,0.0,0.0,0.0,0.0,0.0,0.0,0.0,0.0,0.0,0.0,0.0,0.0,0.0,0.0,0.0,0.0,0.0,0.0,0.0,0.0,0.0,0.0,0.0,0.0,0.0,0.0,0.0,0.0,0.0,0.0,0.0,0.0,0.0,0.0,0.0,0.0,0.0,0.0,0.0,0.0,0.0,0.0,0.0,0.0,0.0,0.0,0.0,0.0,0.0,0.0,0.0,0.0,0.0,0.0,0.0,0.0,0.0,0.0,0.0,0.0,0.0,0.0,0.0,0.0,0.0,0.0,0.0,0.0,0.0,0.0,0.0,0.0,0.0,0.0,0.0,0.0,0.0,0.0,0.0,0.0,0.0,0.0,0.0,0.0,0.0,0.0,0.0,0.0,0.0,0.0,0.0,0.0,0.0,0.0,0.0,0.0,0.0,0.0,1.5463,1.8018,1.9687,2.0527,2.0469,1.9453,1.8418,1.7441,0.0,0.0,0.0,0.0,0.0,0.0,0.0,0.0,0.0,0.0,0.0,0.0,0.0,0.0,0.0,0.0,0.0,0.0,0.0,0.0,0.0,0.0,0.0,0.0,0.0,0.0,0.0,0.0,0.0,0.0,0.0,0.0,0.0,0.0,0.0,0.0,0.0,0.0,0.0,0.0,0.0,0.0,0.0,0.0,0.0,0.0,0.0,0.0,0.0,0.0,0.0,0.0,0.0,0.0,0.0,0.0,0.0,0.0,0.0,0.0,0.0,0.0,0.0,0.0,0.0,0.0,0.0,0.0,0.0,0.0,0.0,0.0,0.0,0.0,0.0,0.0,0.0,0.0,0.0,0.0,0.0,0.0,0.0,0.0,0.0,0.0,0.0,0.0,0.0,0.0,0.0,0.0,0.0,0.0,0.0,0.0,0.0,0.0,0.0,0.0,0.0,0.0,0.0,1.5422,1.6735,1.9029,2.0436,2.1088,2.0644,1.9813,1.8843,1.7754,1.6426,0.0,0.0,0.0,0.0,0.0,0.0,0.0,0.0,0.0,0.0,0.0,0.0,0.0,0.0,0.0,0.0,0.0,0.0,0.0,0.0,0.0,0.0,0.0,0.0,0.0,0.0,0.0,0.0,0.0,0.0,0.0,0.0,0.0,0.0,0.0,0.0,0.0,0.0,0.0,0.0,0.0,0.0,0.0,0.0,0.0,0.0,0.0,0.0,0.0,0.0,0.0,0.0,0.0,0.0,0.0,0.0,0.0,0.0,0.0,0.0,0.0,0.0,0.0,0.0,0.0,0.0,0.0,0.0,0.0,0.0,0.0,0.0,0.0,0.0,0.0,0.0,0.0,0.0,0.0,0.0,0.0,0.0,0.0,0.0,0.0,0.0,0.0,0.0,0.0,0.0,0.0,0.0,0.0,0.0,0.0,0.0,0.0,0.0,0.0,0.0,0.0,0.0,1.685,1.8018,1.9811,2.1124,2.1603,2.1165,2.0442,1.952,1.8367,1.6217,0.0,0.0,0.0,0.0,0.0,0.0,0.0,0.0,0.0,0.0,0.0,0.0,0.0,0.0,0.0,0.0,0.0,0.0,0.0,0.0,0.0,0.0,0.0,0.0,0.0,0.0,0.0,0.0,0.0,0.0,0.0,0.0,0.0,0.0,0.0,0.0,0.0,0.0,0.0,0.0,0.0,0.0,0.0,0.0,0.0,0.0,0.0,0.0,0.0,0.0,0.0,0.0,0.0,0.0,0.0,0.0,0.0,0.0,0.0,0.0,0.0,0.0,0.0,0.0,0.0,0.0,0.0,0.0,0.0,0.0,0.0,0.0,0.0,0.0,0.0,0.0,0.0,0.0,0.0,0.0,0.0,0.0,0.0,0.0,0.0,0.0,0.0,0.0,0.0,0.0,0.0,0.0,0.0,0.0,0.0,0.0,0.0,0.0,0.0,0.0,0.0,0.0,1.6992,1.8577,2.0277,2.1238,2.2059,2.2809,2.1485,2.0197,1.9152,1.6912,0.0,0.0,0.0,0.0,0.0,0.0,0.0,0.0,0.0,0.0,0.0,0.0,0.0,0.0,0.0,0.0,0.0,0.0,0.0,0.0,0.0,0.0,0.0,0.0,0.0,0.0,0.0,0.0,0.0,0.0,0.0,0.0,0.0,0.0,0.0,0.0,0.0,0.0,0.0,0.0,0.0,0.0,0.0,0.0,0.0,0.0,0.0,0.0,0.0,0.0,0.0,0.0,0.0,0.0,0.0,0.0,0.0,0.0,0.0,0.0,0.0,0.0,0.0,0.0,0.0,0.0,0.0,0.0,0.0,0.0,0.0,0.0,0.0,0.0,0.0,0.0,0.0,0.0,0.0,0.0,0.0,0.0,0.0,0.0,0.0,0.0,0.0,0.0,0.0,0.0,0.0,0.0,0.0,0.0,0.0,0.0,0.0,0.0,0.0,0.0,0.0,0.0,1.8022,1.9463,0.0,2.225,2.3047,2.2542,2.1956,2.0753,1.8802,0.0,0.0,0.0,0.0,0.0,0.0,0.0,0.0,0.0,0.0,0.0,0.0,0.0,0.0,0.0,0.0,0.0,0.0,0.0,0.0,0.0,0.0,0.0,0.0,0.0,0.0,0.0,0.0,0.0,0.0,0.0,0.0,0.0,0.0,0.0,0.0,0.0,0.0,0.0,0.0,0.0,0.0,0.0,0.0,0.0,0.0,0.0,0.0,0.0,0.0,0.0,0.0,0.0,0.0,0.0,0.0,0.0,0.0,0.0,0.0,0.0,0.0,0.0,0.0,0.0,0.0,0.0,0.0,0.0,0.0,0.0,0.0,0.0,0.0,0.0,0.0,0.0,0.0,0.0,0.0,0.0,0.0,0.0,0.0,0.0,0.0,0.0,0.0,0.0,0.0,0.0,0.0,0.0,0.0,0.0,0.0,0.0,0.0,0.0,0.0,0.0,0.0,1.7357,1.909,2.0582,0.0,2.301,2.3598,2.2973,2.2451,2.1156,1.8935,0.0,0.0,0.0,0.0,0.0,0.0,0.0,0.0,0.0,0.0,0.0,0.0,0.0,0.0,0.0,0.0,0.0,0.0,0.0,0.0,0.0,0.0,0.0,0.0,0.0,0.0,0.0,0.0,0.0,0.0,0.0,0.0,0.0,0.0,0.0,0.0,0.0,0.0,0.0,0.0,0.0,0.0,0.0,0.0,0.0,0.0,0.0,0.0,0.0,0.0,0.0,0.0,0.0,0.0,0.0,0.0,0.0,0.0,0.0,0.0,0.0,0.0,0.0,0.0,0.0,0.0,0.0,0.0,0.0,0.0,0.0,0.0,0.0,0.0,0.0,0.0,0.0,0.0,0.0,0.0,0.0,0.0,0.0,0.0,0.0,0.0,0.0,0.0,0.0,0.0,0.0,0.0,0.0,0.0,0.0,0.0,0.0,0.0,0.0,0.0,0.0,0.0,1.8127,2.0151,2.1793,2.2639,2.3167,2.3677,2.4438,2.3087,2.1463,0.0,0.0,0.0,0.0,0.0,0.0,0.0,0.0,0.0,0.0,0.0,0.0,0.0,0.0,0.0,0.0,0.0,0.0,0.0,0.0,0.0,0.0,0.0,0.0,0.0,0.0,0.0,0.0,0.0,0.0,0.0,0.0,0.0,0.0,0.0,0.0,0.0,0.0,0.0,0.0,0.0,0.0,0.0,0.0,0.0,0.0,0.0,0.0,0.0,0.0,0.0,0.0,0.0,0.0,0.0,0.0,0.0,0.0,0.0,0.0,0.0,0.0,0.0,0.0,0.0,0.0,0.0,0.0,0.0,0.0,0.0,0.0,0.0,0.0,0.0,0.0,0.0,0.0,0.0,0.0,0.0,0.0,0.0,0.0,0.0,0.0,0.0,0.0,0.0,0.0,0.0,0.0,0.0,0.0,0.0,0.0,0.0,0.0,0.0,0.0,0.0,0.0,0.0,1.873,2.0839,2.2434,2.2707,2.3886,2.4563,2.4049,2.3568,2.2215,1.9629,0.0,0.0,0.0,0.0,0.0,0.0,0.0,0.0,0.0,0.0,0.0,0.0,0.0,0.0,0.0,0.0,0.0,0.0,0.0,0.0,0.0,0.0,0.0,0.0,0.0,0.0,0.0,0.0,0.0,0.0,0.0,0.0,0.0,0.0,0.0,0.0,0.0,0.0,0.0,0.0,0.0,0.0,0.0,0.0,0.0,0.0,0.0,0.0,0.0,0.0,0.0,0.0,0.0,0.0,0.0,0.0,0.0,0.0,0.0,0.0,0.0,0.0,0.0,0.0,0.0,0.0,0.0,0.0,0.0,0.0,0.0,0.0,0.0,0.0,0.0,0.0,0.0,0.0,0.0,0.0,0.0,0.0,0.0,0.0,0.0,0.0,0.0,0.0,0.0,0.0,0.0,0.0,0.0,0.0,0.0,0.0,0.0,0.0,0.0,0.0,0.0,0.0,1.9719,2.1733,2.3206,2.3393,2.4396,2.4812,2.3966,2.3765,2.2655,2.0211,0.0,0.0,0.0,0.0,0.0,0.0,0.0,0.0,0.0,0.0,0.0,0.0,0.0,0.0,0.0,0.0,0.0,0.0,0.0,0.0,0.0,0.0,0.0,0.0,0.0,0.0,0.0,0.0,0.0,0.0,0.0,0.0,0.0,0.0,0.0,0.0,0.0,0.0,0.0,0.0,0.0,0.0,0.0,0.0,0.0,0.0,0.0,0.0,0.0,0.0,0.0,0.0,0.0,0.0,0.0,0.0,0.0,0.0,0.0,0.0,0.0,0.0,0.0,0.0,0.0,0.0,0.0,0.0,0.0,0.0,0.0,0.0,0.0,0.0,0.0,0.0,0.0,0.0,0.0,0.0,0.0,0.0,0.0,0.0,0.0,0.0,0.0,0.0,0.0,0.0,0.0,0.0,0.0,0.0,0.0,0.0,0.0,0.0,0.0,0.0,0.0,0.0,2.0818,2.2608,2.3953,2.4458,2.4715,2.4657,2.4074,2.3717,2.2834,2.1199,0.0,0.0,0.0,0.0,0.0,0.0,0.0,0.0,0.0,0.0,0.0,0.0,0.0,0.0,0.0,0.0,0.0,0.0,0.0,0.0,0.0,0.0,0.0,0.0,0.0,0.0,0.0,0.0,0.0,0.0,0.0,0.0,0.0,0.0,0.0,0.0,0.0,0.0,0.0,0.0,0.0,0.0,0.0,0.0,0.0,0.0,0.0,0.0,0.0,0.0,0.0,0.0,0.0,0.0,0.0,0.0,0.0,0.0,0.0,0.0,1.0562,0.0,0.0,0.0,0.0,0.0,0.0,0.0,0.0,0.0,0.0,0.0,0.0,0.0,0.0,0.0,0.0,0.0,0.0,0.0,0.0,0.0,0.0,0.0,0.0,0.0,0.0,0.0,0.0,0.0,0.0,0.0,0.0,0.0,0.0,0.0,0.0,0.0,0.0,0.0,0.0,0.0,2.0818,2.2608,2.3953,2.4458,2.503,2.5046,2.4098,2.4059,2.3393,2.1596,2.1432,0.0,0.0,0.0,0.0,0.0,0.0,0.0,0.0,0.0,0.0,0.0,0.0,0.0,0.0,0.0,0.0,0.0,0.0,0.0,0.0,0.0,0.0,0.0,0.0,0.0,0.0,0.0,0.0,0.0,0.0,0.0,0.0,0.0,0.0,0.0,0.0,0.0,0.0,0.0,0.0,0.0,0.0,0.0,0.0,0.0,0.0,0.0,0.0,0.0,0.0,0.0,0.0,0.0,0.0,0.0,0.0,0.0,0.0,0.0,0.0,1.174,0.0,0.0,0.0,0.0,0.0,0.0,0.0,0.0,0.0,0.0,0.0,0.0,0.0,0.0,0.0,0.0,0.0,0.0,0.0,0.0,0.0,0.0,0.0,0.0,0.0,0.0,0.0,0.0,0.0,0.0,0.0,0.0,0.0,0.0,0.0,0.0,0.0,0.0,0.0,0.0,2.1476,2.3051,2.4406,2.4981,2.5436,2.5428,2.4664,2.4567,2.4008,2.2834,2.2447,0.0,0.0,0.0,0.0,0.0,0.0,0.0,0.0,0.0,0.0,0.0,0.0,0.0,0.0,0.0,0.0,0.0,0.0,0.0,0.0,0.0,0.0,0.0,0.0,0.0,0.0,0.0,0.0,0.0,0.0,0.0,0.0,0.0,0.0,0.0,0.0,0.0,0.0,0.0,0.0,0.0,0.0,0.0,0.0,0.0,0.0,0.0,0.0,0.0,0.0,0.0,0.0,0.0,1.3852,1.448,1.485,1.5898,1.6327,1.6071,1.4661,1.3508,1.2706,1.2327,0.0,0.0,0.0,0.0,0.0,0.0,0.0,0.0,0.0,0.0,0.0,0.0,0.0,0.0,0.0,0.0,0.0,0.0,0.0,0.0,0.0,0.0,1.7461,1.6694,1.8046,1.9078,1.7422,0.0,0.0,0.0,0.0,0.0,0.0,0.0,0.0,0.0,0.0,0.0,2.2523,2.3863,2.5006,2.5679,2.5963,2.5857,2.5351,2.5003,2.4632,2.418,2.3526,2.3183,0.0,0.0,0.0,0.0,0.0,0.0,0.0,0.0,0.0,0.0,0.0,0.0,0.0,0.0,0.0,0.0,0.0,0.0,0.0,0.0,0.0,0.0,0.0,0.0,0.0,0.0,0.0,0.0,0.0,0.0,0.0,0.0,0.8851,0.8539,0.0,0.0,0.0,0.0,0.0,0.0,0.0,0.0,0.0,0.0,0.0,0.0,0.0,1.179,1.2595,1.3913,1.4448,1.4017,1.6416,1.714,1.6477,1.7975,1.837,1.7913,1.7692,0.0,1.4197,1.3843,0.0,0.0,0.0,0.0,0.0,0.0,0.0,0.0,0.0,0.0,0.0,0.0,0.0,0.0,0.0,0.0,0.0,0.0,0.0,0.0,0.0,0.0,1.9522,1.9353,1.9926,2.0371,2.0081,1.9464,1.9252,1.9961,1.9815,0.0,0.0,0.0,0.0,0.0,0.0,0.0,2.4045,2.5016,2.5798,2.6478,2.6742,2.6462,2.5376,2.5003,2.4782,2.4707,2.4192,2.3825,2.3724,2.3688,0.0,0.0,0.0,0.0,0.0,0.0,0.0,0.0,0.0,0.0,0.0,0.0,0.0,0.0,0.0,0.0,0.0,0.0,0.0,0.0,0.0,0.0,0.0,0.0,0.0,0.0,0.0,0.0,0.0,0.8032,0.8307,0.8669,0.8209,0.7768,0.0,0.0,0.0,0.0,0.0,0.0,0.0,0.0,0.0,1.2839,1.3574,1.4364,1.519,1.6213,1.6817,1.7085,1.8489,1.9178,1.9313,2.0408,2.0619,1.9955,2.0166,1.9095,1.7249,1.5989,1.5385,1.5156,0.0,0.0,0.0,0.0,1.4378,1.5091,1.5794,1.6727,1.7596,1.7338,0.0,0.0,0.0,0.0,0.0,0.0,0.0,1.7921,1.819,1.9678,2.0957,2.0723,2.1172,2.1602,2.1367,2.1391,2.1334,0.0,2.0824,2.0783,2.0523,0.0,0.0,0.0,0.0,2.3555,2.4517,2.5829,2.6894,2.7261,2.7157,2.6856,2.6452,2.5695,2.5134,2.4833,2.4858,2.4728,2.4418,2.4584,2.4184,0.0,0.0,0.0,0.0,0.0,0.0,0.0,0.0,0.0,0.0,0.0,0.0,0.0,0.0,0.0,0.0,0.0,0.0,0.0,0.0,0.0,0.0,0.0,0.0,0.0,0.0,0.0,0.0,0.8503,0.8876,0.914,0.94,0.9267,0.0,0.0,0.0,0.0,0.0,0.0,1.3214,1.3854,1.4511,1.5262,1.6206,1.7033,1.7766,1.844,1.9143,1.9892,2.0343,2.0948,2.161,2.2361,2.2311,2.161,2.1993,2.1459,2.0184,1.8029,1.7101,1.7056,1.625,1.6105,1.6284,1.5792,1.5851,1.6409,1.7576,1.8566,1.9326,1.9263,1.9377,1.934,1.8069,0.0,0.0,0.0,0.0,1.9561,2.0211,2.1365,2.2324,2.2109,2.2689,2.3342,2.3023,2.368,2.3858,0.0,2.2381,2.2467,2.1833,0.0,0.0,0.0,0.0,2.525,2.566,2.6968,2.7854,2.8076,2.7703,2.7426,2.7318,2.6389,2.5661,2.5259,2.546,2.5485,2.5259,2.5468,2.5341,2.4792,0.0,0.0,0.0,0.0,0.0,0.0,0.0,0.0,0.0,0.0,0.0,0.0,0.0,0.0,0.0,0.0,0.0,0.0,0.0,0.0,0.0,0.0,0.0,0.0,0.0,0.0,0.0,0.0,0.0,1.0382,1.2346,0.0,0.0,0.0,0.0,1.2543,1.3719,1.4741,1.5362,1.6035,1.6918,1.8018,1.8964,1.9714,2.0051,2.0578,2.1075,2.1442,2.1996,2.2386,2.2838,2.3402,2.3296,2.2855,2.2872,2.2838,2.2485,1.9601,1.8595,1.8771,1.7798,1.8008,1.8648,1.757,1.7992,1.9331,1.955,2.0395,2.1569,2.3012,2.2503,2.1144,2.0615,1.965,0.0,0.0,2.0541,2.133,2.2631,2.3359,2.3789,2.416,2.4987,2.573,2.5709,2.6646,2.6882,0.0,2.4709,2.5066,2.4997,0.0,2.5342,2.5292,2.5836,2.6856,2.8299,2.8574,2.8674,2.88,2.8775,2.8423,2.7369,2.6741,2.6483,2.6458,2.5887,2.5837,2.6433,2.644,2.6094,2.5276,2.5392,0.0,0.0,0.0,0.0,0.0,0.0,0.0,0.0,0.0,0.0,0.0,0.0,0.0,0.0,0.0,0.0,0.0,0.0,0.0,0.0,0.0,0.0,0.0,0.0,0.0,0.0,0.0,0.0,1.2462,1.3745,0.0,1.3347,1.434,1.5026,1.5107,1.6341,1.7227,1.762,1.8239,1.8994,1.9849,2.0391,2.0832,2.138,2.1576,2.1851,2.2421,2.2864,2.3261,2.3719,2.419,2.4156,2.3702,2.3702,2.3567,2.3385,2.2249,2.166,2.1256,2.0382,2.0147,2.0172,1.9336,1.9754,2.0709,2.1384,2.2061,2.2814,2.3557,2.3221,2.2544,2.2284,2.1959,2.1712,2.2342,2.2648,2.3063,2.3757,2.4277,2.457,2.4453,2.5533,2.6459,2.5986,2.7173,2.8027,2.7067,2.6943,2.6698,2.6118,2.6426,2.6528,2.5801,2.6989,2.7975,2.8275,2.895,2.9426,2.9478,2.9151,2.8775,2.8373,2.7519,2.6841,2.6559,2.6264,2.6088,2.5912,2.6264,2.6396,2.6233,2.6277,2.6108,0.0,0.0,0.0,0.0,0.0,0.0,0.0,0.0,0.0,0.0,0.0,0.0,0.0,0.0,0.0,0.0,0.0,0.0,0.0,0.0,0.0,0.0,0.0,0.0,0.0,0.0,1.3847,1.404,1.5577,1.6334,1.5523,1.6592,1.7383,1.7678,1.8484,1.9302,2.0045,2.0056,2.0569,2.1434,2.1651,2.1994,2.265,2.2738,2.3062,2.3519,2.3637,2.3972,2.4436,2.471,2.4675,2.4436,2.4436,2.4282,2.4059,2.4059,2.3682,2.3049,2.2415,2.2132,2.1996,2.1417,2.17,2.2357,2.3008,2.369,2.4315,2.4438,2.416,2.3809,2.3789,2.3691,2.3761,2.4193,2.4401,2.4591,2.5026,2.5248,2.5405,2.5016,2.6352,2.7494,2.7083,2.8536,2.9906,2.9547,2.9032,2.8371,2.756,2.802,2.8272,2.7502,2.8398,2.9024,2.8976,2.9453,2.9804,2.9804,2.9453,2.9151,2.895,2.8273,2.7595,2.7042,2.6911,2.6779,2.6577,2.6848,2.7018,2.7087,2.713,2.737,2.7782,0.0,0.0,0.0,0.0,0.0,0.0,0.0,0.0,0.0,0.0,0.0,0.0,0.0,0.0,0.0,0.0,0.0,0.0,0.0,0.0,0.0,0.0,0.0,1.2481,1.4559,1.594,1.5325,1.8023,1.9078,1.7232,1.8743,1.9985,2.0281,2.0345,2.0963,2.2513,2.142,2.1459,2.3038,2.3038,2.3376,2.3954,2.4124,2.4453,2.483,2.4436,2.4453,2.4812,2.4812,2.4812,2.4812,2.4812,2.4812,2.4812,2.4812,2.459,2.4213,2.3836,2.3965,2.423,2.3803,2.3842,2.4196,2.4492,2.5294,2.6091,2.582,2.5449,2.5173,2.5173,2.4992,2.4921,2.5357,2.5664,2.5953,2.6376,2.6304,2.6187,2.6187,2.7673,2.905,2.905,3.0956,3.2524,3.2003,3.1058,3.0139,2.9568,3.0099,3.0633,3.0633,3.0181,0.0,3.0557,3.0156,2.9829,2.9854,2.9829,2.9603,2.9026,2.8976,2.8725,2.8172,2.7835,2.7855,2.8363,2.8094,2.7952,2.7952,2.8092,2.849,2.9274,0.0,0.0,0.0,0.0,0.0,0.0,0.0,0.0,0.0,0.0,0.0,0.0,0.0,0.0,0.0,0.0,0.0,0.0,0.0,0.0,0.0,0.0,1.5137,1.4346,1.6402,1.821,1.8708,2.019,2.0952,2.0375,2.1432,2.2198,2.2324,2.2511,2.2902,2.3594,2.3142,2.3288,2.4449,2.4204,2.4547,2.5388,2.5128,2.5121,2.5206,2.4847,2.471,2.4812,2.4812,2.4812,2.4812,2.4812,2.4812,2.4812,2.4812,2.4761,2.4624,2.4861,2.4879,2.4814,2.4914,2.5263,2.5586,2.6091,2.64,2.6613,2.64,2.6224,2.6124,2.6124,2.6044,2.6059,2.6179,2.622,2.6335,2.6476,2.6935,2.7369,2.7369,2.9028,3.0598,3.0441,3.1399,3.2247,3.1928,3.1822,3.1505,3.0954,3.106,3.1185,3.1185,3.106,0.0,3.116,3.0708,3.0532,3.0909,3.0608,3.0331,3.0181,2.9779,2.9302,2.875,2.8391,2.8236,2.8363,2.8451,2.8543,2.866,2.8898,2.9047,0.0,0.0,0.0,0.0,0.0,0.0,0.0,0.0,0.0,0.0,0.0,0.0,0.0,0.0,0.0,0.0,0.0,0.0,0.0,0.0,0.0,0.0,1.6074,1.7373,1.7184,1.8575,2.0008,2.107,2.1911,2.2337,2.258,2.3209,2.3664,2.3893,2.3857,2.4066,2.486,2.4198,2.4298,2.5344,2.4912,2.5127,2.5943,2.5566,2.5446,2.56,2.5223,2.5052,2.5052,2.5052,2.4967,2.483,2.4984,2.5052,2.5052,2.5052,2.5052,0.0,0.0,0.0,0.0,0.0,2.6943,2.7117,2.7227,2.7166,2.7145,2.6653,2.6496,2.6496,2.6496,2.6592,2.6709,2.6709,2.6784,2.688,2.688,2.741,2.8028,2.8028,2.967,3.1134,3.1069,3.1821,3.2566,3.2421,3.2506,0.0,3.2139,3.1888,3.1813,3.2064,3.1687,3.1461,3.1712,3.126,3.0959,3.106,3.0809,3.0532,3.0281,2.998,0.0,0.0,0.0,2.8963,2.9108,2.9181,0.0,0.0,0.0,2.9745,3.0006,3.0006,0.0,0.0,2.9202,2.9145,0.0,0.0,0.0,0.0,0.0,0.0,0.0,0.0,0.0,0.0,0.0,0.0,0.0,0.0,0.0,0.0,1.8226,1.9715,2.027,2.0773,2.1472,2.2589,2.3073,2.3495,2.4172,2.4322,2.459,2.5177,2.4708,2.4842,2.5946,0.0,0.0,0.0,0.0,2.5428,2.6062,2.5686,2.5669,2.5994,2.5617,2.5429,2.5429,2.5429,2.5241,2.4898,2.5275,2.5412,2.5378,2.5525,2.5735,2.5891,2.6134,2.6584,2.7141,2.8208,2.8669,2.8545,2.7955,0.0,0.0,2.6972,2.6714,2.6673,2.6673,2.6825,2.6996,2.6996,2.7092,2.7262,2.7262,2.7882,2.8495,2.8495,2.9966,3.14,3.14,3.2326,3.3068,3.3068,3.3068,3.3068,3.3068,3.2641,3.2491,3.2993,3.2215,3.1763,3.224,3.1838,3.1336,3.0934,0.0,0.0,3.003,2.998,3.006,3.0088,2.9832,2.9774,3.0168,3.0241,3.0477,3.0973,3.0477,3.0477,3.0973,3.0973,3.0973,3.0973,3.0477,3.0241,0.0,0.0,0.0,0.0,0.0,0.0,0.0,0.0,0.0,0.0,0.0,0.0,0.0,0.0,0.0,1.8545,1.9957,2.1074,2.1958,2.2662,2.305,2.3016,2.3785,2.4476,2.4792,2.5612,2.6135,2.6135,2.6135,2.627,2.6833,2.6321,2.6287,2.685,2.6423,2.6406,2.685,2.6473,2.6302,2.6371,0.0,0.0,2.5823,2.5823,2.5617,2.5275,2.5669,2.5652,2.5508,2.6469,2.766,2.8539,2.7555,2.7776,2.886,2.9106,2.8938,2.8607,2.8404,2.8384,2.8363,2.828,2.7914,2.7606,2.7606,2.7455,0.0,2.7262,2.7262,2.7262,2.7262,2.8538,2.9806,2.9806,3.1335,3.2698,3.2698,3.2896,3.3068,3.3068,3.3068,3.3068,3.3068,3.2993,3.2943,3.3068,3.2893,3.2792,3.2893,3.2416,3.219,3.2566,3.219,3.1687,3.1135,3.1246,3.0947,3.0138,3.0367,3.0592,3.0817,3.0817,3.0869,3.0973,3.0869,3.0869,3.0973,3.0973,3.0973,3.0973,3.0869,3.104,0.0,0.0,0.0,0.0,0.0,0.0,0.0,0.0,0.0,0.0,0.0,1.5214,0.0,0.0,1.9052,2.063,2.1466,2.2318,2.3499,2.3716,2.3917,2.4112,2.4843,2.5496,2.6049,2.6542,2.6782,2.6782,2.6782,2.6867,2.7073,2.6884,2.6867,2.7073,2.6884,2.6867,2.7073,2.6679,2.6593,2.6782,2.6388,2.6217,2.6217,2.6217,2.6011,2.5669,2.6493,2.6563,2.6059,2.716,2.8013,2.8668,2.8455,2.8854,2.9642,2.9642,2.9497,2.927,2.9042,2.8959,2.8918,2.869,2.8462,2.8276,2.8276,2.811,2.7883,2.7655,2.7593,2.7689,2.8243,2.9542,3.072,3.1176,3.2455,3.3495,3.3495,3.3269,3.3169,3.3445,3.3495,3.3395,3.3119,3.3294,3.3395,3.3119,3.3068,3.2968,3.2692,3.239,3.2114,3.1863,3.1813,3.1587,3.1196,3.1465,3.1393,3.083,3.0853,3.0924,3.0973,3.0973,3.0973,3.0973,3.0973,3.0973,3.0973,3.0973,3.0973,3.0973,3.0973,3.1123,0.0,0.0,0.0,0.0,0.0,0.0,0.0,0.0,1.4155,1.5543,1.6613,1.7939,1.957,2.0146,2.0943,2.2759,2.2936,2.3346,2.4577,2.4533,2.4702,2.513,2.5668,2.6327,2.7073,2.7073,2.7073,2.7073,2.7073,2.7073,2.7073,2.7073,2.7073,2.7073,2.7073,2.7073,2.7073,2.6765,2.6765,2.7073,2.6747,2.6593,2.6593,2.6593,2.6405,2.6062,2.7392,2.7669,2.7169,2.821,2.8595,2.8829,2.952,3.0038,3.0243,3.0056,2.9994,2.9953,2.9559,2.9435,2.9373,2.9001,2.8814,2.8752,2.8752,2.869,2.8545,2.8152,2.8048,2.8244,2.9384,3.0409,3.1344,3.2357,3.3285,3.4048,3.4048,3.3721,3.352,3.3972,3.4048,3.3922,3.347,3.3771,3.3847,3.3169,3.3068,3.2893,3.2441,3.2365,3.2039,3.1185,3.1361,3.1417,3.1128,3.1446,3.1681,3.1734,3.1394,3.1156,3.1156,3.1052,3.0973,3.0973,3.0973,3.0973,3.0973,3.1104,3.1156,3.1156,3.1261,3.1258,0.7417,0.864,1.0222,1.1735,1.2742,1.4014,0.0,0.0,1.8206,1.9656,2.0612,2.1293,2.2108,2.25,2.3098,2.4184,2.4371,2.4546,2.4951,2.5488,2.5708,2.5518,2.5885,2.6327,2.7073,2.7073,2.7073,2.7073,2.7073,2.7073,2.7073,2.7073,2.7073,2.7073,2.7073,2.7073,2.7073,2.7039,2.7039,2.7073,2.7021,2.7004,2.7004,2.7004,2.6799,2.654,2.7498,2.8535,2.9573,3.0509,3.1157,3.1502,3.1223,3.1148,3.1133,3.0305,2.9994,2.9994,2.9932,2.9911,2.9911,2.9849,2.9559,2.9228,2.9228,2.8938,2.8607,2.8545,2.8545,2.8723,2.9862,3.083,3.1877,3.2907,3.3966,3.4625,3.4625,3.4575,3.455,3.4625,3.4625,3.46,3.455,3.46,3.4274,3.3244,3.3068,3.3043,3.2993,3.2993,3.2943,3.2817,3.239,3.2079,3.1954,3.2143,3.2356,3.2515,3.2071,3.1757,3.1757,3.1261,3.0973,3.0973,3.0973,3.0973,3.0973,3.1496,3.1757,3.1757,3.2254,3.2326,1.0409,1.1759,1.3012,0.0,1.5875,1.7136,1.8424,1.9389,2.0301,2.1584,2.2198,2.2652,2.3106,2.3524,2.3848,0.0,2.5026,2.5549,2.5951,2.6274,2.6222,2.5797,2.5831,2.6135,2.6713,2.673,2.6833,2.7056,2.7073,2.7073,2.7073,2.7073,2.7176,2.7381,2.7176,2.7176,2.7381,2.7176,2.7176,2.7381,2.7176,2.7176,2.7381,2.7176,2.7572,2.8446,2.8346,2.9127,3.0704,3.1169,3.1257,3.1196,3.1593,3.1609,3.1257,3.0346,3.016,3.0367,3.0098,2.9994,2.9994,2.9994,2.987,2.9704,2.9704,2.9559,2.9352,2.9083,2.9021,2.9404,3.1149,3.1831,3.2602,3.423,3.4902,3.5203,3.5203,3.4951,3.4826,3.5127,3.5203,3.5102,3.4776,3.4977,3.4926,3.4148,3.4022,3.3922,3.3596,3.3545,3.3507,3.3265,3.3183,3.2969,3.2761,3.2979,3.2984,3.2725,3.2463,3.2333,3.2333,3.1784,3.1653,3.1967,3.1339,3.1313,3.1993,3.1888,3.2019,3.2333,3.2568,3.275,1.2277,1.401,0.0,1.6746,1.8466,1.9906,1.9832,2.0914,2.211,2.285,2.3208,2.3427,2.3574,2.3702,2.4067,2.4687,2.5313,2.6023,2.6637,2.6627,2.6315,2.5792,2.5686,2.5737,2.5994,2.6302,2.661,2.6884,2.7004,2.7124,2.721,2.7124,2.7244,2.7586,2.7261,2.7193,2.745,2.721,2.721,2.745,2.7193,2.721,2.745,2.7418,2.8433,3.0054,2.9468,3.0001,3.1285,3.1536,3.1451,3.1264,3.1748,3.1919,3.165,3.0719,3.0512,3.0636,3.0305,3.0098,2.9994,2.9994,2.9994,2.9994,2.9994,2.9994,2.9932,2.958,2.9682,3.0376,3.2256,3.2943,3.3622,3.5382,3.5881,3.5956,3.5805,3.5579,3.5504,3.5931,3.6006,3.5881,3.5479,3.573,3.5805,3.5253,3.5177,3.4926,3.4223,3.4212,3.4098,3.369,3.4024,3.4126,3.3752,3.3736,3.3613,3.3195,3.2855,3.2698,3.2698,3.2306,3.2254,3.2672,3.1888,3.1862,3.2698,3.2437,3.2542,3.2934,3.3091,3.3409,1.1661,0.0,1.6951,1.7393,1.9869,2.2045,2.1506,2.2766,2.4027,2.4042,2.4042,2.3954,2.3647,2.3325,2.3619,2.4873,2.5135,2.5627,2.6847,2.6765,2.6234,2.548,2.5069,2.4864,0.0,2.5857,2.6491,2.6508,2.6867,2.7227,2.7569,2.7261,2.7244,2.7586,2.7261,2.7073,2.709,2.7073,2.7073,2.709,2.7073,2.7073,2.7211,2.802,2.9278,3.0591,3.0996,3.1285,3.1401,3.2248,3.2612,3.255,3.2209,3.2313,3.2582,3.1671,3.105,3.0677,3.0677,3.0367,2.9994,2.9994,2.9994,2.9994,2.9994,2.9994,2.9994,2.9973,3.0764,3.1768,3.2878,3.397,3.5041,3.6143,3.6734,3.6985,3.6458,3.6734,3.7111,3.7136,3.7136,3.7136,3.7111,3.7136,3.6935,3.6383,3.6307,3.5931,3.4826,3.4881,3.4857,3.4299,3.5146,3.5486,3.4969,3.4627,3.4371,3.4345,3.33,3.2698,3.2698,3.2672,3.2672,3.2698,3.2646,3.2646,3.2698,3.3247,3.3535,3.3587,3.411,3.4594,1.3964,0.0,1.8272,1.9814,2.13,2.258,2.3591,2.4144,2.4349,2.413,2.3413,2.2725,2.2389,2.223,2.2574,2.3858,2.5125,2.61,2.6952,2.7158,2.6679,2.5189,2.5104,0.0,0.0,0.0,0.0,2.6439,2.685,2.7227,2.7586,2.7741,2.798,2.8374,2.8015,2.7826,2.7826,2.7552,2.7432,2.7432,2.8412,2.864,2.841,2.9462,3.0344,3.1035,3.1228,3.1652,3.2248,3.2612,3.2727,3.2727,3.2561,3.2602,3.2685,3.2395,3.1981,3.1547,3.1257,3.105,3.0905,3.0905,3.0905,3.0905,3.0905,3.0905,3.112,3.1827,3.2097,3.2546,3.4707,3.5107,3.526,3.7067,3.7312,3.7236,3.7412,3.7588,3.7739,3.7739,3.7739,3.7739,3.7739,3.7739,3.7663,3.7487,3.6835,3.6232,3.5855,3.5991,3.604,3.5686,3.6058,3.5885,3.4731,3.4809,3.4659,3.3927,3.3849,3.3822,3.3822,3.3483,3.3456,3.3822,3.3091,3.3064,3.3822,3.3666,3.377,3.4136,3.465,3.4921,1.6242,1.8072,1.9971,2.1551,2.2877,2.3905,2.4474,2.4607,2.4379,2.3307,2.2515,2.154,2.0415,2.0656,2.1386,2.2158,2.3876,2.5344,2.6219,2.6628,2.6405,2.5343,2.5309,2.5086,0.0,0.0,0.0,2.6234,2.6902,2.7432,2.7792,2.8049,2.8374,2.8768,2.8391,2.8186,2.8186,2.7946,2.7933,2.8412,2.9505,3.0119,3.0354,3.0672,3.129,3.2105,3.1828,3.2133,3.2727,3.2727,3.2727,3.2727,3.2727,3.2727,3.2727,3.2727,3.254,3.223,3.1774,3.1505,3.1381,3.1381,3.1381,3.1381,3.1381,3.1381,3.1579,3.2297,3.2809,3.3555,3.5324,3.5833,3.6309,3.7642,3.7889,3.7839,3.7965,3.8165,3.8316,3.8316,3.8316,3.8316,3.8316,3.814,3.8015,3.8015,3.7509,3.7152,3.7152,3.7413,3.7493,3.7114,3.7246,3.6884,3.5757,3.56,3.5182,3.4267,3.4319,3.4319,3.411,3.3953,3.4031,3.4397,3.3666,3.3666,3.4397,3.4058,3.4058,3.4397,3.4921,3.5168,1.8467,2.0321,2.1801,2.2804,2.4493,2.548,2.4164,2.4125,2.3956,2.181,2.126,2.0301,0.0,0.0,1.9941,2.0185,2.1665,2.3426,2.4978,2.5374,2.5634,0.0,0.0,0.0,0.0,0.0,0.0,2.5994,0.0,2.7792,2.8203,2.8237,2.8426,2.8802,2.8443,2.8237,2.822,2.8203,2.8815,2.9795,3.0391,3.1397,3.2734,3.1878,3.2185,3.3348,3.2934,3.2747,3.2727,3.2727,3.2727,3.2727,3.2727,3.2727,3.2727,3.2727,3.2727,3.2664,3.223,3.1795,3.1443,3.1443,3.1443,3.1443,3.1443,3.1443,3.1443,3.1662,3.32,3.482,3.4947,3.6488,3.8015,3.809,3.8492,3.8718,3.8191,3.8517,3.8919,3.8919,3.8919,3.8919,3.8919,3.8467,3.809,3.809,3.8313,3.8485,3.8434,3.8897,3.8981,3.8506,3.8616,3.8475,3.79,3.6802,3.5913,3.5365,3.4789,3.4241,3.3692,3.4162,3.4424,3.4397,3.4397,3.4397,3.4397,3.4397,3.4397,3.4397,3.4948,3.5358,2.0288,2.1777,2.3393,2.3858,2.4247,2.4247,2.3582,2.3121,2.2306,2.0642,1.9354,1.8571,0.0,0.0,0.0,2.1384,2.3067,0.0,2.6729,2.7224,0.0,2.685,0.0,2.6816,2.6251,2.6713,0.0,0.0,2.745,2.7912,2.8597,2.8888,2.9076,2.9179,2.9076,2.8905,2.8631,2.9063,2.9922,3.1233,3.2235,3.2726,3.3089,3.3599,3.3669,3.3368,3.3265,3.3037,3.2727,3.2727,3.2727,3.2727,3.2727,3.2727,3.2727,3.2727,3.2727,3.2706,3.2602,3.2478,3.2395,3.2395,3.2395,3.2395,3.2395,3.2395,3.2713,3.4537,3.5114,3.5759,3.7861,3.8214,3.8216,3.9069,3.9069,3.8944,3.9195,3.9371,3.9496,3.9496,3.9496,3.9496,3.9496,3.9371,3.9347,3.955,3.9753,3.9573,3.8536,3.8897,3.8981,3.8506,3.8616,3.8318,3.7325,3.6959,3.6515,3.594,3.5757,3.5417,3.4894,3.4999,3.4868,3.4397,3.4397,3.4397,3.4397,3.4397,3.4397,3.4397,3.5262,3.5975,2.1948,2.301,2.4396,2.5017,2.489,2.462,2.3587,2.263,2.1379,1.9265,1.8164,1.7428,1.6786,1.7808,0.0,0.0,0.0,0.0,2.627,2.7071,2.7484,0.0,2.7741,0.0,2.7278,2.7621,2.7929,0.0,2.8117,2.8306,2.8751,2.9111,2.9316,2.9316,2.9316,2.9474,2.9655,3.0411,3.1546,3.2671,3.3593,3.3882,3.3882,3.4307,3.4176,3.3679,0.0,3.3534,3.3306,3.3099,3.3016,3.2996,3.2809,3.2727,3.2727,3.2727,3.2727,3.2727,3.2727,3.2727,3.2727,3.2727,3.2727,3.2727,3.2727,3.2727,3.3048,3.4891,3.5568,3.627,3.8404,3.896,3.9195,3.9597,3.9823,3.9973,4.0049,4.0249,4.035,4.0099,3.9848,3.9697,3.9697,3.9697,3.98,4.0083,4.0287,4.026,3.962,3.984,3.9927,3.9329,3.9164,3.8736,3.7821,3.7534,3.7142,3.6541,3.6488,3.6149,3.5338,3.5286,3.5025,3.4397,3.4397,3.4528,3.4789,3.4789,3.492,3.5155,3.5923,3.6565,2.3324,2.4355,2.5221,2.5838,2.5915,2.5403,2.365,2.2195,2.0569,1.7977,0.0,1.665,1.5206,1.7047,1.8848,1.8903,0.0,2.3674,2.5277,2.6185,2.7056,2.8203,2.834,2.834,2.834,2.834,2.8477,2.8819,2.8854,2.8854,2.8854,2.9145,2.9316,2.9447,2.943,3.0083,3.123,3.2128,3.3146,3.4173,3.4657,3.4859,3.4838,3.4424,3.4217,3.4155,3.4155,3.4134,3.4031,3.3637,3.343,3.3348,3.2954,3.2789,3.2747,3.2789,3.2789,3.2747,3.2789,3.2768,3.2727,3.2727,3.2727,3.2727,3.2727,3.2841,3.3161,3.4357,3.5598,3.6843,3.794,3.9438,4.0501,4.0023,4.0651,4.1204,4.0727,4.1003,4.1204,4.0727,4.0249,3.9923,3.9923,3.9923,4.008,4.021,4.0517,4.0797,4.0896,4.1198,4.1089,4.0488,3.9991,3.9468,3.8893,3.8397,3.7874,3.7273,3.722,3.6724,3.5574,3.5521,3.5234,3.4633,3.4633,3.4868,3.5417,3.5417,3.5652,3.6096,3.6637,3.7096,2.441,2.5735,2.6807,2.6237,2.5418,2.4261,2.1768,2.0217,0.0,0.0,1.6148,1.5893,1.644,1.7613,1.9095,2.0735,0.0,0.0,0.0,0.0,2.7826,0.0,0.0,0.0,0.0,0.0,0.0,0.0,2.9213,2.9213,2.9213,2.9282,2.9691,3.0473,3.0602,3.1488,3.3272,3.3544,3.4173,3.517,3.5211,3.5314,3.5293,3.5231,3.4983,3.4631,3.4631,0.0,3.4051,3.3989,3.372,3.3368,3.3285,3.3037,3.2768,3.3141,3.3037,3.2789,3.3141,3.3037,3.2727,3.2727,3.2727,3.2727,3.2727,3.3388,3.4469,3.5553,3.7053,3.8575,3.9717,4.0564,4.1178,4.1078,4.1204,4.1304,4.1229,4.1279,4.1304,4.1229,4.1128,4.1053,4.1053,4.1266,4.1326,4.1156,4.1415,4.144,4.1276,4.1324,4.1089,4.0488,4.0331,4.0043,3.9494,3.9364,3.905,3.8449,3.8423,3.79,3.675,3.6698,3.6436,3.5809,3.5809,3.5861,3.5966,3.5966,3.6018,3.6123,3.6708,3.7184,2.387,2.5402,2.7027,2.6222,2.5037,2.3461,2.1213,0.0,0.0,0.0,1.5734,1.5672,1.6462,1.7371,0.0,2.0369,2.1804,0.0,0.0,0.0,0.0,0.0,0.0,0.0,0.0,2.9316,2.9316,2.9316,2.9316,2.9316,2.9316,2.9822,3.0343,3.0732,3.1359,3.2384,3.3922,3.3922,3.4423,3.5418,3.5418,3.5418,3.5418,3.5418,3.5314,3.5107,3.5107,3.4983,3.4755,3.4527,3.43,3.4072,3.3824,3.3617,3.3451,3.3658,3.3596,3.3451,3.3658,3.3596,3.343,3.343,3.312,3.2768,3.2996,3.3518,3.4339,3.6341,3.7595,3.869,4.05,4.1354,4.1681,4.1404,4.1555,4.1831,4.2133,4.1957,4.1756,4.1756,4.153,4.1329,4.1329,4.1569,4.1788,4.1824,4.1982,4.2087,4.1821,4.1768,4.1533,4.0958,4.0592,4.0305,4.0043,3.9782,3.9494,3.9207,3.8893,3.8344,3.7508,3.7168,3.6724,3.6123,3.6096,3.6253,3.6567,3.6567,3.6724,3.7037,3.7325,3.7727,2.3051,2.4733,2.6896,2.6032,2.4583,2.2915,2.113,1.9111,0.0,1.6316,1.5745,1.5643,1.6345,1.7071,1.801,0.0,2.0735,2.2378,0.0,0.0,0.0,0.0,0.0,0.0,0.0,2.9316,0.0,2.9316,2.9316,2.9316,2.9316,3.0213,3.0861,3.1102,3.2128,3.3146,3.4173,3.4173,3.4673,3.5418,3.5418,3.5418,3.5418,3.5418,3.5418,3.5418,3.5418,3.5418,3.5397,3.5045,3.4838,3.4714,3.4362,3.4155,3.4072,3.4176,3.4155,3.4072,3.4176,3.4155,3.4072,3.4072,3.3596,3.3078,3.343,3.3863,3.4833,3.7019,3.8132,3.9125,4.0938,4.1932,4.2208,4.1806,4.2032,4.2459,4.2886,4.2635,4.2333,4.2333,4.1982,4.1681,4.1681,4.203,4.2302,4.2387,4.2654,4.2736,4.2265,4.2265,4.2082,4.1402,4.0906,4.0592,4.0592,4.0226,3.9913,3.9782,3.9337,3.8841,3.8292,3.7821,3.7273,3.6671,3.6671,3.6828,3.7194,3.7194,3.7456,3.79,3.79,3.8136,2.2802,2.472,2.7071,2.5535,2.3925,2.2359,2.1028,0.0,1.6916,1.6799,1.6052,1.5716,1.6638,1.7041,1.7643,1.9059,2.0119,2.1611,2.3894,0.0,0.0,0.0,0.0,0.0,0.0,2.9316,0.0,2.9316,2.9316,2.9316,2.9316,3.0213,3.123,3.2256,3.3272,3.4298,3.5294,3.5294,3.5294,3.5418,3.5418,3.5418,3.5418,3.5418,3.5418,3.5418,3.5418,3.5418,0.0,3.5376,3.5128,3.4755,3.4714,3.4445,3.4113,3.4548,3.4424,3.4134,3.4548,3.4424,3.4072,3.4072,3.401,3.3948,3.3989,3.5591,3.7315,3.7588,3.9627,4.1838,4.2082,4.2484,4.2886,4.2836,4.2861,4.2911,4.2961,4.2936,4.2911,4.2911,4.2861,4.2836,4.2836,4.328,4.3566,4.3028,4.3355,4.3389,4.2317,4.2631,4.2526,4.1428,4.1272,4.1246,4.1246,4.1193,4.0932,4.0383,4.0278,4.0017,3.9468,3.939,3.9076,3.8475,3.8475,3.8266,3.7821,3.7821,3.7848,3.79,3.79,3.8161,2.1765,2.3791,2.5857,2.5213,2.3398,2.1481,2.0398,0.0,1.6565,1.6565,1.6111,1.595,1.6711,1.6921,1.7432,1.8738,1.9335,2.0344,2.2484,0.0,0.0,0.0,0.0,0.0,0.0,0.0,2.9316,2.9316,2.9822,3.0213,3.0213,3.123,3.2256,3.3272,3.4298,3.5046,3.5418,3.5418,3.5418,3.5418,3.5418,3.5418,3.5418,3.5418,3.5418,3.5418,3.5418,3.5418,0.0,3.5418,3.5314,3.5148,3.5148,3.5045,3.49,3.5086,3.5045,3.4921,3.5086,3.5045,3.4879,3.4879,3.4879,3.4838,3.4569,3.5757,3.7305,3.8296,4.005,4.1717,4.2524,4.2811,4.2986,4.2986,4.2986,4.2986,4.2986,4.2986,4.2986,4.2986,4.2986,4.3073,4.3184,4.3653,4.3932,4.3785,4.4167,4.4095,4.3284,4.3389,4.3232,4.2422,4.203,4.169,4.135,4.1324,4.1219,4.0984,4.0618,4.0305,4.0095,3.9782,3.9494,3.9259,3.8893,3.8789,3.8919,3.8579,3.8579,3.8919,3.8919,3.905,2.0836,2.2869,2.4686,2.4305,2.2623,2.0764,0.0,0.0,1.6345,1.6257,1.5994,1.5965,1.6594,1.6711,1.7085,1.824,1.858,1.9381,2.1539,2.2435,0.0,0.0,0.0,0.0,0.0,2.9111,2.9316,2.9316,3.0213,3.0972,3.123,3.2256,3.3146,3.3922,3.4799,3.5293,3.5418,3.5293,3.5293,3.5418,3.5418,3.5418,3.5418,3.5418,3.5418,3.5418,3.5418,3.5418,0.0,3.5418,3.5418,3.5418,3.5418,3.5418,3.5418,3.5418,3.5418,3.5418,3.5418,3.5418,3.5418,3.5418,3.5418,3.5355,3.5045,3.6132,3.7606,3.8889,4.0384,4.1923,4.2737,4.2986,4.2986,4.2986,4.2986,4.2986,4.2986,4.2986,4.2986,4.2986,4.2986,4.3073,4.3406,4.3653,4.401,4.4203,4.4531,4.4513,4.3938,4.4016,4.3833,4.3101,4.2814,4.2448,4.1873,4.1664,4.1559,4.1559,4.101,4.0697,4.0697,4.0305,4.0043,3.986,3.9442,3.9337,3.9599,3.9181,3.9181,3.9599,3.9599,3.9703,2.0074,2.2128,2.3793,2.2535,2.1467,2.0311,1.8686,1.7311,1.6287,1.5979,1.5657,1.5628,1.6257,1.6374,1.6655,1.7432,1.7873,1.8816,2.1032,2.191,0.0,0.0,0.0,0.0,0.0,2.8648,2.9316,2.9316,3.0213,0.0,3.2384,3.3272,3.3922,3.3922,3.4493,3.4983,3.5418,3.4983,3.4983,3.5418,3.5418,3.5418,3.5418,3.5418,3.5418,3.5418,3.5418,3.5418,0.0,3.5418,3.5418,3.5418,3.5418,3.5418,3.5418,3.5418,3.5418,3.5418,3.5418,3.5418,3.5418,3.5418,3.5418,3.5418,3.5418,3.7188,3.9216,3.9216,4.0985,4.2986,4.2986,4.2986,4.2986,4.2986,4.2986,4.2986,4.2986,4.2986,4.2986,4.2986,4.2986,4.3073,4.3406,4.3653,4.401,4.4203,4.4531,4.4513,4.3938,4.4356,4.4278,4.3154,4.352,4.3624,4.3049,4.2474,4.216,4.216,4.1611,4.1298,4.1298,4.1298,4.101,4.0409,4.0409,4.0148,3.9599,3.9599,3.9599,3.9599,3.9599,3.9886,1.6946,1.8722,2.0061,1.9877,1.9132,1.8203,1.7486,1.6491,1.576,1.5891,1.5833,1.595,1.6594,1.6696,1.7069,1.8085,1.8644,1.9383,0.0,0.0,0.0,0.0,0.0,0.0,0.0,0.0,2.9561,3.0213,3.1359,3.2384,3.3398,3.4423,3.4922,3.4922,3.5149,3.5273,3.5418,3.5273,3.5273,3.5418,3.5418,3.5418,3.5418,3.5418,3.5418,3.5418,3.5418,3.5418,3.5418,3.5418,3.5418,3.5418,3.5418,3.5418,3.5418,3.5418,3.5418,3.5418,3.5418,3.5418,3.5418,3.5418,3.5418,3.5418,3.5418,3.6603,3.8246,4.0036,4.1696,4.2986,4.2986,4.2986,4.2986,4.2986,4.2986,4.2986,4.2986,4.2986,4.2986,4.2986,4.2986,4.3209,4.3653,4.3789,4.401,4.4531,4.4613,4.467,4.4487,4.4617,4.4591,4.4225,4.4356,4.4068,4.3101,4.25,4.216,4.216,4.1638,4.1324,4.1324,4.1324,4.1219,4.1036,4.0618,4.054,4.0775,4.0357,4.0383,4.0775,4.0775,4.0853,1.4887,1.6619,1.7691,1.7894,1.7583,0.0,1.6594,1.6038,1.5599,1.5555,1.5643,1.5891,1.6404,1.6594,1.7024,1.8024,1.8597,1.932,0.0,0.0,0.0,0.0,0.0,0.0,0.0,2.9059,2.9691,3.0732,3.1744,3.2892,3.3796,3.4797,3.5418,3.5418,3.5252,3.5252,3.5418,3.5252,3.5252,3.5418,3.5418,3.5418,3.5418,3.5418,3.5418,3.5418,3.5418,3.5418,0.0,3.5418,3.5418,3.5418,3.5418,3.5418,3.5418,3.5418,3.5418,3.5418,3.5418,3.5418,3.5418,3.5418,3.5418,3.5418,3.5418,3.6603,3.8484,4.05,4.2037,4.2986,4.2986,4.2986,4.2986,4.2986,4.2986,4.2986,4.2986,4.2986,4.2986,4.2986,4.3249,4.3624,4.4096,4.4318,4.4539,4.4952,4.4879,4.4722,4.4722,4.4722,4.4722,4.4722,4.4722,4.4434,4.3729,4.3127,4.2814,4.2814,4.2082,4.1638,4.1638,4.1428,4.1324,4.1324,4.0958,4.0932,4.1324,4.0932,4.0958,4.1324,4.1324,4.1324,0.0,1.5404,1.6168,1.6457,1.655,1.6506,1.5935,1.5818,0.0,1.4976,1.5204,1.554,1.5877,1.6184,1.6669,1.7492,1.7934,1.8754,0.0,0.0,0.0,0.0,0.0,0.0,0.0,2.8665,2.9691,3.0861,3.1873,3.2892,3.3922,3.4922,3.5418,3.5418,3.5024,3.5004,3.5418,3.5004,3.5004,3.5418,3.5418,3.5418,3.5418,3.5418,3.5418,0.0,3.5418,3.5418,3.5418,3.5418,3.5418,3.5418,3.5418,3.5418,3.5418,3.5418,3.5418,3.5418,3.5418,3.5418,3.5418,3.5418,3.5418,3.5418,3.5418,3.721,3.9451,4.0616,4.1923,4.2986,4.2986,4.2986,4.2986,4.3037,4.3011,4.3011,4.3087,4.3037,4.3011,4.3087,4.3714,4.4382,4.4745,4.5055,4.5278,4.5526,4.5114,4.4722,4.4722,4.4722,4.4722,4.4722,4.4722,4.4722,4.4722,4.4199,4.3859,4.3859,4.284,4.2213,4.216,4.169,4.1402,4.1324,4.1324,4.1324,4.1324,4.1324,4.1324,4.1324,4.1324,4.1324,1.0465,0.0,1.2971,1.3381,1.3791,1.412,0.0,1.4809,1.4838,1.4926,1.5204,1.5599,1.6155,1.6316,1.6728,1.7646,1.8716,1.9684,0.0,0.0,0.0,0.0,0.0,0.0,0.0,2.8819,3.0083,3.1873,3.2256,3.3146,3.4922,3.5294,3.5418,3.5418,3.5314,3.5314,3.5418,3.5314,3.5314,3.5418,3.5418,3.5418,3.5418,3.5418,3.5418,3.5418,3.5418,3.5418,3.5418,3.5418,3.5418,3.5418,3.5418,3.5418,3.5418,3.5418,3.5418,3.5418,3.5418,3.5418,3.5418,3.5418,3.5418,3.5418,3.5418,3.721,3.9216,3.9569,4.1215,4.2986,4.2986,4.2986,4.3087,4.3514,4.3288,4.3212,4.4066,4.3564,4.3212,4.4066,4.4244,4.4509,4.5283,4.5227,4.5278,4.5526,4.5114,4.4722,4.4722,4.4722,4.4722,4.4722,4.4722,4.4722,4.4722,4.4199,4.3859,4.3859,4.3206,4.2631,4.2186,4.2474,4.2213,4.1324,4.1324,4.1324,4.1324,4.1324,4.1324,4.1324,4.1324,4.1324,0.9,1.0268,1.1548,1.2694,1.32,1.3743,1.4866,1.4896,1.4779,1.5101,1.5306,1.5613,1.6257,1.6536,1.7041,1.8043,1.9208,0.0,0.0,0.0,0.0,0.0,0.0,0.0,0.0,2.9076,3.0213,3.2256,3.2001,3.2765,3.5294,3.4922,3.482,3.5128,3.5314,3.5418,3.5418,3.5418,3.5418,3.5418,3.5418,3.5418,3.5418,3.5418,3.5418,3.5418,3.5418,3.5418,3.5418,3.5418,3.5418,3.5418,3.5418,3.5418,3.5418,3.5418,3.5418,3.5418,3.5418,3.5418,3.5418,3.5418,3.5418,3.5418,3.5418,3.6724,3.8387,3.8387,4.0152,4.215,4.215,4.2687,4.3438,4.374,4.3765,4.389,4.4493,4.4141,4.3915,4.4518,4.494,4.5362,4.5898,4.6036,4.6169,4.6421,4.5898,4.5428,4.5166,4.514,4.5036,4.4748,4.4722,4.4722,4.4722,4.4434,4.4278,4.4278,4.3729,4.3284,4.2971,4.2997,4.2735,4.2108,4.2108,4.1977,4.1716,4.1716,4.1559,4.1298,4.1036,4.1193,0.8588,0.9833,1.1235,1.292,1.3487,1.4008,1.5474,1.5379,1.5101,1.5438,1.554,1.5745,1.6419,1.6921,0.0,0.0,0.0,0.0,0.0,0.0,0.0,0.0,0.0,0.0,2.9093,2.9378,3.0213,3.2001,3.1616,3.2384,3.5046,3.4487,3.4285,3.4776,3.5128,3.5314,3.5314,3.5376,3.5418,3.5418,3.5418,3.5418,3.5418,3.5418,3.5418,3.5418,3.5418,0.0,3.5418,3.5418,3.5418,3.5418,3.5418,3.5418,3.5418,3.5418,3.5418,3.5418,3.5418,3.5418,3.5418,3.5418,3.5418,3.5418,3.5418,3.6114,3.6967,3.7154,3.9072,4.1244,4.1317,4.2627,4.394,4.4041,4.4342,4.4669,4.4844,4.4744,4.4669,4.4844,4.5664,4.6437,4.6513,4.6927,4.7336,4.7336,4.6839,4.6316,4.582,4.5767,4.5558,4.5062,4.4905,4.4853,4.4853,4.4774,4.4722,4.4722,4.4278,4.399,4.399,4.3363,4.3049,4.3154,4.3075,4.2788,4.2291,4.2291,4.2056,4.1559,4.1063,4.135,0.8774,0.9918,1.1079,1.2097,1.2734,1.3408,1.4732,1.5233,1.5452,1.5774,1.6038,1.6521,1.7251,1.737,1.7684,0.0,0.0,0.0,0.0,0.0,0.0,0.0,0.0,2.8939,2.8408,2.9696,3.0732,3.0991,3.2511,3.367,3.4047,3.4451,3.4696,3.4755,3.4817,3.4859,3.4859,3.5231,3.5418,3.5418,3.5418,3.5418,3.5418,3.5418,3.5418,3.5418,0.0,3.5418,3.5418,3.5418,3.5418,3.5418,3.5418,3.5418,3.5418,3.5418,3.5418,3.5418,3.5418,3.5418,3.5418,3.5418,3.5418,3.5418,3.5418,3.5541,3.5727,3.6123,3.8896,4.187,4.2327,4.3462,4.4618,4.5121,4.492,4.4895,4.5849,4.5296,4.492,4.5874,4.6197,4.6539,4.7,4.716,4.7336,4.7336,4.6839,4.6447,4.6342,4.6342,4.6316,4.6212,4.5767,4.548,4.548,4.5009,4.4722,4.4722,4.4643,4.4591,4.4591,4.3572,4.3258,4.3729,4.3258,4.2971,4.2892,4.2892,4.284,4.2762,4.2657,4.2709,0.8567,0.9797,1.1051,1.2213,1.3222,1.4179,1.5216,1.5584,1.5789,1.6096,1.6272,1.664,0.0,0.0,1.9114,0.0,0.0,0.0,0.0,0.0,0.0,0.0,0.0,2.8734,2.8785,2.9483,3.0125,3.0555,3.1429,3.2344,3.3228,3.3396,3.3658,3.401,3.4258,3.4383,3.4383,3.4838,3.519,3.5418,3.5418,3.5418,3.5418,3.5418,3.5418,3.5418,0.0,3.5418,3.5418,3.5418,3.5418,3.5418,3.5418,3.5418,3.5418,3.5418,3.5418,3.5418,3.5418,3.5418,3.5418,3.5418,3.5418,3.5418,3.5418,3.5418,3.5562,3.6287,3.8596,4.0927,4.1442,4.3381,4.5171,4.5422,4.5522,4.5673,4.62,4.5899,4.5698,4.62,4.6552,4.6923,4.7154,4.7496,4.7806,4.7806,4.7571,4.7283,4.697,4.6944,4.6813,4.6499,4.5976,4.5637,4.5637,4.5088,4.4722,4.4722,4.4722,4.4722,4.4722,4.4225,4.4068,4.433,4.4068,4.3781,4.3493,4.3493,4.3337,4.3023,4.2709,4.2892,0.8558,0.9747,1.0996,1.2351,1.3758,1.5016,1.5734,1.6096,1.6316,1.655,1.686,0.0,0.0,1.9052,0.0,0.0,0.0,0.0,0.0,0.0,0.0,0.0,2.8306,2.846,2.9128,2.9353,2.955,2.976,3.0374,3.1227,3.225,3.2615,3.2892,3.3389,3.3824,3.401,3.3906,3.4569,3.5086,3.5418,3.5418,3.5418,3.5418,3.5418,3.5418,3.5418,3.5418,3.5418,3.5418,3.5418,3.5418,3.5418,3.5418,3.5418,3.5418,3.5418,3.5418,3.5418,3.5418,3.5418,3.5418,3.5418,3.5418,3.5438,3.5562,3.5583,3.5769,3.6701,3.8434,4.0068,4.0792,4.3337,4.5673,4.5673,4.5999,4.6301,4.6301,4.6301,4.6301,4.6301,4.6755,4.7205,4.7205,4.7821,4.8172,4.8172,4.8172,4.8015,4.7597,4.7545,4.7362,4.6917,4.6369,4.5976,4.5846,4.5271,4.4931,4.4931,4.48,4.4722,4.4722,4.4722,4.4722,4.4722,4.4722,4.4513,4.4068,4.4068,4.3859,4.3415,4.2971,4.3232,0.8981,0.9867,1.0778,1.2129,1.3662,1.5016,1.5734,1.6594,1.7238,1.7252,1.8357,0.0,0.0,2.0321,0.0,0.0,0.0,0.0,0.0,0.0,2.7518,2.9042,2.8614,2.8357,2.8785,2.9348,2.9351,2.8363,3.0945,3.2148,3.1256,3.2574,3.341,3.3368,3.3824,3.3865,3.343,3.4714,3.5397,3.5418,3.5418,3.5418,3.5418,3.5418,3.5418,3.5418,3.5418,3.5418,3.5418,3.5418,3.5418,3.5418,3.5418,3.5418,3.5418,3.5418,3.5418,3.5418,3.5418,3.5418,3.5418,3.5418,3.5418,3.55,3.5935,3.6059,3.6266,3.7177,3.8401,3.998,4.1592,4.4178,4.625,4.625,4.6276,4.6301,4.6301,4.6301,4.6301,4.6301,4.6755,4.7205,4.7205,4.7821,4.8172,4.8172,4.8172,4.8172,4.812,4.812,4.812,4.8068,4.7545,4.6996,4.6473,4.5898,4.5558,4.5558,4.5036,4.4722,4.4722,4.4722,4.4722,4.4722,4.4722,4.4696,4.467,4.467,4.4643,4.4591,4.4565,4.4591,0.8843,1.0201,1.1514,1.2418,1.4226,1.5834,1.6111,1.7091,1.7925,1.7925,1.874,0.0,0.0,0.0,0.0,0.0,0.0,0.0,0.0,2.6593,2.6747,2.7792,2.786,2.7878,2.8032,2.8494,2.8459,2.7843,3.0026,3.1003,3.0376,3.1993,3.2975,3.2975,3.3141,3.3285,3.3368,3.4176,3.4569,3.459,3.5148,3.5418,3.5418,3.5418,3.5418,3.5418,3.5418,3.5418,3.5418,3.5418,3.5418,3.5418,3.5418,3.5418,3.5418,3.5418,3.5418,3.5418,3.5418,3.5418,3.5418,3.5418,3.5418,3.55,3.5976,3.6121,3.6308,3.7239,3.8486,3.9963,4.1706,4.3606,4.5281,4.6059,4.6301,4.6301,4.6301,4.6301,4.6301,4.6301,4.6755,4.7205,4.7205,4.7821,4.8172,4.8172,4.8172,4.8172,4.8172,4.8172,4.8172,4.8172,4.7675,4.71,4.6525,4.595,4.5767,4.6133,4.5271,4.4722,4.4722,4.4722,4.4722,4.4722,4.4722,4.4722,4.4722,4.4722,4.4722,4.4722,4.4722,4.4722,0.9075,1.0552,1.205,1.2946,1.4627,1.6325,1.6901,1.775,1.8511,1.8716,1.9199,1.9894,2.1063,0.0,0.0,0.0,0.0,0.0,2.6422,2.6371,2.6491,2.7004,2.7295,2.7432,2.7432,2.7689,2.7723,2.745,2.924,3.0206,2.9903,3.1672,3.2727,3.2727,3.2871,3.3016,3.3161,3.3762,3.3989,3.3865,3.4631,3.5066,3.5211,3.5355,3.5418,3.5418,3.5418,3.5418,3.5418,3.5418,3.5418,3.5418,3.5418,3.5418,3.5418,3.5418,3.5418,3.5418,3.5418,3.5418,3.5418,3.5418,3.5418,3.5542,3.6142,3.6328,3.6515,3.7446,3.8329,3.9541,4.1114,4.2603,4.3879,4.4767,4.5403,4.5671,4.5671,4.6059,4.6301,4.6301,4.6755,4.7205,4.7205,4.7821,4.8172,4.8172,4.8172,4.8172,4.8172,4.8172,4.8172,4.8172,4.7832,4.744,4.7048,4.6499,4.6342,4.6734,4.582,4.5192,4.5009,4.4826,4.4722,4.4722,4.4722,4.4722,4.4722,4.4722,4.4722,4.4722,4.4931,4.5009,0.9853,1.0909,1.2203,1.3642,1.4957,1.6271,1.7891,1.8555,1.8979,1.9638,2.0018,2.0669,2.2088,2.2482,0.0,0.0,0.0,2.6491,2.6491,2.6816,2.7073,2.7073,2.7073,2.7073,2.7073,2.7073,2.7073,2.7073,2.8838,2.9884,2.9884,3.1672,3.2727,3.2727,3.3141,3.3161,3.2727,3.3617,3.3824,3.3368,3.3844,3.432,3.4776,3.5211,3.5418,3.5418,3.5418,3.5418,3.5418,3.5418,3.5418,3.5418,3.5418,3.5418,3.5418,3.5418,3.5418,3.5418,3.5418,3.5418,3.5418,3.5418,3.5418,3.5604,3.6515,3.6804,3.6991,3.7922,3.8191,3.857,3.9823,4.1203,4.2201,4.2201,4.3232,4.4251,4.4251,4.5281,4.6301,4.6326,4.6755,4.7205,4.7205,4.7821,4.8198,4.8198,4.8198,4.8198,4.8172,4.8198,4.8198,4.8172,4.8172,4.8172,4.8172,4.7675,4.7336,4.7336,4.6787,4.6212,4.5663,4.5062,4.4748,4.4748,4.4748,4.4748,4.4748,4.4722,4.4722,4.4748,4.5349,4.5637,0.9323,1.067,0.0,1.3685,0.0,1.7433,1.8467,1.8891,1.9447,2.0559,2.1526,2.2255,2.258,0.0,0.0,2.4713,2.5526,2.6199,2.6456,2.6371,2.6268,2.6268,2.6508,2.6662,2.6662,2.6919,2.7073,2.7073,2.8838,2.9884,2.9884,3.1672,3.2727,3.2727,3.2851,3.2851,3.2727,3.3285,3.3368,3.2934,3.3699,3.432,3.4755,3.49,3.5128,3.5418,3.5418,3.5418,3.5418,3.5418,3.5418,3.5418,3.5418,3.5418,3.5418,3.5418,3.5418,3.5418,3.5418,3.5418,3.5418,3.5418,3.5418,3.5604,3.6515,3.6804,3.6991,3.7922,3.8191,3.8304,3.8681,3.9057,3.9823,4.1715,4.2454,4.3107,4.4127,4.462,4.5257,4.6559,4.7034,4.7462,4.8282,4.8583,4.8826,4.8826,4.8826,4.8669,4.8224,4.8564,4.8643,4.8224,4.8172,4.8172,4.8172,4.7675,4.7492,4.7911,4.7022,4.6395,4.6238,4.6055,4.595,4.595,4.5558,4.5349,4.5349,4.4931,4.4957,4.5375,4.5558,4.5846,1.0327,1.1909,0.0,1.4696,1.6494,1.8247,1.9155,0.0,0.0,0.0,2.2291,2.298,2.3208,2.4317,0.0,2.541,2.5948,2.6371,2.6285,2.6199,2.5994,2.5549,2.608,2.6422,2.6285,2.6765,2.7004,2.685,2.8747,2.9808,2.9657,3.1572,3.2727,3.2727,3.2727,3.2727,3.2727,3.2996,3.2996,3.2747,3.3285,3.3782,3.4217,3.459,3.49,3.5169,3.5335,3.5418,3.5418,3.5418,3.5418,3.5418,3.5418,3.5418,3.5418,3.5418,3.5418,3.5418,3.5418,3.5418,3.5418,3.5418,3.5418,3.5604,3.6515,3.6804,3.6991,3.7922,3.8191,3.8191,3.8191,3.8191,3.857,4.0192,4.1075,4.1588,4.2477,4.3271,4.4033,4.5247,4.5945,4.6711,4.7906,4.8125,4.841,4.9281,4.9401,4.915,4.8283,4.8927,4.927,4.8904,4.8852,4.8852,4.8852,4.8355,4.8172,4.8512,4.7675,4.7153,4.7153,4.6708,4.6473,4.6473,4.5924,4.5637,4.5637,4.5271,4.5271,4.5637,4.6081,4.6499,1.2067,1.3815,1.543,1.6228,1.7501,0.0,2.0047,2.0779,2.1393,2.2127,0.0,2.3107,2.3937,2.4659,2.5327,2.5827,2.6525,2.673,2.6028,2.6234,2.6062,2.5052,2.5823,2.6302,2.5977,2.6559,2.6816,2.6456,2.8428,2.954,2.9181,3.1317,3.2612,3.2612,3.2612,3.2727,3.2727,3.2727,3.2727,3.2727,3.2727,3.2934,3.3348,3.4238,3.4672,3.4776,3.519,3.5376,3.5418,3.5418,3.5418,3.5418,3.5418,3.5418,3.5418,3.5418,3.5418,3.5418,3.5418,3.5418,3.5418,3.5418,3.5418,3.5604,3.6515,3.6804,3.6991,3.7922,3.8191,3.8191,3.8191,3.8191,3.8191,3.8191,3.9057,4.0084,4.0192,4.1432,4.2807,4.3028,4.415,4.5534,4.6724,4.6851,4.7457,4.9463,4.9707,4.9316,4.8379,4.9168,4.9828,4.9897,4.9897,4.9897,4.9897,4.9401,4.9087,4.9087,4.8512,4.8172,4.8172,4.7179,4.663,4.663,4.6081,4.5767,4.5767,4.5741,4.5741,4.582,4.6839,4.7362,1.0958,1.2717,0.0,1.6313,1.8268,2.0033,2.0823,2.1115,2.1435,2.2402,2.3216,2.4039,2.5001,2.5427,2.5809,2.5827,2.608,2.6131,2.596,2.6011,2.596,2.572,2.5908,2.6028,2.5943,2.608,2.6148,2.6062,2.7427,2.8308,2.8217,3.0354,3.1652,3.1652,3.2363,3.2727,3.2727,3.2727,3.2727,3.2727,3.2727,3.2789,3.2892,3.343,3.4072,3.4755,3.4859,3.5107,3.5418,3.5418,3.5418,3.5418,3.5418,3.5418,3.5418,3.5418,3.5418,3.5418,3.5418,3.5418,3.5418,3.5418,3.5418,3.5604,3.6515,3.6804,3.6991,3.7922,3.8191,3.8191,3.8191,3.8191,3.8191,3.8191,3.8437,3.8946,3.9953,4.0539,4.1477,4.3961,4.4536,4.5366,4.7394,4.7531,4.7622,4.8004,4.8131,4.8108,4.8306,4.8909,4.9508,4.9828,4.9897,4.9897,4.9897,4.9401,4.9087,4.9087,4.8512,4.8172,4.8172,4.7937,4.7806,4.7806,4.7257,4.697,4.697,4.6525,4.6525,4.697,4.7231,4.7571,1.1526,1.3239,0.0,1.719,0.0,2.0369,2.0867,2.1314,2.1865,2.2528,2.3325,2.4082,2.4877,2.5477,2.5874,2.5703,2.5823,2.5874,2.5686,2.5669,2.56,2.5429,2.5566,2.5669,2.5669,2.5823,2.5857,2.5686,2.692,2.7737,2.7992,2.9754,3.0997,3.1673,3.2169,3.2499,3.2727,3.2727,3.2727,3.2727,3.2727,3.2727,3.2747,3.3182,3.3762,3.4424,3.4424,3.4693,3.5107,3.5107,3.5231,3.5418,3.5418,3.5418,3.5418,3.5418,3.5418,3.5418,3.5418,3.5418,3.5459,3.5687,3.5749,3.5914,3.6846,3.7136,3.7281,3.7984,3.8191,3.8191,3.8191,3.8191,3.8191,3.8191,3.8191,3.8437,3.9057,3.9359,4.012,4.1904,4.2948,4.4193,4.6037,4.7316,4.7597,4.6287,4.7264,4.809,4.833,4.9064,4.9899,5.0611,5.0707,5.0707,5.0707,5.0211,4.9897,4.9897,4.9348,4.9008,4.9008,4.8747,4.8486,4.8198,4.7623,4.7336,4.7336,4.7022,4.7048,4.7336,4.7623,4.7911,1.2166,1.405,1.6077,1.8209,1.9433,0.0,2.0559,2.1175,2.1911,2.236,2.3158,2.3795,2.4335,2.5124,2.5652,2.5326,2.5532,2.5634,2.5326,2.5275,2.5155,2.4864,2.5086,2.5275,2.5275,2.5566,2.5617,2.5292,2.6285,2.7264,2.7826,2.9095,3.0398,3.1564,3.1808,3.2147,3.2602,3.254,3.2582,3.2727,3.2727,3.2727,3.2747,3.3099,3.3513,3.3948,3.3948,3.4217,3.4631,3.4631,3.49,3.5314,3.5314,3.5355,3.5418,3.5418,3.5418,3.5418,3.5418,3.5418,3.548,3.5873,3.6039,3.6266,3.7115,3.7425,3.7591,3.8046,3.8191,3.8191,3.8191,3.8191,3.8191,3.8191,3.8191,3.8191,3.8191,3.8481,3.8874,3.9467,4.1186,4.3078,4.4505,4.6626,4.7173,4.5064,4.6523,4.7977,4.824,4.9152,5.0181,5.122,5.1471,5.1596,5.1596,5.11,5.0786,5.0786,5.0211,4.9897,4.9897,4.9374,4.8852,4.8355,4.778,4.7492,4.7492,4.7492,4.7492,4.7492,4.7963,4.8172,1.0871,0.0,1.6606,0.0,1.9096,1.9564,0.0,0.0,2.0678,0.0,2.2863,2.3973,2.44,2.4687,2.4949,2.4898,2.4932,2.4949,2.4898,2.4898,2.4881,2.483,2.4864,2.4898,2.4898,2.4932,2.4949,2.4898,2.5336,2.5979,2.6807,2.8089,2.9234,3.0207,3.1003,3.1671,3.2126,3.1754,3.1961,3.2727,3.2727,3.2727,3.2727,3.2789,3.3058,3.3472,3.3472,3.3741,3.4155,3.4155,3.4424,3.4859,3.4859,3.5086,3.5418,3.5418,3.5418,3.5418,3.5418,3.5418,3.5438,3.55,3.579,3.6204,3.6742,3.7177,3.7591,3.8046,3.8191,3.8191,3.8191,3.8191,3.8191,3.8191,3.8191,3.8191,3.8191,3.8233,3.8666,3.9778,4.1808,4.3804,4.5119,4.5619,4.5731,4.5414,4.5572,4.6136,4.6941,4.8109,4.9152,5.0206,5.1094,5.1596,5.1596,5.11,5.0786,5.0786,5.0211,4.9897,4.9897,4.9374,4.9035,4.8956,4.8381,4.8068,4.8068,4.8068,4.8068,4.8068,4.8146,4.8172,1.1243,1.3748,1.6118,0.0,1.8364,1.9125,1.9594,0.0,2.0813,2.1182,2.2088,2.3145,2.4053,2.4132,2.4316,2.4744,2.4641,2.4573,2.4795,2.4812,2.4812,2.4812,2.4812,2.4812,2.4812,2.4812,2.4812,2.4812,2.4967,2.5499,2.6352,2.7399,2.8487,2.962,3.0533,3.1215,3.1671,3.1485,3.1712,3.2333,3.2333,3.2478,3.2727,3.2727,3.283,3.3016,3.3016,3.3265,3.3679,3.3679,3.4113,3.4755,3.4755,3.5024,3.5418,3.5418,3.5418,3.5418,3.5418,3.5418,3.5459,3.5728,3.6121,3.6577,3.7053,3.7508,3.7922,3.8129,3.8191,3.8191,3.8191,3.8191,3.8191,3.8191,3.8191,3.8191,3.8191,3.8191,3.88,4.0571,4.2075,4.342,4.4753,4.5163,4.5255,4.4979,4.5186,4.5754,4.6808,4.7846,4.8632,4.9152,5.0181,5.0588,4.9925,5.0231,5.0355,5.0355,5.0747,5.0838,5.0838,5.0002,4.9688,5.0028,4.8826,4.8172,4.8172,4.8172,4.8355,4.8695,4.8695,4.8695,1.1571,0.0,1.5246,1.6443,1.7589,1.8511,0.0,0.0,2.0529,0.0,2.1277,2.2017,2.3178,2.3503,2.3747,2.4436,2.4282,2.4196,2.4487,2.4607,2.4641,2.4538,2.4607,2.4675,2.4675,2.4675,2.471,2.4812,2.4812,2.5128,2.6082,2.6735,2.7752,2.9164,2.985,3.0504,3.1195,3.1319,3.1547,3.1878,3.1981,3.2292,3.2727,3.2727,3.2727,3.2727,3.2727,3.2913,3.3223,3.3327,3.3782,3.4424,3.4672,3.4962,3.5273,3.5376,3.5418,3.5418,3.5418,3.5418,3.548,3.5832,3.6328,3.6867,3.7218,3.7715,3.8191,3.8191,3.8191,3.8191,3.8191,3.8191,3.8191,3.8191,3.8191,3.8191,3.8191,3.8274,3.8988,4.1277,4.1983,4.2834,4.448,4.5002,4.5071,4.4841,4.5117,4.5619,4.6405,4.7449,4.8109,4.8109,4.9023,4.9411,4.8632,4.9411,5.0078,5.0078,5.1094,5.1596,5.1596,5.0655,5.0342,5.0786,4.9348,4.8616,4.8616,4.8486,4.8721,4.9296,4.9139,4.9087,0.0,1.2661,0.0,1.5965,1.6901,1.7486,0.0,0.0,0.0,0.0,2.0251,2.1195,2.1985,2.2527,2.3151,2.3717,2.3734,2.3734,2.3751,2.4042,2.4127,2.3768,2.4042,2.4264,2.4264,2.4264,2.4419,2.4795,2.4812,2.5128,2.6082,2.6191,2.6971,2.8727,2.8834,2.9373,3.0719,3.1153,3.1381,3.1422,3.1836,3.2292,3.2727,3.2727,3.2727,3.2727,3.2727,3.2747,3.2789,3.3203,3.341,3.3534,3.4403,3.4776,3.4838,3.5273,3.5418,3.5418,3.5418,3.5418,3.5418,3.5438,3.6059,3.6804,3.6825,3.7467,3.8191,3.8191,3.8191,3.8191,3.8191,3.8191,3.8191,3.8191,3.8191,3.8191,3.8191,3.8523,3.9364,4.1342,4.1721,4.2569,4.4868,4.4933,4.4796,4.5255,4.5347,4.5347,4.5483,4.6405,4.6941,4.6941,4.7977,4.8502,4.8502,4.9411,5.0078,5.0078,5.1094,5.1596,5.1596,5.1047,5.076,5.0786,5.0132,4.9793,4.9793,4.9296,4.9322,4.9845,4.9322,4.9087,0.0,0.0,0.0,1.4836,1.5965,1.6857,1.7384,1.7852,1.8419,1.9355,1.9765,2.0413,2.1609,2.2328,2.2893,2.358,2.3477,2.3408,2.3648,2.3785,2.3819,2.3699,2.3802,2.3956,2.4213,2.4008,2.4127,2.4778,2.459,2.4648,2.5238,2.5771,2.6409,2.706,2.8155,2.9192,3.0243,3.0408,3.0781,3.1381,3.1547,3.2002,3.2727,3.2727,3.2727,3.2727,3.2727,3.2727,3.2768,3.3203,3.3555,3.3886,3.4507,3.4941,3.5211,3.5355,3.5418,3.5418,3.5418,3.5418,3.5418,3.5418,3.6059,3.6804,3.6804,3.7446,3.8191,3.8191,3.8191,3.8191,3.8191,3.8191,3.8253,3.8543,3.8833,3.9061,3.9061,3.9185,3.9687,4.125,4.1624,4.2276,4.4345,4.4663,4.4773,4.5278,4.537,4.537,4.537,4.6271,4.6674,4.6025,4.6808,4.7184,4.654,4.7449,4.8371,4.9023,5.0053,5.0968,5.1596,5.1073,5.0943,5.1309,5.076,5.0289,4.9897,4.9688,4.9688,4.9897,5.008,4.9976,1.0317,0.0,0.0,0.0,1.5476,1.633,1.6755,0.0,1.786,1.8679,1.9247,1.9975,2.0913,2.1762,2.2569,2.3186,2.3083,2.3014,2.3254,2.3391,2.3443,2.3323,2.3408,2.358,2.3836,2.3631,2.3751,2.4384,2.4316,0.0,2.4419,2.5208,2.599,2.6518,2.7921,2.9132,2.9994,3.016,3.0615,3.1381,3.1381,3.1857,3.2727,3.2561,3.2582,3.2727,3.2727,3.2727,3.2768,3.3368,3.3699,3.3906,3.4672,3.5066,3.5211,3.5376,3.5418,3.5418,3.5418,3.5418,3.5418,3.5418,3.5935,3.6577,3.6577,3.7218,3.7964,3.7964,3.8067,3.8191,3.8191,3.8295,3.8523,3.8978,3.9433,3.9765,3.9765,3.9765,3.9986,4.1113,4.1611,4.2452,4.3956,4.4392,4.4773,4.5278,4.537,4.537,4.537,4.6025,4.616,4.5483,4.6025,4.616,4.5483,4.6271,4.7184,4.7977,4.9023,5.0053,5.1094,5.0732,5.0857,5.1596,5.1256,5.0864,5.0472,5.0289,5.0289,5.0472,5.0681,5.0577,0.0,0.0,0.0,0.0,0.0,0.0,1.5906,0.0,1.7311,1.7326,1.8701,1.9844,1.986,2.1031,2.209,2.2567,2.2535,2.2653,2.2653,2.286,2.2963,2.2687,2.2877,2.31,2.3117,2.31,2.3254,2.3631,2.399,2.4042,2.3682,2.4384,2.5551,2.7276,2.8155,2.9026,2.9994,3.045,3.0926,3.1381,3.1381,3.1857,3.2706,3.225,3.2292,3.2727,3.2727,3.2727,3.2809,3.3679,3.3782,3.3513,3.4879,3.5128,3.4817,3.5252,3.5418,3.5418,3.5418,3.5418,3.5418,3.5418,3.5728,3.6121,3.6121,3.6763,3.7488,3.7488,3.7819,3.8191,3.8191,3.8543,3.8978,3.9454,3.9909,4.0241,4.0241,4.0241,4.0381,4.1177,4.1869,4.271,4.3885,4.4392,4.4773,4.5278,4.5347,4.537,4.537,4.537,4.537,4.537,4.537,4.537,4.537,4.6271,4.6808,4.6941,4.7846,4.8893,5.0078,5.0078,5.0588,5.1596,5.1596,5.1596,5.1596,5.1073,5.1073,5.157,5.1021,5.0812,1.0679,0.0,0.0,0.0,0.0,0.0,0.0,0.0,0.0,1.7238,1.8502,1.9654,1.9812,2.0616,2.1405,2.2038,2.2364,2.2653,2.2653,2.2638,2.2672,2.2552,2.2638,2.2809,2.3083,2.286,2.2963,0.0,2.3511,2.3494,2.3648,2.4127,2.5051,2.6409,2.6735,2.7492,2.9006,2.9574,3.0364,3.1381,3.1381,3.1857,3.2706,3.225,3.2292,3.2727,3.2727,3.2727,3.2768,3.3327,3.3492,3.3472,3.4527,3.4859,3.4817,3.5252,3.5418,3.5418,3.5418,3.5418,3.5418,3.5418,3.5728,3.6121,3.6121,3.6763,3.7488,3.7488,3.7819,3.8253,3.8585,3.8999,3.9454,3.993,4.0365,4.0696,4.0696,4.0696,4.0838,4.0959,4.1389,4.186,4.2473,4.3277,4.394,4.4436,4.5074,4.537,4.537,4.537,4.537,4.537,4.537,4.537,4.537,4.5619,4.616,4.6808,4.7208,4.7846,4.8893,4.9668,5.0206,5.0461,5.122,5.1596,5.1596,5.1439,5.1256,5.1021,5.0864,5.0995,1.1196,1.2493,0.0,0.0,0.0,0.0,1.5672,1.595,1.6316,0.0,1.7827,1.8832,1.9368,2.0046,2.0823,2.1456,2.197,2.2364,2.2636,2.2653,2.2653,2.2653,2.2653,2.2638,2.286,2.2672,2.2825,2.3169,2.3151,2.334,2.3871,2.3956,2.4663,2.6063,2.6409,2.7168,2.8155,2.9539,3.0336,3.0526,3.1244,3.194,3.2437,3.2168,3.2292,3.2727,3.2727,3.2727,3.2747,3.2996,3.3223,3.3472,3.4403,3.4755,3.4817,3.5252,3.5418,3.5418,3.5418,3.5418,3.5418,3.5418,3.5604,3.5852,3.6059,3.6618,3.7239,3.7446,3.7819,3.8295,3.873,3.904,3.9413,4.0075,4.0406,4.0634,4.0841,4.0882,4.0882,4.0882,4.1221,4.1699,4.1975,4.3017,4.3892,4.4183,4.4937,4.537,4.537,4.537,4.537,4.537,4.537,4.537,4.537,4.537,4.5619,4.6271,4.6271,4.6902,4.8161,4.9017,4.9794,5.0408,5.1198,5.1596,5.1596,5.1596,5.1439,5.1126,5.1126,5.1282,1.2416,1.3212,1.3907,0.0,0.0,0.0,1.5496,1.5731,1.6038,0.0,0.0,1.7856,1.8533,1.9297,2.0102,2.067,2.1309,2.1953,2.2364,2.2484,2.2535,2.2484,2.2518,2.2653,2.2653,2.2653,2.2653,2.2653,2.286,2.3374,2.4127,2.3853,2.4436,2.5954,2.6735,2.7168,2.7276,2.963,3.0417,2.947,3.0994,3.187,3.2043,3.2043,3.2292,3.2727,3.2727,3.2727,3.2727,3.2727,3.2954,3.3389,3.4258,3.4631,3.4734,3.519,3.5376,3.5418,3.5418,3.5418,3.5418,3.5418,3.5418,3.55,3.5914,3.639,3.6908,3.7425,3.786,3.8295,3.873,3.8895,3.9144,4.0013,4.0241,4.0365,4.0779,4.0882,4.0882,4.0882,4.1452,4.1877,4.2018,4.3119,4.409,4.409,4.48,4.5347,4.521,4.5347,4.537,4.537,4.537,4.537,4.537,4.537,4.537,4.537,4.537,4.5963,4.7336,4.798,4.8985,5.0554,5.1226,5.1622,5.1701,5.1622,5.1622,5.1701,5.1701,5.1727,0.0,0.0,0.0,0.0,0.0,0.0,1.5877,1.6067,1.6228,0.0,1.6817,1.7689,1.7841,1.8281,1.8867,1.9539,1.9882,2.0483,2.1542,2.2158,2.2432,2.2141,2.2364,2.2653,2.2653,2.2653,2.2653,2.2653,2.2621,2.298,2.3734,2.3734,2.4149,2.5,2.5255,2.5679,2.63,2.7234,2.8325,2.9362,3.0118,3.1005,3.2043,3.2043,3.2292,3.2727,3.2727,3.2727,3.2727,3.2727,3.2789,3.2913,3.343,3.3865,3.4258,3.4714,3.5107,3.5418,3.5418,3.5418,3.5418,3.5418,3.5418,3.5438,3.5521,3.6142,3.697,3.7819,3.8109,3.8295,3.873,3.9123,3.9537,4.0096,4.0489,4.0758,4.0862,4.0882,4.0882,4.0882,4.1025,4.131,4.1877,4.27,4.3236,4.3236,4.4503,4.521,4.4526,4.4937,4.537,4.537,4.537,4.537,4.537,4.537,4.537,4.537,4.537,4.5529,4.5893,4.6721,4.7762,4.8936,5.0741,5.1831,5.2328,5.1831,5.1858,5.2328,5.2328,5.2589,0.0,0.0,0.0,1.6197,0.0,0.0,0.0,1.6257,1.6374,1.6389,1.6817,1.7356,1.7797,0.0,1.8394,1.9018,1.9548,1.9893,2.0074,2.1218,2.1919,2.173,2.1867,2.2055,2.2244,2.2278,2.2347,2.2535,2.2653,2.2792,2.3357,2.358,2.3939,2.4504,2.5133,2.5459,2.5459,2.6829,2.7804,2.8377,2.9806,3.0893,3.1733,3.2168,3.252,3.2727,3.2727,3.2727,3.2727,3.2727,3.2727,3.2768,3.3203,3.3658,3.4134,3.459,3.5045,3.5418,3.5418,3.5418,3.5418,3.5418,3.5418,3.55,3.5976,3.6763,3.7591,3.8046,3.8191,3.8233,3.846,3.8854,3.9309,3.9785,4.0054,4.0323,4.0779,4.0717,4.0613,4.0841,4.0882,4.1025,4.1452,4.1997,4.2559,4.2559,4.3814,4.4663,4.4228,4.4937,4.537,4.537,4.537,4.537,4.537,4.537,4.537,4.537,4.5599,4.5737,4.5737,4.6805,4.8125,4.9706,5.0742,5.1819,5.2955,5.2642,5.2642,5.2955,5.2955,5.3112,0.0,0.0,0.0,0.0,0.0,1.6535,0.0,0.0,0.0,1.6726,1.6904,0.0,0.0,0.0,0.0,0.0,0.0,0.0,0.0,1.9882,0.0,2.11,2.1309,2.1559,2.1855,2.1889,2.2025,2.2415,2.24,2.2605,2.31,2.346,2.3836,2.4213,2.5248,2.5551,2.483,2.6535,2.7397,2.7187,2.9172,3.0498,3.1182,3.2117,3.2644,3.2727,3.2727,3.2727,3.2727,3.2727,3.2727,3.2768,3.312,3.3534,3.3989,3.4465,3.49,3.5314,3.5397,3.5418,3.5418,3.5418,3.5418,3.5604,3.6515,3.7322,3.7964,3.8129,3.8191,3.8191,3.8191,3.8585,3.9081,3.9454,3.9682,3.9992,4.0717,4.0593,4.0448,4.08,4.0882,4.1025,4.1167,4.1594,4.2018,4.2018,4.3119,4.3952,4.3952,4.4663,4.521,4.5347,4.537,4.537,4.537,4.537,4.5393,4.5507,4.5806,4.6012,4.6127,4.7087,4.8549,5.063,5.076,5.1767,5.3556,5.3556,5.3556,5.3556,5.3556,5.3609,0.0,0.0,0.0,0.0,1.7223,0.0,0.0,0.0,1.6726,1.6477,0.0,0.0,0.0,0.0,0.0,0.0,0.0,0.0,1.7366,1.8312,1.9365,1.999,2.0829,2.1366,2.1345,2.1279,2.1494,2.2055,2.1845,2.2197,2.31,2.346,2.3836,2.4213,2.4717,2.4923,2.4812,2.5086,2.5494,2.63,2.7694,2.8998,3.0258,3.1543,3.2333,3.2727,3.2727,3.2727,3.2727,3.2727,3.2727,3.2747,3.2789,3.3078,3.3513,3.3969,3.4445,3.49,3.5293,3.5418,3.5418,3.5418,3.5418,3.5604,3.6515,3.6887,3.7136,3.7964,3.8191,3.8191,3.8191,3.8812,3.9475,3.9537,4.0137,4.0758,4.0862,4.0841,4.082,4.0862,4.0882,4.1167,4.1735,4.1877,4.2018,4.2018,4.27,4.3236,4.3236,4.3952,4.4663,4.5347,4.537,4.537,4.537,4.537,4.5553,4.6012,4.5668,4.5645,4.6104,4.6599,4.7762,4.9554,5.0499,5.1946,5.4105,5.4105,5.4105,5.4105,5.4105,5.4393,0.0,0.0,0.0,0.0,0.0,0.0,1.7165,0.0,1.7091,0.0,0.0,0.0,0.0,0.0,0.0,0.0,1.7612,0.0,0.0,0.0,1.8939,0.0,0.0,0.0,2.052,2.0933,2.1295,2.1662,2.1511,2.1678,2.2449,2.2809,2.3288,2.3888,2.4282,2.459,2.4812,2.4812,2.5238,2.61,2.694,2.8347,3.0147,3.0922,3.1819,3.2727,3.2727,3.2727,3.2727,3.2727,3.2727,3.2727,3.2727,3.2996,3.343,3.3906,3.4362,3.4817,3.5273,3.5418,3.5418,3.5418,3.5604,3.5935,3.6597,3.6991,3.7343,3.8005,3.8191,3.8191,3.8191,3.8667,3.9206,3.9475,3.9827,4.0241,4.0758,4.0675,4.0572,4.082,4.0882,4.1025,4.131,4.131,4.131,4.131,4.1997,4.2559,4.3097,4.3814,4.4526,4.5347,4.537,4.537,4.537,4.537,4.5576,4.6081,4.5921,4.5898,4.6104,4.631,4.7247,4.8836,5.021,5.1833,5.3721,5.4441,5.4733,5.4733,5.4733,5.4863,1.7174,0.0,0.0,0.0,0.0,0.0,0.0,0.0,0.0,0.0,0.0,0.0,0.0,0.0,1.7267,1.7091,0.0,1.7639,0.0,0.0,0.0,0.0,0.0,0.0,0.0,2.0281,2.072,2.1134,2.1064,2.123,2.1833,2.2295,2.2843,2.3494,2.399,2.4419,2.4812,2.4812,2.5128,2.5771,2.6388,2.7679,2.9793,2.9996,3.1131,3.2727,3.2383,3.2498,3.2727,3.2727,3.2727,3.2727,3.2727,3.2934,3.3265,3.3844,3.4279,3.4652,3.5231,3.5418,3.5418,3.5418,3.5728,3.6204,3.666,3.7136,3.7591,3.8046,3.8191,3.8191,3.8191,3.8523,3.8937,3.9268,3.9537,3.9909,4.0551,4.0551,4.051,4.082,4.0882,4.0882,4.0882,4.0882,4.0882,4.0882,4.131,4.1997,4.27,4.3258,4.3952,4.4937,4.5074,4.521,4.5347,4.537,4.553,4.5898,4.6173,4.6265,4.6127,4.6127,4.6958,4.8701,5.0166,5.1731,5.3376,5.4537,5.5099,5.5099,5.5099,5.5099,0.0,0.0,0.0,1.7326,0.0,0.0,0.0,0.0,1.7326,0.0,0.0,0.0,0.0,1.7326,1.7121,1.6506,1.6916,0.0,0.0,0.0,0.0,0.0,0.0,0.0,0.0,1.9186,1.9486,2.0555,2.0474,2.0621,2.1343,2.2141,2.2723,2.3117,2.3853,2.4419,2.4812,2.4812,2.4812,2.4812,2.5679,2.7068,2.8878,2.8766,3.0152,3.2612,3.1767,3.1883,3.2727,3.2727,3.2727,3.2727,3.2727,3.2747,3.2851,3.3741,3.4072,3.4217,3.5107,3.5418,3.5418,3.5418,3.5728,3.6204,3.666,3.7136,3.7591,3.8046,3.8191,3.8191,3.8191,3.8523,3.8854,3.8874,3.9558,4.022,4.0241,4.0572,4.0862,4.0882,4.0882,4.0882,4.0882,4.0882,4.0882,4.0882,4.0882,4.1167,4.2018,4.2018,4.2559,4.409,4.4228,4.4503,4.5347,4.537,4.537,4.537,4.6311,4.6632,4.615,4.6127,4.7121,4.9224,5.036,5.1731,5.3376,5.4537,5.5099,5.5099,5.5099,5.5099,0.0,0.0,1.7326,1.7326,0.0,0.0,0.0,0.0,0.0,0.0,0.0,0.0,0.0,1.7326,1.7252,1.7033,1.7179,1.7252,0.0,0.0,0.0,0.0,0.0,0.0,0.0,0.0,1.9241,1.9381,1.9876,2.0213,2.0479,2.1315,2.2192,2.3083,2.3597,2.4162,2.4812,2.4812,2.4812,2.483,2.5388,2.643,2.786,2.8709,3.0064,3.1767,3.2133,3.2383,3.2727,3.2727,3.2727,3.2727,3.2727,3.2727,3.283,3.3741,3.4072,3.4196,3.5107,3.5418,3.5418,3.5418,3.5728,3.6204,3.666,3.7136,3.7591,3.8046,3.8191,3.8191,3.8191,3.8295,3.8481,3.8771,3.9081,3.9475,4.0096,4.0344,4.053,4.082,4.0882,4.0882,4.0882,4.0882,4.0882,4.0882,4.0882,4.1167,4.1877,4.2018,4.2419,4.3397,4.3952,4.4501,4.5115,4.6192,4.6724,4.638,4.7,4.716,4.6632,4.6954,4.7417,4.8167,4.9604,5.0993,5.2278,5.3402,5.4376,5.5099,5.5099,5.5099,1.7326,1.7326,0.0,1.7326,1.7326,0.0,1.7326,0.0,0.0,0.0,0.0,0.0,0.0,0.0,1.7326,1.7326,1.7044,1.6857,0.0,1.59,0.0,0.0,0.0,0.0,0.0,0.0,1.8783,1.8754,1.9397,1.976,1.9909,2.0847,2.1867,2.2877,2.3408,2.4042,2.4812,2.4812,2.4812,2.483,2.5052,2.5883,2.729,2.7906,2.9238,3.1285,3.1536,3.2133,3.2727,3.2727,3.2727,3.2727,3.2727,3.2727,3.283,3.3741,3.4279,3.4631,3.5211,3.5418,3.5418,3.5418,3.5852,3.6411,3.6722,3.7239,3.7881,3.8481,3.844,3.8253,3.8585,3.8543,3.8502,3.8792,3.9102,3.9495,4.0096,4.0344,4.0551,4.082,4.0882,4.0882,4.0882,4.0882,4.0882,4.0882,4.0882,4.1025,4.1594,4.1594,4.2061,4.3219,4.3801,4.4559,4.5613,4.6854,4.7413,4.6908,4.7344,4.7482,4.716,4.7459,4.8056,4.8974,4.972,5.0984,5.2735,5.3206,5.3971,5.5099,5.5099,5.5099]}]]